Wetterdaten: Sonntag, 21.08.2016
Datum Zeit Temp. A. Feuchte A. Luftdruck Regen Wind Richtung Richtung Sonnenschein ET UV Solar Taupunkt Windchill Windben Empfang
21.08.2016 00:00 18,6 C 92 % 1013,6 hPa 0,0 l/m 9,5 km/h (2 Bft) W-SW 242 0 min 0,000 mm 0,0 UV-I 0 W/m 17,3 C 17,3 C 14,5 km/h (3 Bft) 97,44 %
21.08.2016 00:02 18,6 C 92 % 1013,7 hPa 0,0 l/m 9,9 km/h (2 Bft) S 177 0 min 0,000 mm 0,0 UV-I 0 W/m 17,3 C 17,1 C 16,1 km/h (3 Bft) 97,56 %
21.08.2016 00:04 18,6 C 92 % 1013,7 hPa 0,0 l/m 9,4 km/h (2 Bft) W-SW 238 0 min 0,000 mm 0,0 UV-I 0 W/m 17,3 C 17,3 C 14,5 km/h (3 Bft) 100,00 %
21.08.2016 00:06 18,5 C 93 % 1013,7 hPa 0,0 l/m 9,8 km/h (2 Bft) W-SW 238 0 min 0,000 mm 0,0 UV-I 0 W/m 17,3 C 17,1 C 14,5 km/h (3 Bft) 100,00 %
21.08.2016 00:08 18,5 C 93 % 1013,7 hPa 0,0 l/m 8,7 km/h (2 Bft) W-SW 242 0 min 0,000 mm 0,0 UV-I 0 W/m 17,3 C 17,5 C 14,5 km/h (3 Bft) 97,87 %
21.08.2016 00:10 18,5 C 93 % 1013,7 hPa 0,0 l/m 8,8 km/h (2 Bft) S-SW 213 0 min 0,000 mm 0,0 UV-I 0 W/m 17,3 C 17,4 C 12,9 km/h (3 Bft) 100,00 %
21.08.2016 00:12 18,5 C 93 % 1013,8 hPa 0,0 l/m 9,5 km/h (2 Bft) S-SW 213 0 min 0,000 mm 0,0 UV-I 0 W/m 17,3 C 17,2 C 14,5 km/h (3 Bft) 100,00 %
21.08.2016 00:14 18,4 C 93 % 1013,8 hPa 0,0 l/m 10,8 km/h (2 Bft) SW 236 0 min 0,000 mm 0,0 UV-I 0 W/m 17,2 C 16,6 C 17,7 km/h (3 Bft) 100,00 %
21.08.2016 00:16 18,4 C 93 % 1013,9 hPa 0,0 l/m 10,3 km/h (2 Bft) SW 232 0 min 0,000 mm 0,0 UV-I 0 W/m 17,2 C 16,8 C 16,1 km/h (3 Bft) 100,00 %
21.08.2016 00:18 18,4 C 93 % 1013,9 hPa 0,0 l/m 10,9 km/h (2 Bft) W-SW 238 0 min 0,000 mm 0,0 UV-I 0 W/m 17,2 C 16,6 C 14,5 km/h (3 Bft) 100,00 %
21.08.2016 00:20 18,4 C 93 % 1014,0 hPa 0,0 l/m 11,3 km/h (2 Bft) SW 228 0 min 0,000 mm 0,0 UV-I 0 W/m 17,2 C 16,4 C 16,1 km/h (3 Bft) 100,00 %
21.08.2016 00:22 18,5 C 93 % 1014,0 hPa 0,0 l/m 9,1 km/h (2 Bft) SW 223 0 min 0,000 mm 0,0 UV-I 0 W/m 17,3 C 17,3 C 14,5 km/h (3 Bft) 100,00 %
21.08.2016 00:24 18,5 C 93 % 1014,0 hPa 0,0 l/m 8,8 km/h (2 Bft) S-SW 209 0 min 0,000 mm 0,0 UV-I 0 W/m 17,3 C 17,4 C 12,9 km/h (3 Bft) 100,00 %
21.08.2016 00:26 18,5 C 93 % 1014,0 hPa 0,0 l/m 9,2 km/h (2 Bft) SW 221 0 min 0,000 mm 0,0 UV-I 0 W/m 17,3 C 17,3 C 16,1 km/h (3 Bft) 100,00 %
21.08.2016 00:28 18,5 C 93 % 1013,9 hPa 0,0 l/m 9,1 km/h (2 Bft) SW 233 0 min 0,000 mm 0,0 UV-I 0 W/m 17,3 C 17,3 C 12,9 km/h (3 Bft) 100,00 %
21.08.2016 00:30 18,5 C 93 % 1014,0 hPa 0,0 l/m 8,4 km/h (2 Bft) W-SW 238 0 min 0,000 mm 0,0 UV-I 0 W/m 17,3 C 17,6 C 16,1 km/h (3 Bft) 98,11 %
21.08.2016 00:32 18,5 C 93 % 1014,0 hPa 0,0 l/m 8,8 km/h (2 Bft) SW 221 0 min 0,000 mm 0,0 UV-I 0 W/m 17,3 C 17,4 C 16,1 km/h (3 Bft) 100,00 %
21.08.2016 00:34 18,5 C 93 % 1014,0 hPa 0,0 l/m 10,2 km/h (2 Bft) SW 226 0 min 0,000 mm 0,0 UV-I 0 W/m 17,3 C 16,9 C 14,5 km/h (3 Bft) 100,00 %
21.08.2016 00:36 18,5 C 93 % 1013,8 hPa 0,0 l/m 11,1 km/h (2 Bft) W-SW 250 0 min 0,000 mm 0,0 UV-I 0 W/m 17,3 C 16,6 C 16,1 km/h (3 Bft) 100,00 %
21.08.2016 00:38 18,6 C 93 % 1013,9 hPa 0,0 l/m 10,2 km/h (2 Bft) W-SW 242 0 min 0,000 mm 0,0 UV-I 0 W/m 17,4 C 17,0 C 16,1 km/h (3 Bft) 100,00 %
21.08.2016 00:40 18,6 C 93 % 1013,8 hPa 0,0 l/m 8,9 km/h (2 Bft) SW 219 0 min 0,000 mm 0,0 UV-I 0 W/m 17,4 C 17,5 C 12,9 km/h (3 Bft) 100,00 %
21.08.2016 00:42 18,6 C 93 % 1013,9 hPa 0,0 l/m 8,7 km/h (2 Bft) SW 234 0 min 0,000 mm 0,0 UV-I 0 W/m 17,4 C 17,6 C 14,5 km/h (3 Bft) 100,00 %
21.08.2016 00:44 18,6 C 93 % 1014,0 hPa 0,0 l/m 8,4 km/h (2 Bft) W-SW 242 0 min 0,000 mm 0,0 UV-I 0 W/m 17,4 C 17,7 C 14,5 km/h (3 Bft) 100,00 %
21.08.2016 00:46 18,6 C 93 % 1014,0 hPa 0,0 l/m 9,6 km/h (2 Bft) S-SW 210 0 min 0,000 mm 0,0 UV-I 0 W/m 17,4 C 17,2 C 14,5 km/h (3 Bft) 100,00 %
21.08.2016 00:48 18,6 C 93 % 1014,1 hPa 0,0 l/m 7,8 km/h (2 Bft) SW 217 0 min 0,000 mm 0,0 UV-I 0 W/m 17,4 C 18,0 C 14,5 km/h (3 Bft) 100,00 %
21.08.2016 00:50 18,6 C 93 % 1014,1 hPa 0,0 l/m 10,9 km/h (2 Bft) S-SW 205 0 min 0,000 mm 0,0 UV-I 0 W/m 17,4 C 16,8 C 14,5 km/h (3 Bft) 94,74 %
21.08.2016 00:52 18,6 C 93 % 1014,1 hPa 0,0 l/m 8,0 km/h (2 Bft) SW 217 0 min 0,000 mm 0,0 UV-I 0 W/m 17,4 C 17,9 C 12,9 km/h (3 Bft) 95,74 %
21.08.2016 00:54 18,6 C 93 % 1014,1 hPa 0,0 l/m 9,8 km/h (2 Bft) W-SW 253 0 min 0,000 mm 0,0 UV-I 0 W/m 17,4 C 17,2 C 14,5 km/h (3 Bft) 100,00 %
21.08.2016 00:56 18,6 C 93 % 1014,1 hPa 0,0 l/m 7,6 km/h (2 Bft) W-SW 243 0 min 0,000 mm 0,0 UV-I 0 W/m 17,4 C 18,1 C 14,5 km/h (3 Bft) 97,56 %
21.08.2016 00:58 18,6 C 93 % 1014,0 hPa 0,0 l/m 9,4 km/h (2 Bft) W-SW 258 0 min 0,000 mm 0,0 UV-I 0 W/m 17,4 C 17,3 C 12,9 km/h (3 Bft) 98,00 %
21.08.2016 01:00 18,6 C 93 % 1013,9 hPa 0,0 l/m 9,5 km/h (2 Bft) W 267 0 min 0,000 mm 0,0 UV-I 0 W/m 17,4 C 17,3 C 14,5 km/h (3 Bft) 98,11 %
21.08.2016 01:02 18,6 C 92 % 1013,9 hPa 0,0 l/m 12,0 km/h (2 Bft) W-SW 240 0 min 0,000 mm 0,0 UV-I 0 W/m 17,3 C 16,4 C 16,1 km/h (3 Bft) 100,00 %
21.08.2016 01:04 18,6 C 92 % 1013,9 hPa 0,0 l/m 8,4 km/h (2 Bft) W-SW 248 0 min 0,000 mm 0,0 UV-I 0 W/m 17,3 C 17,7 C 12,9 km/h (3 Bft) 100,00 %
21.08.2016 01:06 18,6 C 92 % 1013,9 hPa 0,0 l/m 9,0 km/h (2 Bft) W 261 0 min 0,000 mm 0,0 UV-I 0 W/m 17,3 C 17,5 C 16,1 km/h (3 Bft) 97,87 %
21.08.2016 01:08 18,6 C 92 % 1013,9 hPa 0,0 l/m 6,7 km/h (2 Bft) SW 236 0 min 0,000 mm 0,0 UV-I 0 W/m 17,3 C 18,5 C 9,7 km/h (2 Bft) 100,00 %
21.08.2016 01:10 18,6 C 92 % 1013,9 hPa 0,0 l/m 8,4 km/h (2 Bft) SW 234 0 min 0,000 mm 0,0 UV-I 0 W/m 17,3 C 17,7 C 14,5 km/h (3 Bft) 100,00 %
21.08.2016 01:12 18,6 C 92 % 1013,9 hPa 0,0 l/m 9,2 km/h (2 Bft) SW 234 0 min 0,000 mm 0,0 UV-I 0 W/m 17,3 C 17,4 C 16,1 km/h (3 Bft) 100,00 %
21.08.2016 01:14 18,6 C 92 % 1013,9 hPa 0,0 l/m 10,4 km/h (2 Bft) W-SW 248 0 min 0,000 mm 0,0 UV-I 0 W/m 17,3 C 17,0 C 16,1 km/h (3 Bft) 98,18 %
21.08.2016 01:16 18,6 C 92 % 1014,0 hPa 0,0 l/m 11,4 km/h (2 Bft) S-SW 211 0 min 0,000 mm 0,0 UV-I 0 W/m 17,3 C 16,6 C 17,7 km/h (3 Bft) 100,00 %
21.08.2016 01:18 18,6 C 92 % 1013,9 hPa 0,0 l/m 8,9 km/h (2 Bft) W-SW 254 0 min 0,000 mm 0,0 UV-I 0 W/m 17,3 C 17,5 C 12,9 km/h (3 Bft) 100,00 %
21.08.2016 01:20 18,6 C 92 % 1013,9 hPa 0,0 l/m 8,7 km/h (2 Bft) S-SW 208 0 min 0,000 mm 0,0 UV-I 0 W/m 17,3 C 17,6 C 16,1 km/h (3 Bft) 100,00 %
21.08.2016 01:22 18,6 C 92 % 1014,0 hPa 0,0 l/m 8,4 km/h (2 Bft) SW 233 0 min 0,000 mm 0,0 UV-I 0 W/m 17,3 C 17,7 C 11,3 km/h (2 Bft) 98,08 %
21.08.2016 01:24 18,5 C 92 % 1014,0 hPa 0,0 l/m 7,4 km/h (2 Bft) W-SW 248 0 min 0,000 mm 0,0 UV-I 0 W/m 17,2 C 18,0 C 14,5 km/h (3 Bft) 97,44 %
21.08.2016 01:26 18,5 C 92 % 1013,9 hPa 0,0 l/m 8,7 km/h (2 Bft) W-SW 254 0 min 0,000 mm 0,0 UV-I 0 W/m 17,2 C 17,5 C 14,5 km/h (3 Bft) 98,11 %
21.08.2016 01:28 18,4 C 92 % 1013,9 hPa 0,0 l/m 6,9 km/h (2 Bft) W-SW 246 0 min 0,000 mm 0,0 UV-I 0 W/m 17,1 C 18,2 C 11,3 km/h (2 Bft) 97,37 %
21.08.2016 01:30 18,4 C 92 % 1013,9 hPa 0,0 l/m 9,5 km/h (2 Bft) W-SW 246 0 min 0,000 mm 0,0 UV-I 0 W/m 17,1 C 17,1 C 14,5 km/h (3 Bft) 98,00 %
21.08.2016 01:32 18,4 C 92 % 1013,9 hPa 0,0 l/m 9,8 km/h (2 Bft) W 266 0 min 0,000 mm 0,0 UV-I 0 W/m 17,1 C 16,9 C 14,5 km/h (3 Bft) 96,23 %
21.08.2016 01:34 18,4 C 93 % 1014,0 hPa 0,0 l/m 6,6 km/h (2 Bft) SW 227 0 min 0,000 mm 0,0 UV-I 0 W/m 17,2 C 18,3 C 11,3 km/h (2 Bft) 97,87 %
21.08.2016 01:36 18,3 C 93 % 1013,9 hPa 0,0 l/m 8,4 km/h (2 Bft) W 262 0 min 0,000 mm 0,0 UV-I 0 W/m 17,1 C 17,4 C 12,9 km/h (3 Bft) 97,56 %
21.08.2016 01:38 18,3 C 92 % 1013,9 hPa 0,0 l/m 11,6 km/h (2 Bft) W-SW 248 0 min 0,000 mm 0,0 UV-I 0 W/m 17,0 C 16,2 C 14,5 km/h (3 Bft) 98,11 %
21.08.2016 01:40 18,3 C 92 % 1013,9 hPa 0,0 l/m 10,0 km/h (2 Bft) W-SW 257 0 min 0,000 mm 0,0 UV-I 0 W/m 17,0 C 16,8 C 14,5 km/h (3 Bft) 97,37 %
21.08.2016 01:42 18,3 C 93 % 1013,9 hPa 0,0 l/m 9,3 km/h (2 Bft) W-SW 253 0 min 0,000 mm 0,0 UV-I 0 W/m 17,1 C 17,0 C 12,9 km/h (3 Bft) 98,11 %
21.08.2016 01:44 18,3 C 93 % 1013,9 hPa 0,0 l/m 7,2 km/h (2 Bft) W-SW 257 0 min 0,000 mm 0,0 UV-I 0 W/m 17,1 C 17,9 C 11,3 km/h (2 Bft) 97,87 %
21.08.2016 01:46 18,3 C 93 % 1013,9 hPa 0,0 l/m 6,5 km/h (2 Bft) W-SW 240 0 min 0,000 mm 0,0 UV-I 0 W/m 17,1 C 18,3 C 11,3 km/h (2 Bft) 96,00 %
21.08.2016 01:48 18,2 C 93 % 1013,9 hPa 0,0 l/m 8,5 km/h (2 Bft) W-SW 256 0 min 0,000 mm 0,0 UV-I 0 W/m 17,0 C 17,2 C 12,9 km/h (3 Bft) 100,00 %
21.08.2016 01:50 18,2 C 93 % 1013,9 hPa 0,0 l/m 6,0 km/h (2 Bft) SW 233 0 min 0,000 mm 0,0 UV-I 0 W/m 17,0 C 18,2 C 9,7 km/h (2 Bft) 95,74 %
21.08.2016 01:52 18,2 C 93 % 1013,9 hPa 0,0 l/m 7,6 km/h (2 Bft) W-SW 255 0 min 0,000 mm 0,0 UV-I 0 W/m 17,0 C 17,6 C 12,9 km/h (3 Bft) 98,11 %
21.08.2016 01:54 18,2 C 93 % 1013,9 hPa 0,0 l/m 7,5 km/h (2 Bft) W-SW 238 0 min 0,000 mm 0,0 UV-I 0 W/m 17,0 C 17,7 C 12,9 km/h (3 Bft) 98,00 %
21.08.2016 01:56 18,2 C 94 % 1013,9 hPa 0,0 l/m 5,3 km/h (1 Bft) SW 225 0 min 0,000 mm 0,0 UV-I 0 W/m 17,2 C 18,2 C 8,0 km/h (2 Bft) 97,56 %
21.08.2016 01:58 18,1 C 94 % 1014,0 hPa 0,0 l/m 7,4 km/h (2 Bft) SW 230 0 min 0,000 mm 0,0 UV-I 0 W/m 17,1 C 17,6 C 12,9 km/h (3 Bft) 100,00 %
21.08.2016 02:00 18,1 C 94 % 1014,0 hPa 0,0 l/m 7,0 km/h (2 Bft) SW 215 0 min 0,000 mm 0,0 UV-I 0 W/m 17,1 C 17,8 C 11,3 km/h (2 Bft) 100,00 %
21.08.2016 02:02 18,1 C 93 % 1014,0 hPa 0,0 l/m 6,2 km/h (2 Bft) SW 222 0 min 0,000 mm 0,0 UV-I 0 W/m 16,9 C 18,1 C 8,0 km/h (2 Bft) 98,11 %
21.08.2016 02:04 18,1 C 93 % 1014,0 hPa 0,0 l/m 7,0 km/h (2 Bft) S-SW 196 0 min 0,000 mm 0,0 UV-I 0 W/m 16,9 C 17,8 C 11,3 km/h (2 Bft) 94,74 %
21.08.2016 02:06 18,0 C 93 % 1014,1 hPa 0,0 l/m 6,7 km/h (2 Bft) S-SW 208 0 min 0,000 mm 0,0 UV-I 0 W/m 16,8 C 17,9 C 8,0 km/h (2 Bft) 97,73 %
21.08.2016 02:08 18,0 C 94 % 1014,0 hPa 0,2 l/m 9,5 km/h (2 Bft) W-SW 257 0 min 0,000 mm 0,0 UV-I 0 W/m 17,0 C 16,6 C 16,1 km/h (3 Bft) 100,00 %
21.08.2016 02:10 18,0 C 93 % 1014,0 hPa 0,0 l/m 9,7 km/h (2 Bft) SW 215 0 min 0,000 mm 0,0 UV-I 0 W/m 16,8 C 16,5 C 14,5 km/h (3 Bft) 98,21 %
21.08.2016 02:12 17,9 C 93 % 1014,0 hPa 0,0 l/m 10,6 km/h (2 Bft) W-SW 240 0 min 0,000 mm 0,0 UV-I 0 W/m 16,8 C 16,1 C 16,1 km/h (3 Bft) 97,37 %
21.08.2016 02:14 17,9 C 94 % 1014,0 hPa 0,0 l/m 11,0 km/h (2 Bft) SW 236 0 min 0,000 mm 0,0 UV-I 0 W/m 16,9 C 16,0 C 16,1 km/h (3 Bft) 100,00 %
21.08.2016 02:16 17,9 C 94 % 1014,0 hPa 0,0 l/m 8,2 km/h (2 Bft) SW 225 0 min 0,000 mm 0,0 UV-I 0 W/m 16,9 C 17,1 C 14,5 km/h (3 Bft) 97,87 %
21.08.2016 02:18 17,9 C 94 % 1014,0 hPa 0,0 l/m 9,3 km/h (2 Bft) S-SW 212 0 min 0,000 mm 0,0 UV-I 0 W/m 16,9 C 16,6 C 14,5 km/h (3 Bft) 100,00 %
21.08.2016 02:20 17,9 C 94 % 1014,1 hPa 0,0 l/m 7,8 km/h (2 Bft) SW 219 0 min 0,000 mm 0,0 UV-I 0 W/m 16,9 C 17,2 C 14,5 km/h (3 Bft) 100,00 %
21.08.2016 02:22 17,9 C 94 % 1014,1 hPa 0,0 l/m 8,5 km/h (2 Bft) SW 224 0 min 0,000 mm 0,0 UV-I 0 W/m 16,9 C 16,9 C 16,1 km/h (3 Bft) 100,00 %
21.08.2016 02:24 17,9 C 94 % 1014,1 hPa 0,0 l/m 8,3 km/h (2 Bft) S-SW 203 0 min 0,000 mm 0,0 UV-I 0 W/m 16,9 C 17,0 C 14,5 km/h (3 Bft) 100,00 %
21.08.2016 02:26 17,9 C 94 % 1014,0 hPa 0,0 l/m 8,6 km/h (2 Bft) SW 219 0 min 0,000 mm 0,0 UV-I 0 W/m 16,9 C 16,9 C 12,9 km/h (3 Bft) 100,00 %
21.08.2016 02:28 17,9 C 94 % 1014,0 hPa 0,0 l/m 8,8 km/h (2 Bft) W-SW 241 0 min 0,000 mm 0,0 UV-I 0 W/m 16,9 C 16,8 C 14,5 km/h (3 Bft) 100,00 %
21.08.2016 02:30 17,8 C 94 % 1014,0 hPa 0,0 l/m 7,6 km/h (2 Bft) S-SW 211 0 min 0,000 mm 0,0 UV-I 0 W/m 16,8 C 17,2 C 14,5 km/h (3 Bft) 100,00 %
21.08.2016 02:32 17,8 C 94 % 1014,1 hPa 0,0 l/m 11,1 km/h (2 Bft) SW 236 0 min 0,000 mm 0,0 UV-I 0 W/m 16,8 C 15,8 C 17,7 km/h (3 Bft) 100,00 %
21.08.2016 02:34 17,8 C 94 % 1014,0 hPa 0,0 l/m 10,0 km/h (2 Bft) SW 236 0 min 0,000 mm 0,0 UV-I 0 W/m 16,8 C 16,2 C 17,7 km/h (3 Bft) 100,00 %
21.08.2016 02:36 17,8 C 94 % 1014,1 hPa 0,2 l/m 10,9 km/h (2 Bft) SW 229 0 min 0,000 mm 0,0 UV-I 0 W/m 16,8 C 15,9 C 17,7 km/h (3 Bft) 100,00 %
21.08.2016 02:38 17,8 C 94 % 1014,0 hPa 0,0 l/m 10,0 km/h (2 Bft) SW 236 0 min 0,000 mm 0,0 UV-I 0 W/m 16,8 C 16,2 C 16,1 km/h (3 Bft) 100,00 %
21.08.2016 02:40 17,8 C 94 % 1014,0 hPa 0,0 l/m 10,0 km/h (2 Bft) SW 223 0 min 0,000 mm 0,0 UV-I 0 W/m 16,8 C 16,2 C 17,7 km/h (3 Bft) 98,00 %
21.08.2016 02:42 17,8 C 94 % 1014,0 hPa 0,0 l/m 10,3 km/h (2 Bft) W-SW 238 0 min 0,000 mm 0,0 UV-I 0 W/m 16,8 C 16,1 C 14,5 km/h (3 Bft) 100,00 %
21.08.2016 02:44 17,8 C 94 % 1013,9 hPa 0,0 l/m 9,5 km/h (2 Bft) SW 217 0 min 0,000 mm 0,0 UV-I 0 W/m 16,8 C 16,4 C 14,5 km/h (3 Bft) 100,00 %
21.08.2016 02:46 17,7 C 94 % 1014,0 hPa 0,0 l/m 9,8 km/h (2 Bft) SW 234 0 min 0,000 mm 0,0 UV-I 0 W/m 16,7 C 16,2 C 17,7 km/h (3 Bft) 98,00 %
21.08.2016 02:48 17,8 C 94 % 1014,0 hPa 0,2 l/m 9,1 km/h (2 Bft) S-SW 207 0 min 0,000 mm 0,0 UV-I 0 W/m 16,8 C 16,6 C 12,9 km/h (3 Bft) 100,00 %
21.08.2016 02:50 17,7 C 94 % 1014,0 hPa 0,0 l/m 9,8 km/h (2 Bft) SW 233 0 min 0,000 mm 0,0 UV-I 0 W/m 16,7 C 16,2 C 12,9 km/h (3 Bft) 100,00 %
21.08.2016 02:52 17,7 C 94 % 1014,0 hPa 0,0 l/m 9,1 km/h (2 Bft) SW 236 0 min 0,000 mm 0,0 UV-I 0 W/m 16,7 C 16,5 C 14,5 km/h (3 Bft) 100,00 %
21.08.2016 02:54 17,7 C 94 % 1014,0 hPa 0,0 l/m 11,1 km/h (2 Bft) SW 232 0 min 0,000 mm 0,0 UV-I 0 W/m 16,7 C 15,7 C 16,1 km/h (3 Bft) 100,00 %
21.08.2016 02:56 17,7 C 94 % 1014,0 hPa 0,0 l/m 9,4 km/h (2 Bft) W-SW 240 0 min 0,000 mm 0,0 UV-I 0 W/m 16,7 C 16,3 C 16,1 km/h (3 Bft) 100,00 %
21.08.2016 02:58 17,7 C 94 % 1014,0 hPa 0,0 l/m 9,3 km/h (2 Bft) SW 233 0 min 0,000 mm 0,0 UV-I 0 W/m 16,7 C 16,4 C 16,1 km/h (3 Bft) 100,00 %
21.08.2016 03:00 17,7 C 94 % 1014,0 hPa 0,0 l/m 10,1 km/h (2 Bft) SW 215 0 min 0,000 mm 0,0 UV-I 0 W/m 16,7 C 16,1 C 16,1 km/h (3 Bft) 100,00 %
21.08.2016 03:02 17,7 C 94 % 1014,0 hPa 0,0 l/m 11,2 km/h (2 Bft) W 262 0 min 0,000 mm 0,0 UV-I 0 W/m 16,7 C 15,7 C 16,1 km/h (3 Bft) 100,00 %
21.08.2016 03:04 17,6 C 94 % 1014,0 hPa 0,0 l/m 10,7 km/h (2 Bft) SW 232 0 min 0,000 mm 0,0 UV-I 0 W/m 16,6 C 15,7 C 17,7 km/h (3 Bft) 100,00 %
21.08.2016 03:06 17,6 C 95 % 1014,0 hPa 0,0 l/m 10,8 km/h (2 Bft) S-SW 204 0 min 0,000 mm 0,0 UV-I 0 W/m 16,8 C 15,7 C 16,1 km/h (3 Bft) 100,00 %
21.08.2016 03:08 17,6 C 95 % 1014,0 hPa 0,0 l/m 10,9 km/h (2 Bft) SW 234 0 min 0,000 mm 0,0 UV-I 0 W/m 16,8 C 15,7 C 17,7 km/h (3 Bft) 100,00 %
21.08.2016 03:10 17,6 C 95 % 1014,0 hPa 0,0 l/m 10,5 km/h (2 Bft) SW 218 0 min 0,000 mm 0,0 UV-I 0 W/m 16,8 C 15,8 C 17,7 km/h (3 Bft) 97,56 %
21.08.2016 03:12 17,6 C 95 % 1014,1 hPa 0,0 l/m 10,3 km/h (2 Bft) S 175 0 min 0,000 mm 0,0 UV-I 0 W/m 16,8 C 15,9 C 17,7 km/h (3 Bft) 98,00 %
21.08.2016 03:14 17,6 C 95 % 1014,1 hPa 0,0 l/m 9,2 km/h (2 Bft) W-SW 239 0 min 0,000 mm 0,0 UV-I 0 W/m 16,8 C 16,3 C 17,7 km/h (3 Bft) 100,00 %
21.08.2016 03:16 17,6 C 95 % 1014,1 hPa 0,2 l/m 9,9 km/h (2 Bft) SW 216 0 min 0,000 mm 0,0 UV-I 0 W/m 16,8 C 16,0 C 16,1 km/h (3 Bft) 100,00 %
21.08.2016 03:18 17,5 C 95 % 1014,1 hPa 0,0 l/m 8,8 km/h (2 Bft) SW 223 0 min 0,000 mm 0,0 UV-I 0 W/m 16,7 C 16,4 C 17,7 km/h (3 Bft) 100,00 %
21.08.2016 03:20 17,5 C 95 % 1014,1 hPa 0,0 l/m 9,9 km/h (2 Bft) S-SW 194 0 min 0,000 mm 0,0 UV-I 0 W/m 16,7 C 15,9 C 16,1 km/h (3 Bft) 100,00 %
21.08.2016 03:22 17,4 C 95 % 1014,1 hPa 0,2 l/m 8,7 km/h (2 Bft) SW 227 0 min 0,000 mm 0,0 UV-I 0 W/m 16,6 C 16,3 C 14,5 km/h (3 Bft) 97,56 %
21.08.2016 03:24 17,4 C 95 % 1014,1 hPa 0,0 l/m 11,3 km/h (2 Bft) SW 234 0 min 0,000 mm 0,0 UV-I 0 W/m 16,6 C 15,3 C 16,1 km/h (3 Bft) 97,73 %
21.08.2016 03:26 17,4 C 95 % 1014,1 hPa 0,0 l/m 11,5 km/h (2 Bft) SW 234 0 min 0,000 mm 0,0 UV-I 0 W/m 16,6 C 15,2 C 19,3 km/h (3 Bft) 95,74 %
21.08.2016 03:28 17,4 C 95 % 1014,1 hPa 0,0 l/m 9,2 km/h (2 Bft) S-SW 207 0 min 0,000 mm 0,0 UV-I 0 W/m 16,6 C 16,1 C 14,5 km/h (3 Bft) 94,00 %
21.08.2016 03:30 17,4 C 95 % 1014,0 hPa 0,0 l/m 8,9 km/h (2 Bft) SW 229 0 min 0,000 mm 0,0 UV-I 0 W/m 16,6 C 16,2 C 12,9 km/h (3 Bft) 97,87 %
21.08.2016 03:32 17,4 C 95 % 1014,0 hPa 0,0 l/m 9,0 km/h (2 Bft) SW 233 0 min 0,000 mm 0,0 UV-I 0 W/m 16,6 C 16,2 C 14,5 km/h (3 Bft) 95,74 %
21.08.2016 03:34 17,4 C 95 % 1014,1 hPa 0,0 l/m 8,3 km/h (2 Bft) SW 221 0 min 0,000 mm 0,0 UV-I 0 W/m 16,6 C 16,5 C 11,3 km/h (2 Bft) 98,00 %
21.08.2016 03:36 17,3 C 95 % 1014,0 hPa 0,0 l/m 8,4 km/h (2 Bft) W-SW 257 0 min 0,000 mm 0,0 UV-I 0 W/m 16,5 C 16,3 C 16,1 km/h (3 Bft) 97,37 %
21.08.2016 03:38 17,3 C 95 % 1014,1 hPa 0,0 l/m 6,1 km/h (2 Bft) S-SW 212 0 min 0,000 mm 0,0 UV-I 0 W/m 16,5 C 17,3 C 9,7 km/h (2 Bft) 96,23 %
21.08.2016 03:40 17,3 C 95 % 1014,1 hPa 0,0 l/m 7,5 km/h (2 Bft) S-SW 211 0 min 0,000 mm 0,0 UV-I 0 W/m 16,5 C 16,8 C 12,9 km/h (3 Bft) 98,11 %
21.08.2016 03:42 17,3 C 95 % 1014,0 hPa 0,0 l/m 7,9 km/h (2 Bft) W-SW 242 0 min 0,000 mm 0,0 UV-I 0 W/m 16,5 C 16,6 C 14,5 km/h (3 Bft) 94,29 %
21.08.2016 03:44 17,3 C 95 % 1014,0 hPa 0,0 l/m 7,4 km/h (2 Bft) SW 223 0 min 0,000 mm 0,0 UV-I 0 W/m 16,5 C 16,8 C 12,9 km/h (3 Bft) 97,87 %
21.08.2016 03:46 17,3 C 95 % 1014,0 hPa 0,0 l/m 7,6 km/h (2 Bft) W-SW 255 0 min 0,000 mm 0,0 UV-I 0 W/m 16,5 C 16,7 C 12,9 km/h (3 Bft) 97,92 %
21.08.2016 03:48 17,3 C 95 % 1014,1 hPa 0,0 l/m 6,5 km/h (2 Bft) W 259 0 min 0,000 mm 0,0 UV-I 0 W/m 16,5 C 17,3 C 11,3 km/h (2 Bft) 97,73 %
21.08.2016 03:50 17,3 C 95 % 1014,0 hPa 0,0 l/m 7,0 km/h (2 Bft) W-SW 243 0 min 0,000 mm 0,0 UV-I 0 W/m 16,5 C 17,0 C 11,3 km/h (2 Bft) 96,23 %
21.08.2016 03:52 17,3 C 95 % 1014,1 hPa 0,2 l/m 6,9 km/h (2 Bft) W-SW 248 0 min 0,000 mm 0,0 UV-I 0 W/m 16,5 C 17,1 C 12,9 km/h (3 Bft) 98,11 %
21.08.2016 03:54 17,3 C 95 % 1014,0 hPa 0,0 l/m 8,4 km/h (2 Bft) SW 229 0 min 0,000 mm 0,0 UV-I 0 W/m 16,5 C 16,3 C 14,5 km/h (3 Bft) 97,44 %
21.08.2016 03:56 17,2 C 95 % 1014,1 hPa 0,2 l/m 8,6 km/h (2 Bft) SW 227 0 min 0,000 mm 0,0 UV-I 0 W/m 16,4 C 16,1 C 12,9 km/h (3 Bft) 100,00 %
21.08.2016 03:58 17,2 C 95 % 1014,0 hPa 0,2 l/m 9,2 km/h (2 Bft) SW 225 0 min 0,000 mm 0,0 UV-I 0 W/m 16,4 C 15,9 C 14,5 km/h (3 Bft) 100,00 %
21.08.2016 04:00 17,2 C 95 % 1014,1 hPa 0,2 l/m 7,5 km/h (2 Bft) W-SW 244 0 min 0,000 mm 0,0 UV-I 0 W/m 16,4 C 16,7 C 12,9 km/h (3 Bft) 100,00 %
21.08.2016 04:02 17,2 C 95 % 1014,1 hPa 0,0 l/m 6,4 km/h (2 Bft) SW 222 0 min 0,000 mm 0,0 UV-I 0 W/m 16,4 C 17,2 C 8,0 km/h (2 Bft) 100,00 %
21.08.2016 04:04 17,2 C 95 % 1014,1 hPa 0,2 l/m 5,0 km/h (1 Bft) SW 227 0 min 0,000 mm 0,0 UV-I 0 W/m 16,4 C 17,2 C 9,7 km/h (2 Bft) 98,11 %
21.08.2016 04:06 17,1 C 95 % 1014,1 hPa 0,0 l/m 7,5 km/h (2 Bft) W-SW 257 0 min 0,000 mm 0,0 UV-I 0 W/m 16,3 C 16,5 C 11,3 km/h (2 Bft) 100,00 %
21.08.2016 04:08 17,1 C 95 % 1014,1 hPa 0,2 l/m 6,9 km/h (2 Bft) SW 228 0 min 0,000 mm 0,0 UV-I 0 W/m 16,3 C 16,9 C 11,3 km/h (2 Bft) 100,00 %
21.08.2016 04:10 17,1 C 95 % 1014,1 hPa 0,0 l/m 4,6 km/h (1 Bft) S-SW 201 0 min 0,000 mm 0,0 UV-I 0 W/m 16,3 C 17,1 C 6,4 km/h (2 Bft) 100,00 %
21.08.2016 04:12 17,0 C 95 % 1014,1 hPa 0,2 l/m 6,7 km/h (2 Bft) SW 233 0 min 0,000 mm 0,0 UV-I 0 W/m 16,2 C 16,9 C 9,7 km/h (2 Bft) 100,00 %
21.08.2016 04:14 17,0 C 95 % 1014,2 hPa 0,2 l/m 5,5 km/h (1 Bft) W-SW 250 0 min 0,000 mm 0,0 UV-I 0 W/m 16,2 C 17,0 C 9,7 km/h (2 Bft) 100,00 %
21.08.2016 04:16 17,1 C 95 % 1014,2 hPa 0,4 l/m 3,7 km/h (1 Bft) W-SW 237 0 min 0,000 mm 0,0 UV-I 0 W/m 16,3 C 17,1 C 4,8 km/h (1 Bft) 98,11 %
21.08.2016 04:18 17,0 C 95 % 1014,2 hPa 0,0 l/m 5,0 km/h (1 Bft) SW 217 0 min 0,000 mm 0,0 UV-I 0 W/m 16,2 C 17,0 C 8,0 km/h (2 Bft) 100,00 %
21.08.2016 04:20 17,0 C 95 % 1014,2 hPa 0,2 l/m 6,2 km/h (2 Bft) S-SW 198 0 min 0,000 mm 0,0 UV-I 0 W/m 16,2 C 17,0 C 9,7 km/h (2 Bft) 100,00 %
21.08.2016 04:22 16,9 C 95 % 1014,2 hPa 0,2 l/m 6,1 km/h (2 Bft) S-SW 196 0 min 0,000 mm 0,0 UV-I 0 W/m 16,1 C 16,9 C 8,0 km/h (2 Bft) 100,00 %
21.08.2016 04:24 16,9 C 95 % 1014,2 hPa 0,2 l/m 4,2 km/h (1 Bft) S-SW 202 0 min 0,000 mm 0,0 UV-I 0 W/m 16,1 C 16,9 C 6,4 km/h (2 Bft) 100,00 %
21.08.2016 04:26 16,9 C 96 % 1014,2 hPa 0,2 l/m 2,8 km/h (1 Bft) S 190 0 min 0,000 mm 0,0 UV-I 0 W/m 16,3 C 16,9 C 6,4 km/h (2 Bft) 98,00 %
21.08.2016 04:28 16,9 C 96 % 1014,2 hPa 0,2 l/m 4,2 km/h (1 Bft) S-SW 208 0 min 0,000 mm 0,0 UV-I 0 W/m 16,3 C 16,9 C 6,4 km/h (2 Bft) 100,00 %
21.08.2016 04:30 16,9 C 95 % 1014,2 hPa 0,2 l/m 5,3 km/h (1 Bft) SW 217 0 min 0,000 mm 0,0 UV-I 0 W/m 16,1 C 16,9 C 8,0 km/h (2 Bft) 100,00 %
21.08.2016 04:32 16,9 C 95 % 1014,3 hPa 0,2 l/m 4,3 km/h (1 Bft) SW 219 0 min 0,000 mm 0,0 UV-I 0 W/m 16,1 C 16,9 C 6,4 km/h (2 Bft) 100,00 %
21.08.2016 04:34 16,8 C 95 % 1014,3 hPa 0,0 l/m 4,0 km/h (1 Bft) SW 233 0 min 0,000 mm 0,0 UV-I 0 W/m 16,0 C 16,8 C 6,4 km/h (2 Bft) 100,00 %
21.08.2016 04:36 16,8 C 95 % 1014,3 hPa 0,0 l/m 2,9 km/h (1 Bft) SW 222 0 min 0,000 mm 0,0 UV-I 0 W/m 16,0 C 16,8 C 4,8 km/h (1 Bft) 97,87 %
21.08.2016 04:38 16,8 C 96 % 1014,3 hPa 0,0 l/m 4,2 km/h (1 Bft) SW 224 0 min 0,000 mm 0,0 UV-I 0 W/m 16,2 C 16,8 C 6,4 km/h (2 Bft) 98,00 %
21.08.2016 04:40 16,9 C 96 % 1014,4 hPa 0,0 l/m 5,2 km/h (1 Bft) S-SW 211 0 min 0,000 mm 0,0 UV-I 0 W/m 16,3 C 16,9 C 8,0 km/h (2 Bft) 96,00 %
21.08.2016 04:42 16,9 C 96 % 1014,3 hPa 0,0 l/m 5,1 km/h (1 Bft) W-SW 253 0 min 0,000 mm 0,0 UV-I 0 W/m 16,3 C 16,9 C 8,0 km/h (2 Bft) 100,00 %
21.08.2016 04:44 16,9 C 96 % 1014,3 hPa 0,2 l/m 4,0 km/h (1 Bft) S-SW 202 0 min 0,000 mm 0,0 UV-I 0 W/m 16,3 C 16,9 C 6,4 km/h (2 Bft) 100,00 %
21.08.2016 04:46 16,9 C 96 % 1014,3 hPa 0,0 l/m 5,5 km/h (1 Bft) S-SW 202 0 min 0,000 mm 0,0 UV-I 0 W/m 16,3 C 16,9 C 9,7 km/h (2 Bft) 100,00 %
21.08.2016 04:48 16,8 C 96 % 1014,4 hPa 0,0 l/m 4,7 km/h (1 Bft) S-SW 204 0 min 0,000 mm 0,0 UV-I 0 W/m 16,2 C 16,8 C 6,4 km/h (2 Bft) 100,00 %
21.08.2016 04:50 16,8 C 96 % 1014,4 hPa 0,0 l/m 4,6 km/h (1 Bft) S-SO 163 0 min 0,000 mm 0,0 UV-I 0 W/m 16,2 C 16,8 C 8,0 km/h (2 Bft) 98,21 %
21.08.2016 04:52 16,8 C 96 % 1014,3 hPa 0,0 l/m 5,5 km/h (1 Bft) S 190 0 min 0,000 mm 0,0 UV-I 0 W/m 16,2 C 16,8 C 8,0 km/h (2 Bft) 100,00 %
21.08.2016 04:54 16,8 C 96 % 1014,3 hPa 0,0 l/m 4,9 km/h (1 Bft) S 172 0 min 0,000 mm 0,0 UV-I 0 W/m 16,2 C 16,8 C 8,0 km/h (2 Bft) 100,00 %
21.08.2016 04:56 16,8 C 96 % 1014,4 hPa 0,0 l/m 3,1 km/h (1 Bft) SW 216 0 min 0,000 mm 0,0 UV-I 0 W/m 16,2 C 16,8 C 4,8 km/h (1 Bft) 97,87 %
21.08.2016 04:58 16,8 C 96 % 1014,4 hPa 0,0 l/m 3,8 km/h (1 Bft) SW 223 0 min 0,000 mm 0,0 UV-I 0 W/m 16,2 C 16,8 C 6,4 km/h (2 Bft) 100,00 %
21.08.2016 05:00 16,8 C 96 % 1014,4 hPa 0,0 l/m 2,9 km/h (1 Bft) S-SW 205 0 min 0,000 mm 0,0 UV-I 0 W/m 16,2 C 16,8 C 6,4 km/h (2 Bft) 100,00 %
21.08.2016 05:02 16,8 C 96 % 1014,4 hPa 0,0 l/m 3,5 km/h (1 Bft) SW 221 0 min 0,000 mm 0,0 UV-I 0 W/m 16,2 C 16,8 C 4,8 km/h (1 Bft) 94,74 %
21.08.2016 05:04 16,8 C 96 % 1014,4 hPa 0,0 l/m 3,5 km/h (1 Bft) SW 222 0 min 0,000 mm 0,0 UV-I 0 W/m 16,2 C 16,8 C 6,4 km/h (2 Bft) 100,00 %
21.08.2016 05:06 16,8 C 96 % 1014,4 hPa 0,0 l/m 3,5 km/h (1 Bft) SW 221 0 min 0,000 mm 0,0 UV-I 0 W/m 16,2 C 16,8 C 4,8 km/h (1 Bft) 100,00 %
21.08.2016 05:08 16,8 C 96 % 1014,4 hPa 0,0 l/m 4,9 km/h (1 Bft) S-SW 209 0 min 0,000 mm 0,0 UV-I 0 W/m 16,2 C 16,8 C 8,0 km/h (2 Bft) 100,00 %
21.08.2016 05:10 16,8 C 96 % 1014,5 hPa 0,0 l/m 6,0 km/h (2 Bft) SW 214 0 min 0,000 mm 0,0 UV-I 0 W/m 16,2 C 16,8 C 8,0 km/h (2 Bft) 100,00 %
21.08.2016 05:12 16,8 C 96 % 1014,5 hPa 0,0 l/m 5,4 km/h (1 Bft) SW 217 0 min 0,000 mm 0,0 UV-I 0 W/m 16,2 C 16,8 C 8,0 km/h (2 Bft) 100,00 %
21.08.2016 05:14 16,7 C 96 % 1014,5 hPa 0,0 l/m 6,7 km/h (2 Bft) S-SW 205 0 min 0,000 mm 0,0 UV-I 0 W/m 16,1 C 16,6 C 9,7 km/h (2 Bft) 100,00 %
21.08.2016 05:16 16,7 C 96 % 1014,6 hPa 0,0 l/m 5,6 km/h (1 Bft) S 185 0 min 0,000 mm 0,0 UV-I 0 W/m 16,1 C 16,7 C 9,7 km/h (2 Bft) 100,00 %
21.08.2016 05:18 16,7 C 96 % 1014,6 hPa 0,0 l/m 5,1 km/h (1 Bft) W-SW 239 0 min 0,000 mm 0,0 UV-I 0 W/m 16,1 C 16,7 C 8,0 km/h (2 Bft) 98,39 %
21.08.2016 05:20 16,7 C 96 % 1014,6 hPa 0,2 l/m 5,4 km/h (1 Bft) SW 214 0 min 0,000 mm 0,0 UV-I 0 W/m 16,1 C 16,7 C 6,4 km/h (2 Bft) 100,00 %
21.08.2016 05:22 16,8 C 96 % 1014,7 hPa 0,0 l/m 6,4 km/h (2 Bft) SW 220 0 min 0,000 mm 0,0 UV-I 0 W/m 16,2 C 16,8 C 8,0 km/h (2 Bft) 98,11 %
21.08.2016 05:24 16,8 C 96 % 1014,7 hPa 0,0 l/m 5,5 km/h (1 Bft) W-SW 241 0 min 0,000 mm 0,0 UV-I 0 W/m 16,2 C 16,8 C 8,0 km/h (2 Bft) 96,00 %
21.08.2016 05:26 16,8 C 96 % 1014,7 hPa 0,0 l/m 5,7 km/h (1 Bft) SW 227 0 min 0,000 mm 0,0 UV-I 0 W/m 16,2 C 16,8 C 8,0 km/h (2 Bft) 97,14 %
21.08.2016 05:28 16,8 C 96 % 1014,7 hPa 0,2 l/m 5,7 km/h (1 Bft) W-SW 248 0 min 0,000 mm 0,0 UV-I 0 W/m 16,2 C 16,8 C 11,3 km/h (2 Bft) 98,11 %
21.08.2016 05:30 16,8 C 96 % 1014,8 hPa 0,0 l/m 6,5 km/h (2 Bft) SW 225 0 min 0,000 mm 0,0 UV-I 0 W/m 16,2 C 16,8 C 11,3 km/h (2 Bft) 98,11 %
21.08.2016 05:32 16,8 C 96 % 1014,8 hPa 0,0 l/m 7,8 km/h (2 Bft) SW 229 0 min 0,000 mm 0,0 UV-I 0 W/m 16,2 C 16,1 C 11,3 km/h (2 Bft) 97,37 %
21.08.2016 05:34 16,8 C 96 % 1014,8 hPa 0,2 l/m 7,2 km/h (2 Bft) S-SW 205 0 min 0,000 mm 0,0 UV-I 0 W/m 16,2 C 16,4 C 12,9 km/h (3 Bft) 96,23 %
21.08.2016 05:36 16,8 C 96 % 1014,9 hPa 0,0 l/m 6,5 km/h (2 Bft) S-SW 204 0 min 0,000 mm 0,0 UV-I 0 W/m 16,2 C 16,8 C 11,3 km/h (2 Bft) 96,00 %
21.08.2016 05:38 16,8 C 96 % 1014,8 hPa 0,0 l/m 8,0 km/h (2 Bft) SW 229 0 min 0,000 mm 0,0 UV-I 0 W/m 16,2 C 16,0 C 14,5 km/h (3 Bft) 97,87 %
21.08.2016 05:40 16,8 C 96 % 1014,9 hPa 0,2 l/m 6,8 km/h (2 Bft) W-SW 241 0 min 0,000 mm 0,0 UV-I 0 W/m 16,2 C 16,6 C 11,3 km/h (2 Bft) 97,37 %
21.08.2016 05:42 16,8 C 96 % 1014,9 hPa 0,0 l/m 8,7 km/h (2 Bft) W-SW 241 0 min 0,000 mm 0,0 UV-I 0 W/m 16,2 C 15,7 C 12,9 km/h (3 Bft) 95,45 %
21.08.2016 05:44 16,8 C 96 % 1014,9 hPa 0,2 l/m 8,8 km/h (2 Bft) W-SW 241 0 min 0,000 mm 0,0 UV-I 0 W/m 16,2 C 15,6 C 14,5 km/h (3 Bft) 96,23 %
21.08.2016 05:46 16,9 C 96 % 1015,0 hPa 0,2 l/m 4,8 km/h (1 Bft) W-SW 254 0 min 0,000 mm 0,0 UV-I 0 W/m 16,3 C 16,9 C 8,0 km/h (2 Bft) 97,73 %
21.08.2016 05:48 16,9 C 96 % 1015,0 hPa 0,2 l/m 6,4 km/h (2 Bft) W 265 0 min 0,000 mm 0,0 UV-I 0 W/m 16,3 C 16,9 C 9,7 km/h (2 Bft) 97,62 %
21.08.2016 05:50 16,9 C 96 % 1015,1 hPa 0,2 l/m 6,6 km/h (2 Bft) SW 222 0 min 0,000 mm 0,0 UV-I 0 W/m 16,3 C 16,8 C 9,7 km/h (2 Bft) 96,55 %
21.08.2016 05:52 16,9 C 96 % 1015,1 hPa 0,2 l/m 7,9 km/h (2 Bft) W-SW 244 0 min 0,000 mm 0,0 UV-I 0 W/m 16,3 C 16,1 C 12,9 km/h (3 Bft) 97,87 %
21.08.2016 05:54 16,9 C 96 % 1015,1 hPa 0,2 l/m 10,0 km/h (2 Bft) W-SW 248 0 min 0,000 mm 0,0 UV-I 0 W/m 16,3 C 15,2 C 16,1 km/h (3 Bft) 95,74 %
21.08.2016 05:56 16,9 C 96 % 1015,1 hPa 0,2 l/m 10,8 km/h (2 Bft) W-SW 252 0 min 0,000 mm 0,0 UV-I 0 W/m 16,3 C 14,9 C 17,7 km/h (3 Bft) 97,92 %
21.08.2016 05:58 17,0 C 96 % 1015,2 hPa 0,2 l/m 10,5 km/h (2 Bft) W-SW 244 0 min 0,000 mm 0,0 UV-I 0 W/m 16,4 C 15,1 C 14,5 km/h (3 Bft) 97,37 %
21.08.2016 06:00 17,0 C 96 % 1015,3 hPa 0,2 l/m 12,3 km/h (3 Bft) W-SW 250 0 min 0,000 mm 0,0 UV-I 0 W/m 16,4 C 14,5 C 16,1 km/h (3 Bft) 98,00 %
21.08.2016 06:02 17,0 C 96 % 1015,3 hPa 0,2 l/m 9,7 km/h (2 Bft) W 259 0 min 0,000 mm 0,0 UV-I 0 W/m 16,4 C 15,4 C 16,1 km/h (3 Bft) 98,11 %
21.08.2016 06:04 17,0 C 96 % 1015,3 hPa 0,2 l/m 8,5 km/h (2 Bft) W-SW 255 0 min 0,000 mm 0,0 UV-I 0 W/m 16,4 C 16,0 C 14,5 km/h (3 Bft) 100,00 %
21.08.2016 06:06 17,0 C 96 % 1015,4 hPa 0,2 l/m 8,6 km/h (2 Bft) SW 227 0 min 0,000 mm 0,0 UV-I 0 W/m 16,4 C 15,9 C 16,1 km/h (3 Bft) 98,00 %
21.08.2016 06:08 17,0 C 96 % 1015,5 hPa 0,2 l/m 9,7 km/h (2 Bft) W-SW 248 0 min 0,000 mm 0,0 UV-I 0 W/m 16,4 C 15,4 C 12,9 km/h (3 Bft) 100,00 %
21.08.2016 06:10 17,0 C 96 % 1015,5 hPa 0,2 l/m 10,9 km/h (2 Bft) SW 236 0 min 0,000 mm 0,0 UV-I 0 W/m 16,4 C 15,0 C 14,5 km/h (3 Bft) 100,00 %
21.08.2016 06:12 17,0 C 96 % 1015,5 hPa 0,4 l/m 11,0 km/h (2 Bft) W-SW 250 0 min 0,000 mm 0,0 UV-I 0 W/m 16,4 C 14,9 C 16,1 km/h (3 Bft) 100,00 %
21.08.2016 06:14 17,0 C 96 % 1015,6 hPa 0,6 l/m 11,8 km/h (2 Bft) W-SW 253 0 min 0,000 mm 0,0 UV-I 0 W/m 16,4 C 14,6 C 17,7 km/h (3 Bft) 100,00 %
21.08.2016 06:16 17,0 C 96 % 1015,6 hPa 0,6 l/m 10,0 km/h (2 Bft) W-SW 250 0 min 0,000 mm 0,0 UV-I 0 W/m 16,4 C 15,3 C 17,7 km/h (3 Bft) 100,00 %
21.08.2016 06:18 16,9 C 96 % 1015,6 hPa 0,4 l/m 10,8 km/h (2 Bft) W-SW 255 0 min 0,000 mm 0,0 UV-I 0 W/m 16,3 C 14,9 C 16,1 km/h (3 Bft) 100,00 %
21.08.2016 06:20 16,9 C 96 % 1015,6 hPa 0,4 l/m 14,6 km/h (3 Bft) W-SW 255 0 min 0,000 mm 0,0 UV-I 0 W/m 16,3 C 13,6 C 20,9 km/h (4 Bft) 100,00 %
21.08.2016 06:22 16,9 C 97 % 1015,7 hPa 0,2 l/m 13,6 km/h (3 Bft) W-SW 258 0 min 0,000 mm 0,0 UV-I 0 W/m 16,4 C 13,9 C 20,9 km/h (4 Bft) 98,00 %
21.08.2016 06:24 16,9 C 96 % 1015,7 hPa 0,2 l/m 14,0 km/h (3 Bft) W 273 0 min 0,000 mm 0,0 UV-I 0 W/m 16,3 C 13,8 C 19,3 km/h (3 Bft) 100,00 %
21.08.2016 06:26 16,9 C 96 % 1015,8 hPa 0,0 l/m 13,3 km/h (3 Bft) W-SW 249 0 min 0,000 mm 0,0 UV-I 0 W/m 16,3 C 14,0 C 20,9 km/h (4 Bft) 100,00 %
21.08.2016 06:28 16,8 C 96 % 1015,9 hPa 0,2 l/m 18,9 km/h (3 Bft) W-SW 253 0 min 0,000 mm 0,0 UV-I 0 W/m 16,2 C 12,3 C 30,6 km/h (5 Bft) 100,00 %
21.08.2016 06:30 16,8 C 96 % 1015,9 hPa 0,2 l/m 12,8 km/h (3 Bft) W-SW 250 0 min 0,000 mm 0,0 UV-I 0 W/m 16,2 C 14,1 C 17,7 km/h (3 Bft) 96,23 %
21.08.2016 06:32 16,8 C 96 % 1016,0 hPa 0,2 l/m 12,2 km/h (2 Bft) W-SW 245 0 min 0,000 mm 0,0 UV-I 0 W/m 16,2 C 14,3 C 22,5 km/h (4 Bft) 100,00 %
21.08.2016 06:34 16,7 C 96 % 1016,1 hPa 0,0 l/m 14,0 km/h (3 Bft) SW 228 0 min 0,000 mm 0,0 UV-I 0 W/m 16,1 C 13,6 C 19,3 km/h (3 Bft) 100,00 %
21.08.2016 06:36 16,7 C 96 % 1016,0 hPa 0,2 l/m 10,5 km/h (2 Bft) W-SW 249 0 min 0,000 mm 0,0 UV-I 0 W/m 16,1 C 14,8 C 16,1 km/h (3 Bft) 100,00 %
21.08.2016 06:38 16,7 C 96 % 1016,1 hPa 0,0 l/m 10,4 km/h (2 Bft) W-SW 239 0 min 0,000 mm 0,0 UV-I 0 W/m 16,1 C 14,8 C 16,1 km/h (3 Bft) 98,11 %
21.08.2016 06:40 16,6 C 96 % 1016,1 hPa 0,0 l/m 14,3 km/h (3 Bft) W-NW 294 0 min 0,000 mm 0,0 UV-I 3 W/m 16,0 C 13,3 C 22,5 km/h (4 Bft) 100,00 %
21.08.2016 06:42 16,6 C 96 % 1016,2 hPa 0,2 l/m 16,5 km/h (3 Bft) W-SW 248 0 min 0,000 mm 0,0 UV-I 6 W/m 16,0 C 12,7 C 24,1 km/h (4 Bft) 100,00 %
21.08.2016 06:44 16,5 C 96 % 1016,2 hPa 0,2 l/m 14,9 km/h (3 Bft) W-SW 252 0 min 0,000 mm 0,0 UV-I 7 W/m 15,9 C 13,0 C 22,5 km/h (4 Bft) 100,00 %
21.08.2016 06:46 16,4 C 96 % 1016,3 hPa 0,0 l/m 15,4 km/h (3 Bft) W-SW 255 0 min 0,000 mm 0,0 UV-I 7 W/m 15,8 C 12,8 C 24,1 km/h (4 Bft) 100,00 %
21.08.2016 06:48 16,4 C 96 % 1016,3 hPa 0,2 l/m 15,4 km/h (3 Bft) W-SW 258 0 min 0,000 mm 0,0 UV-I 7 W/m 15,8 C 12,8 C 24,1 km/h (4 Bft) 100,00 %
21.08.2016 06:50 16,4 C 96 % 1016,3 hPa 0,4 l/m 12,7 km/h (3 Bft) W-SW 255 0 min 0,000 mm 0,0 UV-I 7 W/m 15,8 C 13,6 C 19,3 km/h (3 Bft) 98,31 %
21.08.2016 06:52 16,3 C 96 % 1016,4 hPa 0,2 l/m 11,4 km/h (2 Bft) W-SW 253 0 min 0,000 mm 0,0 UV-I 6 W/m 15,7 C 14,0 C 17,7 km/h (3 Bft) 97,14 %
21.08.2016 06:54 16,3 C 96 % 1016,5 hPa 0,2 l/m 12,2 km/h (2 Bft) W 263 0 min 0,000 mm 0,0 UV-I 6 W/m 15,7 C 13,7 C 17,7 km/h (3 Bft) 98,31 %
21.08.2016 06:56 16,3 C 96 % 1016,4 hPa 0,2 l/m 13,0 km/h (3 Bft) W-SW 256 0 min 0,000 mm 0,0 UV-I 7 W/m 15,7 C 13,4 C 25,7 km/h (4 Bft) 97,73 %
21.08.2016 06:58 16,3 C 96 % 1016,5 hPa 0,2 l/m 13,5 km/h (3 Bft) W-SW 250 0 min 0,000 mm 0,0 UV-I 7 W/m 15,7 C 13,2 C 20,9 km/h (4 Bft) 100,00 %
21.08.2016 07:00 16,3 C 96 % 1016,6 hPa 0,2 l/m 14,3 km/h (3 Bft) W-NW 286 0 min 0,000 mm 0,0 UV-I 6 W/m 15,7 C 13,0 C 22,5 km/h (4 Bft) 100,00 %
21.08.2016 07:02 16,3 C 96 % 1016,7 hPa 0,4 l/m 11,5 km/h (2 Bft) SW 229 0 min 0,000 mm 0,0 UV-I 4 W/m 15,7 C 14,0 C 20,9 km/h (4 Bft) 97,56 %
21.08.2016 07:04 16,2 C 96 % 1016,7 hPa 0,4 l/m 14,5 km/h (3 Bft) W-SW 241 0 min 0,000 mm 0,0 UV-I 2 W/m 15,6 C 12,8 C 20,9 km/h (4 Bft) 100,00 %
21.08.2016 07:06 16,2 C 95 % 1016,8 hPa 0,0 l/m 24,9 km/h (4 Bft) W 259 0 min 0,000 mm 0,0 UV-I 8 W/m 15,4 C 10,3 C 40,2 km/h (6 Bft) 97,56 %
21.08.2016 07:08 15,9 C 95 % 1016,9 hPa 0,0 l/m 20,5 km/h (4 Bft) W-SW 247 0 min 0,000 mm 0,0 UV-I 11 W/m 15,1 C 10,8 C 29,0 km/h (5 Bft) 100,00 %
21.08.2016 07:10 15,8 C 94 % 1016,9 hPa 0,0 l/m 19,2 km/h (3 Bft) W 259 0 min 0,000 mm 0,0 UV-I 12 W/m 14,8 C 11,0 C 32,2 km/h (5 Bft) 100,00 %
21.08.2016 07:12 15,6 C 94 % 1017,0 hPa 0,2 l/m 22,1 km/h (4 Bft) W-SW 258 0 min 0,000 mm 0,0 UV-I 11 W/m 14,6 C 10,0 C 32,2 km/h (5 Bft) 100,00 %
21.08.2016 07:14 15,5 C 94 % 1017,0 hPa 0,0 l/m 30,0 km/h (5 Bft) W-SW 250 0 min 0,000 mm 0,0 UV-I 11 W/m 14,5 C 8,4 C 41,8 km/h (6 Bft) 100,00 %
21.08.2016 07:16 15,3 C 94 % 1017,1 hPa 0,0 l/m 26,0 km/h (4 Bft) NW 308 0 min 0,000 mm 0,0 UV-I 12 W/m 14,3 C 8,8 C 45,1 km/h (6 Bft) 100,00 %
21.08.2016 07:18 15,1 C 92 % 1017,2 hPa 0,2 l/m 32,5 km/h (5 Bft) W-NW 282 0 min 0,000 mm 0,0 UV-I 15 W/m 13,8 C 7,4 C 53,1 km/h (7 Bft) 100,00 %
21.08.2016 07:20 14,9 C 92 % 1017,3 hPa 0,0 l/m 25,9 km/h (4 Bft) SW 236 0 min 0,000 mm 0,0 UV-I 18 W/m 13,6 C 8,3 C 38,6 km/h (5 Bft) 100,00 %
21.08.2016 07:22 14,8 C 91 % 1017,3 hPa 0,0 l/m 24,1 km/h (4 Bft) W 260 0 min 0,000 mm 0,0 UV-I 18 W/m 13,3 C 8,5 C 38,6 km/h (5 Bft) 94,00 %
21.08.2016 07:24 14,6 C 91 % 1017,5 hPa 0,0 l/m 20,7 km/h (4 Bft) SW 228 0 min 0,000 mm 0,0 UV-I 17 W/m 13,1 C 9,1 C 29,0 km/h (5 Bft) 97,87 %
21.08.2016 07:26 14,4 C 91 % 1017,6 hPa 0,0 l/m 17,3 km/h (3 Bft) SW 229 0 min 0,000 mm 0,0 UV-I 16 W/m 12,9 C 9,7 C 27,4 km/h (4 Bft) 97,37 %
21.08.2016 07:28 14,3 C 91 % 1017,6 hPa 0,0 l/m 20,0 km/h (4 Bft) SW 227 0 min 0,000 mm 0,0 UV-I 18 W/m 12,8 C 8,8 C 33,8 km/h (5 Bft) 96,43 %
21.08.2016 07:30 14,2 C 91 % 1017,6 hPa 0,0 l/m 21,1 km/h (4 Bft) SW 223 0 min 0,000 mm 0,0 UV-I 20 W/m 12,8 C 8,4 C 27,4 km/h (4 Bft) 97,78 %
21.08.2016 07:32 14,2 C 91 % 1017,6 hPa 0,0 l/m 16,5 km/h (3 Bft) W 265 0 min 0,000 mm 0,0 UV-I 25 W/m 12,8 C 9,7 C 27,4 km/h (4 Bft) 96,00 %
21.08.2016 07:34 14,1 C 92 % 1017,7 hPa 0,0 l/m 16,6 km/h (3 Bft) SW 223 0 min 0,000 mm 0,0 UV-I 25 W/m 12,8 C 9,6 C 27,4 km/h (4 Bft) 97,87 %
21.08.2016 07:36 14,1 C 92 % 1017,7 hPa 0,0 l/m 17,0 km/h (3 Bft) W-SW 237 0 min 0,000 mm 0,0 UV-I 26 W/m 12,8 C 9,4 C 27,4 km/h (4 Bft) 94,74 %
21.08.2016 07:38 14,1 C 92 % 1017,7 hPa 0,0 l/m 18,7 km/h (3 Bft) W-SW 243 0 min 0,000 mm 0,0 UV-I 29 W/m 12,8 C 8,9 C 29,0 km/h (5 Bft) 97,87 %
21.08.2016 07:40 14,0 C 92 % 1017,7 hPa 0,0 l/m 15,9 km/h (3 Bft) W 259 0 min 0,000 mm 0,0 UV-I 33 W/m 12,7 C 9,7 C 25,7 km/h (4 Bft) 96,00 %
21.08.2016 07:42 14,0 C 92 % 1017,8 hPa 0,0 l/m 17,1 km/h (3 Bft) SW 233 0 min 0,000 mm 0,0 UV-I 36 W/m 12,7 C 9,3 C 25,7 km/h (4 Bft) 96,00 %
21.08.2016 07:44 14,0 C 92 % 1017,8 hPa 0,0 l/m 18,3 km/h (3 Bft) SW 231 0 min 0,000 mm 0,0 UV-I 38 W/m 12,7 C 8,9 C 27,4 km/h (4 Bft) 97,56 %
21.08.2016 07:46 14,0 C 92 % 1017,8 hPa 0,0 l/m 18,1 km/h (3 Bft) W 265 0 min 0,000 mm 0,0 UV-I 38 W/m 12,7 C 9,0 C 27,4 km/h (4 Bft) 96,00 %
21.08.2016 07:48 14,1 C 92 % 1017,8 hPa 0,0 l/m 14,8 km/h (3 Bft) SW 236 0 min 0,000 mm 0,0 UV-I 36 W/m 12,8 C 10,2 C 20,9 km/h (4 Bft) 96,23 %
21.08.2016 07:50 14,1 C 92 % 1017,9 hPa 0,0 l/m 15,6 km/h (3 Bft) SW 221 0 min 0,000 mm 0,0 UV-I 34 W/m 12,8 C 9,9 C 24,1 km/h (4 Bft) 95,74 %
21.08.2016 07:52 14,1 C 92 % 1017,9 hPa 0,0 l/m 16,1 km/h (3 Bft) W-SW 249 0 min 0,000 mm 0,0 UV-I 37 W/m 12,8 C 9,7 C 25,7 km/h (4 Bft) 100,00 %
21.08.2016 07:54 14,1 C 92 % 1017,9 hPa 0,0 l/m 17,6 km/h (3 Bft) W-SW 254 0 min 0,000 mm 0,0 UV-I 39 W/m 12,8 C 9,3 C 24,1 km/h (4 Bft) 94,64 %
21.08.2016 07:56 14,1 C 92 % 1018,0 hPa 0,0 l/m 14,0 km/h (3 Bft) W-SW 245 0 min 0,000 mm 0,0 UV-I 35 W/m 12,8 C 10,5 C 19,3 km/h (3 Bft) 100,00 %
21.08.2016 07:58 14,1 C 92 % 1018,1 hPa 0,0 l/m 13,1 km/h (3 Bft) W-SW 245 0 min 0,000 mm 0,0 UV-I 32 W/m 12,8 C 10,8 C 17,7 km/h (3 Bft) 100,00 %
21.08.2016 08:00 14,2 C 92 % 1018,1 hPa 0,0 l/m 16,3 km/h (3 Bft) W-SW 245 0 min 0,025 mm 0,0 UV-I 30 W/m 12,9 C 9,8 C 27,4 km/h (4 Bft) 98,11 %
21.08.2016 08:02 14,2 C 92 % 1018,1 hPa 0,0 l/m 15,8 km/h (3 Bft) SW 232 0 min 0,000 mm 0,0 UV-I 32 W/m 12,9 C 10,0 C 24,1 km/h (4 Bft) 100,00 %
21.08.2016 08:04 14,2 C 92 % 1018,1 hPa 0,0 l/m 12,4 km/h (3 Bft) W-SW 246 0 min 0,000 mm 0,0 UV-I 39 W/m 12,9 C 11,2 C 17,7 km/h (3 Bft) 97,87 %
21.08.2016 08:06 14,2 C 92 % 1018,1 hPa 0,0 l/m 15,3 km/h (3 Bft) W 259 0 min 0,000 mm 0,0 UV-I 46 W/m 12,9 C 10,1 C 20,9 km/h (4 Bft) 96,00 %
21.08.2016 08:08 14,2 C 92 % 1018,2 hPa 0,0 l/m 11,6 km/h (2 Bft) W-SW 257 0 min 0,000 mm 0,0 UV-I 54 W/m 12,9 C 11,5 C 19,3 km/h (3 Bft) 100,00 %
21.08.2016 08:10 14,3 C 93 % 1018,2 hPa 0,0 l/m 14,4 km/h (3 Bft) SW 230 0 min 0,000 mm 0,0 UV-I 61 W/m 13,2 C 10,6 C 24,1 km/h (4 Bft) 100,00 %
21.08.2016 08:12 14,3 C 92 % 1018,2 hPa 0,0 l/m 13,8 km/h (3 Bft) SW 229 0 min 0,000 mm 0,0 UV-I 66 W/m 13,0 C 10,8 C 19,3 km/h (3 Bft) 97,22 %
21.08.2016 08:14 14,3 C 92 % 1018,2 hPa 0,0 l/m 16,1 km/h (3 Bft) SW 225 0 min 0,000 mm 0,0 UV-I 66 W/m 13,0 C 10,0 C 27,4 km/h (4 Bft) 100,00 %
21.08.2016 08:16 14,4 C 92 % 1018,2 hPa 0,0 l/m 18,0 km/h (3 Bft) SW 222 0 min 0,000 mm 0,0 UV-I 67 W/m 13,1 C 9,5 C 25,7 km/h (4 Bft) 100,00 %
21.08.2016 08:18 14,4 C 92 % 1018,3 hPa 0,0 l/m 19,7 km/h (3 Bft) W-SW 246 0 min 0,000 mm 0,0 UV-I 69 W/m 13,1 C 9,1 C 32,2 km/h (5 Bft) 98,25 %
21.08.2016 08:20 14,5 C 92 % 1018,2 hPa 0,0 l/m 16,0 km/h (3 Bft) S-SW 212 0 min 0,000 mm 0,0 UV-I 73 W/m 13,2 C 10,3 C 20,9 km/h (4 Bft) 98,00 %
21.08.2016 08:22 14,5 C 91 % 1018,3 hPa 0,0 l/m 17,2 km/h (3 Bft) SW 223 0 min 0,000 mm 0,0 UV-I 80 W/m 13,0 C 9,9 C 27,4 km/h (4 Bft) 100,00 %
21.08.2016 08:24 14,6 C 92 % 1018,2 hPa 0,0 l/m 15,1 km/h (3 Bft) SW 223 0 min 0,000 mm 0,0 UV-I 83 W/m 13,3 C 10,7 C 22,5 km/h (4 Bft) 100,00 %
21.08.2016 08:26 14,6 C 91 % 1018,3 hPa 0,0 l/m 16,9 km/h (3 Bft) W-SW 257 0 min 0,000 mm 0,0 UV-I 83 W/m 13,1 C 10,1 C 25,7 km/h (4 Bft) 100,00 %
21.08.2016 08:28 14,6 C 91 % 1018,2 hPa 0,0 l/m 13,9 km/h (3 Bft) W-SW 255 0 min 0,000 mm 0,0 UV-I 87 W/m 13,1 C 11,1 C 19,3 km/h (3 Bft) 100,00 %
21.08.2016 08:30 14,6 C 91 % 1018,2 hPa 0,0 l/m 15,5 km/h (3 Bft) W 261 0 min 0,000 mm 0,0 UV-I 99 W/m 13,1 C 10,5 C 22,5 km/h (4 Bft) 98,18 %
21.08.2016 08:32 14,6 C 91 % 1018,2 hPa 0,0 l/m 12,8 km/h (3 Bft) SW 234 0 min 0,000 mm 0,0 UV-I 102 W/m 13,1 C 11,5 C 24,1 km/h (4 Bft) 97,92 %
21.08.2016 08:34 14,7 C 92 % 1018,3 hPa 0,0 l/m 13,7 km/h (3 Bft) W-SW 246 0 min 0,000 mm 0,2 UV-I 102 W/m 13,4 C 11,3 C 20,9 km/h (4 Bft) 100,00 %
21.08.2016 08:36 14,7 C 92 % 1018,3 hPa 0,0 l/m 14,2 km/h (3 Bft) W-SW 254 0 min 0,000 mm 0,5 UV-I 105 W/m 13,4 C 11,1 C 25,7 km/h (4 Bft) 95,74 %
21.08.2016 08:38 14,7 C 92 % 1018,2 hPa 0,0 l/m 14,3 km/h (3 Bft) W-SW 249 0 min 0,000 mm 0,5 UV-I 111 W/m 13,4 C 11,1 C 19,3 km/h (3 Bft) 100,00 %
21.08.2016 08:40 14,8 C 92 % 1018,3 hPa 0,0 l/m 15,4 km/h (3 Bft) S-SW 208 0 min 0,000 mm 0,5 UV-I 118 W/m 13,5 C 10,8 C 20,9 km/h (4 Bft) 100,00 %
21.08.2016 08:42 14,8 C 92 % 1018,2 hPa 0,0 l/m 16,3 km/h (3 Bft) SW 217 0 min 0,000 mm 0,6 UV-I 120 W/m 13,5 C 10,5 C 25,7 km/h (4 Bft) 100,00 %
21.08.2016 08:44 14,8 C 92 % 1018,3 hPa 0,0 l/m 14,2 km/h (3 Bft) S-SW 213 0 min 0,000 mm 0,6 UV-I 121 W/m 13,5 C 11,2 C 22,5 km/h (4 Bft) 100,00 %
21.08.2016 08:46 14,9 C 92 % 1018,3 hPa 0,0 l/m 11,8 km/h (2 Bft) SW 215 0 min 0,000 mm 0,6 UV-I 125 W/m 13,6 C 12,2 C 20,9 km/h (4 Bft) 100,00 %
21.08.2016 08:48 14,9 C 92 % 1018,2 hPa 0,0 l/m 15,8 km/h (3 Bft) SW 234 0 min 0,000 mm 0,6 UV-I 124 W/m 13,6 C 10,8 C 22,5 km/h (4 Bft) 100,00 %
21.08.2016 08:50 15,0 C 92 % 1018,2 hPa 0,0 l/m 17,0 km/h (3 Bft) SW 232 0 min 0,000 mm 0,6 UV-I 124 W/m 13,7 C 10,6 C 25,7 km/h (4 Bft) 100,00 %
21.08.2016 08:52 15,1 C 92 % 1018,2 hPa 0,0 l/m 13,1 km/h (3 Bft) SW 222 0 min 0,000 mm 0,6 UV-I 128 W/m 13,8 C 12,0 C 20,9 km/h (4 Bft) 100,00 %
21.08.2016 08:54 15,1 C 92 % 1018,1 hPa 0,0 l/m 12,7 km/h (3 Bft) W-SW 244 0 min 0,000 mm 0,6 UV-I 136 W/m 13,8 C 12,1 C 20,9 km/h (4 Bft) 100,00 %
21.08.2016 08:56 15,2 C 92 % 1018,1 hPa 0,0 l/m 15,8 km/h (3 Bft) W 265 0 min 0,000 mm 0,6 UV-I 137 W/m 13,9 C 11,2 C 24,1 km/h (4 Bft) 100,00 %
21.08.2016 08:58 15,2 C 92 % 1018,1 hPa 0,0 l/m 21,1 km/h (4 Bft) W-SW 245 0 min 0,000 mm 0,6 UV-I 129 W/m 13,9 C 9,7 C 32,2 km/h (5 Bft) 100,00 %
21.08.2016 09:00 15,2 C 92 % 1018,1 hPa 0,0 l/m 17,1 km/h (3 Bft) W-SW 257 0 min 0,077 mm 0,6 UV-I 113 W/m 13,9 C 10,8 C 24,1 km/h (4 Bft) 100,00 %
21.08.2016 09:02 15,3 C 92 % 1018,1 hPa 0,0 l/m 13,9 km/h (3 Bft) SW 234 0 min 0,000 mm 0,5 UV-I 102 W/m 14,0 C 11,9 C 20,9 km/h (4 Bft) 100,00 %
21.08.2016 09:04 15,3 C 91 % 1018,1 hPa 0,0 l/m 17,5 km/h (3 Bft) SW 225 0 min 0,000 mm 0,5 UV-I 101 W/m 13,8 C 10,8 C 25,7 km/h (4 Bft) 100,00 %
21.08.2016 09:06 15,3 C 91 % 1018,1 hPa 0,0 l/m 18,0 km/h (3 Bft) W-SW 242 0 min 0,000 mm 0,6 UV-I 105 W/m 13,8 C 10,7 C 29,0 km/h (5 Bft) 100,00 %
21.08.2016 09:08 15,3 C 91 % 1018,0 hPa 0,0 l/m 15,1 km/h (3 Bft) SW 229 0 min 0,000 mm 0,6 UV-I 109 W/m 13,8 C 11,5 C 25,7 km/h (4 Bft) 100,00 %
21.08.2016 09:10 15,3 C 90 % 1018,0 hPa 0,0 l/m 21,4 km/h (4 Bft) SW 229 0 min 0,000 mm 0,6 UV-I 107 W/m 13,7 C 9,8 C 30,6 km/h (5 Bft) 100,00 %
21.08.2016 09:12 15,3 C 90 % 1018,1 hPa 0,0 l/m 14,9 km/h (3 Bft) SW 223 0 min 0,000 mm 0,6 UV-I 109 W/m 13,7 C 11,6 C 22,5 km/h (4 Bft) 100,00 %
21.08.2016 09:14 15,4 C 90 % 1018,1 hPa 0,0 l/m 18,3 km/h (3 Bft) SW 232 0 min 0,000 mm 0,7 UV-I 117 W/m 13,8 C 10,7 C 30,6 km/h (5 Bft) 98,11 %
21.08.2016 09:16 15,4 C 90 % 1018,2 hPa 0,0 l/m 15,6 km/h (3 Bft) SW 224 0 min 0,000 mm 0,7 UV-I 128 W/m 13,8 C 11,5 C 27,4 km/h (4 Bft) 100,00 %
21.08.2016 09:18 15,4 C 90 % 1018,1 hPa 0,0 l/m 19,8 km/h (3 Bft) S-SW 212 0 min 0,000 mm 0,8 UV-I 141 W/m 13,8 C 10,3 C 30,6 km/h (5 Bft) 100,00 %
21.08.2016 09:20 15,5 C 90 % 1018,1 hPa 0,0 l/m 18,6 km/h (3 Bft) S-SW 200 0 min 0,000 mm 0,8 UV-I 157 W/m 13,9 C 10,8 C 27,4 km/h (4 Bft) 100,00 %
21.08.2016 09:22 15,6 C 89 % 1018,2 hPa 0,0 l/m 17,1 km/h (3 Bft) W-SW 242 0 min 0,000 mm 0,9 UV-I 167 W/m 13,8 C 11,3 C 25,7 km/h (4 Bft) 100,00 %
21.08.2016 09:24 15,7 C 90 % 1018,1 hPa 0,0 l/m 16,3 km/h (3 Bft) S-SW 212 0 min 0,000 mm 0,9 UV-I 173 W/m 14,1 C 11,6 C 29,0 km/h (5 Bft) 96,23 %
21.08.2016 09:26 15,7 C 89 % 1018,1 hPa 0,0 l/m 16,4 km/h (3 Bft) W-SW 246 0 min 0,000 mm 1,0 UV-I 181 W/m 13,9 C 11,6 C 24,1 km/h (4 Bft) 98,21 %
21.08.2016 09:28 15,8 C 89 % 1018,1 hPa 0,0 l/m 13,8 km/h (3 Bft) SW 224 0 min 0,000 mm 1,0 UV-I 192 W/m 14,0 C 12,6 C 20,9 km/h (4 Bft) 97,37 %
21.08.2016 09:30 15,8 C 89 % 1018,1 hPa 0,0 l/m 15,9 km/h (3 Bft) S-SW 210 0 min 0,000 mm 1,1 UV-I 214 W/m 14,0 C 11,9 C 25,7 km/h (4 Bft) 96,23 %
21.08.2016 09:32 15,9 C 89 % 1018,1 hPa 0,0 l/m 14,0 km/h (3 Bft) W-SW 239 0 min 0,000 mm 1,1 UV-I 220 W/m 14,1 C 12,6 C 19,3 km/h (3 Bft) 97,87 %
21.08.2016 09:34 16,0 C 89 % 1018,2 hPa 0,0 l/m 13,0 km/h (3 Bft) SW 225 0 min 0,000 mm 1,2 UV-I 223 W/m 14,2 C 13,1 C 22,5 km/h (4 Bft) 96,00 %
21.08.2016 09:36 16,0 C 88 % 1018,1 hPa 0,0 l/m 19,7 km/h (3 Bft) SW 234 0 min 0,000 mm 1,2 UV-I 214 W/m 14,0 C 11,1 C 30,6 km/h (5 Bft) 100,00 %
21.08.2016 09:38 16,1 C 87 % 1018,0 hPa 0,0 l/m 20,9 km/h (4 Bft) SW 221 0 min 0,000 mm 1,2 UV-I 207 W/m 13,9 C 11,0 C 33,8 km/h (5 Bft) 96,00 %
21.08.2016 09:40 16,1 C 88 % 1018,1 hPa 0,0 l/m 13,9 km/h (3 Bft) W 259 0 min 0,000 mm 1,3 UV-I 206 W/m 14,1 C 12,9 C 20,9 km/h (4 Bft) 98,11 %
21.08.2016 09:42 16,2 C 88 % 1018,2 hPa 0,0 l/m 14,1 km/h (3 Bft) S-SW 213 0 min 0,000 mm 1,3 UV-I 209 W/m 14,2 C 12,9 C 22,5 km/h (4 Bft) 97,87 %
21.08.2016 09:44 16,2 C 87 % 1018,2 hPa 0,0 l/m 12,1 km/h (2 Bft) SW 233 0 min 0,000 mm 1,3 UV-I 215 W/m 14,0 C 13,6 C 17,7 km/h (3 Bft) 97,56 %
21.08.2016 09:46 16,2 C 87 % 1018,2 hPa 0,0 l/m 12,2 km/h (2 Bft) W 269 0 min 0,000 mm 1,4 UV-I 228 W/m 14,0 C 13,6 C 19,3 km/h (3 Bft) 96,00 %
21.08.2016 09:48 16,3 C 88 % 1018,2 hPa 0,0 l/m 14,7 km/h (3 Bft) W-SW 238 0 min 0,000 mm 1,5 UV-I 248 W/m 14,3 C 12,9 C 27,4 km/h (4 Bft) 95,83 %
21.08.2016 09:50 16,3 C 87 % 1018,2 hPa 0,0 l/m 12,7 km/h (3 Bft) W-SW 246 0 min 0,000 mm 1,5 UV-I 267 W/m 14,1 C 13,5 C 20,9 km/h (4 Bft) 97,87 %
21.08.2016 09:52 16,4 C 87 % 1018,2 hPa 0,0 l/m 17,5 km/h (3 Bft) W-SW 252 0 min 0,000 mm 1,6 UV-I 293 W/m 14,2 C 12,2 C 25,7 km/h (4 Bft) 95,74 %
21.08.2016 09:54 16,4 C 86 % 1018,2 hPa 0,0 l/m 19,1 km/h (3 Bft) SW 230 0 min 0,000 mm 1,7 UV-I 289 W/m 14,1 C 11,8 C 29,0 km/h (5 Bft) 100,00 %
21.08.2016 09:56 16,4 C 85 % 1018,2 hPa 0,0 l/m 18,3 km/h (3 Bft) SW 225 0 min 0,000 mm 1,8 UV-I 304 W/m 13,9 C 12,0 C 27,4 km/h (4 Bft) 96,23 %
21.08.2016 09:58 16,6 C 85 % 1018,2 hPa 0,0 l/m 15,1 km/h (3 Bft) SW 231 0 min 0,000 mm 1,9 UV-I 313 W/m 14,1 C 13,1 C 22,5 km/h (4 Bft) 98,11 %
21.08.2016 10:00 16,6 C 85 % 1018,3 hPa 0,0 l/m 17,1 km/h (3 Bft) SW 216 0 min 0,127 mm 1,9 UV-I 320 W/m 14,1 C 12,5 C 24,1 km/h (4 Bft) 98,11 %
21.08.2016 10:02 16,7 C 86 % 1018,3 hPa 0,0 l/m 14,3 km/h (3 Bft) SW 217 2 min 0,000 mm 1,9 UV-I 341 W/m 14,3 C 13,5 C 25,7 km/h (4 Bft) 97,87 %
21.08.2016 10:04 16,8 C 86 % 1018,3 hPa 0,0 l/m 14,1 km/h (3 Bft) W 261 2 min 0,000 mm 2,1 UV-I 374 W/m 14,4 C 13,6 C 22,5 km/h (4 Bft) 94,29 %
21.08.2016 10:06 16,9 C 86 % 1018,3 hPa 0,0 l/m 15,7 km/h (3 Bft) SW 228 2 min 0,000 mm 2,1 UV-I 370 W/m 14,5 C 13,3 C 20,9 km/h (4 Bft) 100,00 %
21.08.2016 10:08 17,0 C 85 % 1018,4 hPa 0,0 l/m 17,1 km/h (3 Bft) W-SW 252 0 min 0,000 mm 2,1 UV-I 329 W/m 14,5 C 13,0 C 25,7 km/h (4 Bft) 100,00 %
21.08.2016 10:10 17,1 C 86 % 1018,4 hPa 0,0 l/m 11,2 km/h (2 Bft) W-SW 251 2 min 0,000 mm 2,3 UV-I 417 W/m 14,7 C 15,0 C 17,7 km/h (3 Bft) 95,45 %
21.08.2016 10:12 17,2 C 85 % 1018,3 hPa 0,0 l/m 15,2 km/h (3 Bft) SW 223 2 min 0,000 mm 2,4 UV-I 483 W/m 14,7 C 13,8 C 20,9 km/h (4 Bft) 100,00 %
21.08.2016 10:14 17,3 C 85 % 1018,4 hPa 0,0 l/m 11,0 km/h (2 Bft) W-SW 254 2 min 0,000 mm 2,4 UV-I 427 W/m 14,8 C 15,3 C 17,7 km/h (3 Bft) 100,00 %
21.08.2016 10:16 17,3 C 84 % 1018,4 hPa 0,0 l/m 17,9 km/h (3 Bft) W-SW 243 2 min 0,000 mm 2,2 UV-I 388 W/m 14,6 C 13,2 C 25,7 km/h (4 Bft) 97,87 %
21.08.2016 10:18 17,2 C 85 % 1018,4 hPa 0,0 l/m 10,0 km/h (2 Bft) SW 236 2 min 0,000 mm 2,4 UV-I 435 W/m 14,7 C 15,5 C 17,7 km/h (3 Bft) 100,00 %
21.08.2016 10:20 17,3 C 85 % 1018,5 hPa 0,0 l/m 11,8 km/h (2 Bft) W-SW 244 2 min 0,000 mm 2,3 UV-I 438 W/m 14,8 C 15,0 C 17,7 km/h (3 Bft) 100,00 %
21.08.2016 10:22 17,4 C 85 % 1018,5 hPa 0,0 l/m 12,4 km/h (3 Bft) SW 227 2 min 0,000 mm 2,1 UV-I 353 W/m 14,8 C 14,9 C 17,7 km/h (3 Bft) 100,00 %
21.08.2016 10:24 17,3 C 83 % 1018,5 hPa 0,0 l/m 12,0 km/h (2 Bft) W-SW 257 2 min 0,000 mm 2,0 UV-I 359 W/m 14,4 C 14,9 C 19,3 km/h (3 Bft) 100,00 %
21.08.2016 10:26 17,3 C 83 % 1018,5 hPa 0,0 l/m 15,7 km/h (3 Bft) W-SW 248 0 min 0,000 mm 1,7 UV-I 291 W/m 14,4 C 13,8 C 22,5 km/h (4 Bft) 100,00 %
21.08.2016 10:28 17,3 C 84 % 1018,5 hPa 0,0 l/m 9,4 km/h (2 Bft) S-SW 204 0 min 0,000 mm 1,7 UV-I 285 W/m 14,6 C 15,9 C 17,7 km/h (3 Bft) 100,00 %
21.08.2016 10:30 17,2 C 84 % 1018,5 hPa 0,0 l/m 9,8 km/h (2 Bft) W-SW 257 0 min 0,000 mm 1,6 UV-I 261 W/m 14,5 C 15,6 C 12,9 km/h (3 Bft) 97,92 %
21.08.2016 10:32 17,2 C 83 % 1018,6 hPa 0,0 l/m 10,6 km/h (2 Bft) SW 223 0 min 0,000 mm 1,5 UV-I 247 W/m 14,3 C 15,3 C 17,7 km/h (3 Bft) 100,00 %
21.08.2016 10:34 17,2 C 84 % 1018,6 hPa 0,0 l/m 9,3 km/h (2 Bft) W-SW 244 0 min 0,000 mm 1,4 UV-I 232 W/m 14,5 C 15,8 C 16,1 km/h (3 Bft) 100,00 %
21.08.2016 10:36 17,2 C 84 % 1018,6 hPa 0,0 l/m 9,7 km/h (2 Bft) W-SW 247 0 min 0,000 mm 1,2 UV-I 200 W/m 14,5 C 15,7 C 14,5 km/h (3 Bft) 100,00 %
21.08.2016 10:38 17,2 C 84 % 1018,6 hPa 0,0 l/m 10,7 km/h (2 Bft) W-SW 242 0 min 0,000 mm 1,3 UV-I 198 W/m 14,5 C 15,3 C 17,7 km/h (3 Bft) 98,11 %
21.08.2016 10:40 17,1 C 82 % 1018,6 hPa 0,0 l/m 14,9 km/h (3 Bft) W-SW 250 0 min 0,000 mm 1,3 UV-I 201 W/m 14,0 C 13,8 C 22,5 km/h (4 Bft) 100,00 %
21.08.2016 10:42 17,1 C 81 % 1018,7 hPa 0,0 l/m 9,0 km/h (2 Bft) W-SW 257 0 min 0,000 mm 1,3 UV-I 195 W/m 13,8 C 15,9 C 16,1 km/h (3 Bft) 100,00 %
21.08.2016 10:44 17,1 C 83 % 1018,7 hPa 0,0 l/m 6,7 km/h (2 Bft) SW 236 0 min 0,000 mm 1,3 UV-I 198 W/m 14,2 C 17,0 C 12,9 km/h (3 Bft) 100,00 %
21.08.2016 10:46 17,1 C 83 % 1018,8 hPa 0,0 l/m 4,8 km/h (1 Bft) W-SW 243 0 min 0,000 mm 1,3 UV-I 198 W/m 14,2 C 17,1 C 9,7 km/h (2 Bft) 100,00 %
21.08.2016 10:48 17,1 C 82 % 1018,7 hPa 0,0 l/m 12,3 km/h (3 Bft) SW 232 0 min 0,000 mm 1,5 UV-I 215 W/m 14,0 C 14,6 C 20,9 km/h (4 Bft) 97,87 %
21.08.2016 10:50 17,1 C 81 % 1018,8 hPa 0,0 l/m 12,6 km/h (3 Bft) W-SW 248 0 min 0,000 mm 1,5 UV-I 212 W/m 13,8 C 14,5 C 19,3 km/h (3 Bft) 100,00 %
21.08.2016 10:52 17,1 C 82 % 1018,8 hPa 0,0 l/m 10,7 km/h (2 Bft) W-SW 255 0 min 0,000 mm 1,4 UV-I 201 W/m 14,0 C 15,2 C 19,3 km/h (3 Bft) 100,00 %
21.08.2016 10:54 17,1 C 80 % 1018,8 hPa 0,0 l/m 13,0 km/h (3 Bft) W-SW 247 0 min 0,000 mm 1,3 UV-I 196 W/m 13,6 C 14,4 C 20,9 km/h (4 Bft) 97,56 %
21.08.2016 10:56 17,1 C 81 % 1018,8 hPa 0,0 l/m 8,3 km/h (2 Bft) W 273 0 min 0,000 mm 1,4 UV-I 204 W/m 13,8 C 16,2 C 14,5 km/h (3 Bft) 100,00 %
21.08.2016 10:58 17,1 C 82 % 1018,8 hPa 0,0 l/m 7,9 km/h (2 Bft) SW 236 0 min 0,000 mm 1,5 UV-I 210 W/m 14,0 C 16,4 C 12,9 km/h (3 Bft) 100,00 %
21.08.2016 11:00 17,1 C 81 % 1018,8 hPa 0,0 l/m 9,7 km/h (2 Bft) SW 234 0 min 0,177 mm 1,6 UV-I 224 W/m 13,8 C 15,6 C 14,5 km/h (3 Bft) 97,87 %
21.08.2016 11:02 17,1 C 80 % 1018,8 hPa 0,0 l/m 8,4 km/h (2 Bft) W-SW 254 0 min 0,000 mm 1,6 UV-I 228 W/m 13,6 C 16,1 C 14,5 km/h (3 Bft) 100,00 %
21.08.2016 11:04 17,1 C 81 % 1018,8 hPa 0,0 l/m 7,6 km/h (2 Bft) W 267 0 min 0,000 mm 1,7 UV-I 236 W/m 13,8 C 16,5 C 12,9 km/h (3 Bft) 100,00 %
21.08.2016 11:06 17,2 C 83 % 1018,9 hPa 0,0 l/m 5,0 km/h (1 Bft) W-SW 244 0 min 0,000 mm 1,8 UV-I 241 W/m 14,3 C 17,2 C 6,4 km/h (2 Bft) 100,00 %
21.08.2016 11:08 17,3 C 81 % 1018,8 hPa 0,0 l/m 4,8 km/h (1 Bft) W 265 0 min 0,000 mm 1,8 UV-I 242 W/m 14,0 C 17,3 C 11,3 km/h (2 Bft) 100,00 %
21.08.2016 11:10 17,3 C 80 % 1018,8 hPa 0,0 l/m 7,5 km/h (2 Bft) W-SW 254 0 min 0,000 mm 1,8 UV-I 254 W/m 13,8 C 16,8 C 16,1 km/h (3 Bft) 100,00 %
21.08.2016 11:12 17,4 C 80 % 1018,8 hPa 0,0 l/m 6,7 km/h (2 Bft) SW 236 0 min 0,000 mm 1,8 UV-I 255 W/m 13,9 C 17,3 C 12,9 km/h (3 Bft) 100,00 %
21.08.2016 11:14 17,4 C 79 % 1018,8 hPa 0,0 l/m 9,7 km/h (2 Bft) W 267 0 min 0,000 mm 1,8 UV-I 248 W/m 13,7 C 15,9 C 16,1 km/h (3 Bft) 100,00 %
21.08.2016 11:16 17,4 C 80 % 1018,7 hPa 0,0 l/m 11,2 km/h (2 Bft) SW 221 0 min 0,000 mm 1,8 UV-I 247 W/m 13,9 C 15,3 C 19,3 km/h (3 Bft) 100,00 %
21.08.2016 11:18 17,4 C 81 % 1018,8 hPa 0,0 l/m 5,6 km/h (1 Bft) SW 225 0 min 0,000 mm 1,8 UV-I 250 W/m 14,1 C 17,4 C 11,3 km/h (2 Bft) 100,00 %
21.08.2016 11:20 17,4 C 79 % 1018,8 hPa 0,0 l/m 10,0 km/h (2 Bft) W-SW 244 0 min 0,000 mm 1,8 UV-I 251 W/m 13,7 C 15,8 C 14,5 km/h (3 Bft) 100,00 %
21.08.2016 11:22 17,4 C 78 % 1018,8 hPa 0,0 l/m 8,2 km/h (2 Bft) W-SW 252 0 min 0,000 mm 1,8 UV-I 247 W/m 13,5 C 16,5 C 12,9 km/h (3 Bft) 97,56 %
21.08.2016 11:24 17,4 C 78 % 1018,8 hPa 0,0 l/m 7,7 km/h (2 Bft) W-NW 285 0 min 0,000 mm 1,7 UV-I 240 W/m 13,5 C 16,8 C 17,7 km/h (3 Bft) 98,11 %
21.08.2016 11:26 17,4 C 78 % 1018,8 hPa 0,0 l/m 5,8 km/h (2 Bft) NW 317 0 min 0,000 mm 1,6 UV-I 214 W/m 13,5 C 17,4 C 12,9 km/h (3 Bft) 98,00 %
21.08.2016 11:28 17,3 C 78 % 1018,7 hPa 0,0 l/m 6,5 km/h (2 Bft) W 272 0 min 0,000 mm 1,5 UV-I 194 W/m 13,4 C 17,3 C 12,9 km/h (3 Bft) 95,74 %
21.08.2016 11:30 17,3 C 79 % 1018,8 hPa 0,0 l/m 6,3 km/h (2 Bft) SW 236 0 min 0,000 mm 1,3 UV-I 180 W/m 13,6 C 17,3 C 12,9 km/h (3 Bft) 97,37 %
21.08.2016 11:32 17,3 C 79 % 1018,8 hPa 0,0 l/m 4,1 km/h (1 Bft) W-NW 291 0 min 0,000 mm 1,3 UV-I 178 W/m 13,6 C 17,3 C 12,9 km/h (3 Bft) 95,45 %
21.08.2016 11:34 17,3 C 80 % 1018,8 hPa 0,0 l/m 5,3 km/h (1 Bft) W 276 0 min 0,000 mm 1,4 UV-I 196 W/m 13,8 C 17,3 C 11,3 km/h (2 Bft) 98,21 %
21.08.2016 11:36 17,2 C 80 % 1018,8 hPa 0,0 l/m 5,2 km/h (1 Bft) W-SW 252 0 min 0,000 mm 1,7 UV-I 235 W/m 13,7 C 17,2 C 12,9 km/h (3 Bft) 97,37 %
21.08.2016 11:38 17,3 C 80 % 1018,9 hPa 0,0 l/m 8,0 km/h (2 Bft) SW 228 0 min 0,000 mm 1,8 UV-I 255 W/m 13,8 C 16,5 C 14,5 km/h (3 Bft) 94,64 %
21.08.2016 11:40 17,3 C 81 % 1018,9 hPa 0,0 l/m 5,5 km/h (1 Bft) SW 226 0 min 0,000 mm 1,5 UV-I 213 W/m 14,0 C 17,3 C 9,7 km/h (2 Bft) 97,44 %
21.08.2016 11:42 17,2 C 81 % 1018,9 hPa 0,0 l/m 6,1 km/h (2 Bft) W 279 0 min 0,000 mm 1,3 UV-I 180 W/m 13,9 C 17,2 C 9,7 km/h (2 Bft) 97,87 %
21.08.2016 11:44 17,2 C 82 % 1018,9 hPa 0,0 l/m 5,7 km/h (1 Bft) W 265 0 min 0,000 mm 1,3 UV-I 178 W/m 14,1 C 17,2 C 11,3 km/h (2 Bft) 98,00 %
21.08.2016 11:46 17,2 C 81 % 1018,8 hPa 0,0 l/m 5,0 km/h (1 Bft) W-SW 240 0 min 0,000 mm 1,4 UV-I 181 W/m 13,9 C 17,2 C 12,9 km/h (3 Bft) 97,87 %
21.08.2016 11:48 17,2 C 82 % 1018,9 hPa 0,0 l/m 6,2 km/h (2 Bft) W 263 0 min 0,000 mm 1,2 UV-I 158 W/m 14,1 C 17,2 C 12,9 km/h (3 Bft) 98,00 %
21.08.2016 11:50 17,2 C 82 % 1018,9 hPa 0,0 l/m 7,0 km/h (2 Bft) W-SW 248 0 min 0,000 mm 1,1 UV-I 154 W/m 14,1 C 16,9 C 11,3 km/h (2 Bft) 98,00 %
21.08.2016 11:52 17,3 C 82 % 1018,9 hPa 0,0 l/m 4,9 km/h (1 Bft) W-SW 244 0 min 0,000 mm 1,3 UV-I 173 W/m 14,2 C 17,3 C 9,7 km/h (2 Bft) 97,37 %
21.08.2016 11:54 17,3 C 83 % 1018,9 hPa 0,0 l/m 4,8 km/h (1 Bft) W-SW 248 0 min 0,000 mm 1,4 UV-I 198 W/m 14,4 C 17,3 C 8,0 km/h (2 Bft) 96,43 %
21.08.2016 11:56 17,3 C 84 % 1018,9 hPa 0,0 l/m 2,5 km/h (1 Bft) W-SW 245 0 min 0,000 mm 1,6 UV-I 213 W/m 14,6 C 17,3 C 4,8 km/h (1 Bft) 97,87 %
21.08.2016 11:58 17,3 C 83 % 1018,9 hPa 0,0 l/m 8,6 km/h (2 Bft) W-SW 251 0 min 0,000 mm 1,7 UV-I 232 W/m 14,4 C 16,2 C 12,9 km/h (3 Bft) 100,00 %
21.08.2016 12:00 17,3 C 83 % 1018,9 hPa 0,0 l/m 9,3 km/h (2 Bft) W-SW 249 0 min 0,000 mm 1,7 UV-I 225 W/m 14,4 C 15,9 C 17,7 km/h (3 Bft) 100,00 %
21.08.2016 12:02 17,4 C 83 % 1018,9 hPa 0,0 l/m 7,5 km/h (2 Bft) S-SW 207 0 min 0,127 mm 1,5 UV-I 213 W/m 14,5 C 16,9 C 16,1 km/h (3 Bft) 100,00 %
21.08.2016 12:04 17,4 C 82 % 1018,9 hPa 0,0 l/m 10,2 km/h (2 Bft) W-SW 238 0 min 0,000 mm 1,7 UV-I 228 W/m 14,3 C 15,7 C 16,1 km/h (3 Bft) 98,00 %
21.08.2016 12:06 17,4 C 82 % 1018,9 hPa 0,0 l/m 9,3 km/h (2 Bft) SW 235 0 min 0,000 mm 2,0 UV-I 269 W/m 14,3 C 16,1 C 16,1 km/h (3 Bft) 97,73 %
21.08.2016 12:08 17,5 C 82 % 1018,9 hPa 0,0 l/m 5,3 km/h (1 Bft) W-SW 250 0 min 0,000 mm 2,2 UV-I 291 W/m 14,4 C 17,5 C 8,0 km/h (2 Bft) 100,00 %
21.08.2016 12:10 17,7 C 84 % 1018,9 hPa 0,0 l/m 5,4 km/h (1 Bft) SW 235 0 min 0,000 mm 2,1 UV-I 282 W/m 15,0 C 17,7 C 9,7 km/h (2 Bft) 100,00 %
21.08.2016 12:12 17,7 C 81 % 1018,8 hPa 0,0 l/m 5,9 km/h (2 Bft) W-SW 253 0 min 0,000 mm 1,9 UV-I 260 W/m 14,4 C 17,7 C 11,3 km/h (2 Bft) 100,00 %
21.08.2016 12:14 17,8 C 82 % 1018,8 hPa 0,0 l/m 5,8 km/h (2 Bft) S-SW 213 0 min 0,000 mm 2,1 UV-I 272 W/m 14,7 C 17,8 C 9,7 km/h (2 Bft) 100,00 %
21.08.2016 12:16 17,8 C 82 % 1018,8 hPa 0,0 l/m 5,1 km/h (1 Bft) W-SW 244 0 min 0,000 mm 2,3 UV-I 304 W/m 14,7 C 17,8 C 11,3 km/h (2 Bft) 100,00 %
21.08.2016 12:18 17,8 C 81 % 1018,9 hPa 0,0 l/m 8,6 km/h (2 Bft) S-SW 212 0 min 0,000 mm 2,3 UV-I 294 W/m 14,5 C 16,8 C 14,5 km/h (3 Bft) 100,00 %
21.08.2016 12:20 17,8 C 79 % 1018,8 hPa 0,0 l/m 7,2 km/h (2 Bft) SW 230 0 min 0,000 mm 2,2 UV-I 278 W/m 14,1 C 17,4 C 11,3 km/h (2 Bft) 100,00 %
21.08.2016 12:22 17,9 C 80 % 1018,8 hPa 0,0 l/m 5,1 km/h (1 Bft) SW 216 0 min 0,000 mm 2,1 UV-I 264 W/m 14,4 C 17,9 C 9,7 km/h (2 Bft) 100,00 %
21.08.2016 12:24 17,8 C 79 % 1018,8 hPa 0,0 l/m 5,7 km/h (1 Bft) S-SW 212 0 min 0,000 mm 2,0 UV-I 258 W/m 14,1 C 17,8 C 12,9 km/h (3 Bft) 97,96 %
21.08.2016 12:26 17,7 C 80 % 1018,8 hPa 0,0 l/m 7,8 km/h (2 Bft) W-SW 250 0 min 0,000 mm 2,0 UV-I 260 W/m 14,2 C 17,0 C 12,9 km/h (3 Bft) 97,92 %
21.08.2016 12:28 17,7 C 79 % 1018,8 hPa 0,0 l/m 5,3 km/h (1 Bft) W-SW 252 0 min 0,000 mm 2,0 UV-I 258 W/m 14,0 C 17,7 C 8,0 km/h (2 Bft) 100,00 %
21.08.2016 12:30 17,8 C 80 % 1018,8 hPa 0,0 l/m 1,3 km/h (1 Bft) W-SW 254 0 min 0,000 mm 2,0 UV-I 259 W/m 14,3 C 17,8 C 3,2 km/h (1 Bft) 100,00 %
21.08.2016 12:32 17,8 C 79 % 1018,7 hPa 0,0 l/m 1,4 km/h (1 Bft) S-SW 194 0 min 0,000 mm 2,0 UV-I 264 W/m 14,1 C 17,8 C 4,8 km/h (1 Bft) 100,00 %
21.08.2016 12:34 17,9 C 81 % 1018,8 hPa 0,0 l/m 5,8 km/h (2 Bft) W-SW 256 0 min 0,000 mm 2,0 UV-I 263 W/m 14,6 C 17,9 C 11,3 km/h (2 Bft) 100,00 %
21.08.2016 12:36 17,9 C 80 % 1018,8 hPa 0,0 l/m 7,4 km/h (2 Bft) SW 225 0 min 0,000 mm 2,1 UV-I 272 W/m 14,4 C 17,4 C 12,9 km/h (3 Bft) 100,00 %
21.08.2016 12:38 17,9 C 79 % 1018,8 hPa 0,0 l/m 6,2 km/h (2 Bft) W 262 0 min 0,000 mm 2,2 UV-I 279 W/m 14,2 C 17,9 C 11,3 km/h (2 Bft) 97,37 %
21.08.2016 12:40 17,9 C 78 % 1018,8 hPa 0,0 l/m 4,6 km/h (1 Bft) W-SW 250 0 min 0,000 mm 2,3 UV-I 286 W/m 14,0 C 17,9 C 6,4 km/h (2 Bft) 100,00 %
21.08.2016 12:42 17,9 C 79 % 1018,9 hPa 0,0 l/m 6,2 km/h (2 Bft) S-SW 210 0 min 0,000 mm 2,2 UV-I 282 W/m 14,2 C 17,9 C 9,7 km/h (2 Bft) 100,00 %
21.08.2016 12:44 18,1 C 79 % 1018,8 hPa 0,0 l/m 7,6 km/h (2 Bft) S 189 0 min 0,000 mm 2,2 UV-I 279 W/m 14,4 C 17,5 C 11,3 km/h (2 Bft) 100,00 %
21.08.2016 12:46 18,1 C 77 % 1018,9 hPa 0,0 l/m 10,2 km/h (2 Bft) S-SW 205 0 min 0,000 mm 2,2 UV-I 274 W/m 14,0 C 16,5 C 16,1 km/h (3 Bft) 100,00 %
21.08.2016 12:48 18,1 C 80 % 1018,9 hPa 0,0 l/m 9,8 km/h (2 Bft) W-SW 256 0 min 0,000 mm 2,2 UV-I 277 W/m 14,6 C 16,6 C 16,1 km/h (3 Bft) 100,00 %
21.08.2016 12:50 18,0 C 77 % 1018,8 hPa 0,0 l/m 8,1 km/h (2 Bft) W-SW 242 0 min 0,000 mm 2,3 UV-I 300 W/m 13,9 C 17,2 C 12,9 km/h (3 Bft) 100,00 %
21.08.2016 12:52 18,1 C 80 % 1018,8 hPa 0,0 l/m 6,2 km/h (2 Bft) SW 235 0 min 0,000 mm 2,6 UV-I 330 W/m 14,6 C 18,1 C 9,7 km/h (2 Bft) 100,00 %
21.08.2016 12:54 18,1 C 78 % 1018,8 hPa 0,0 l/m 10,2 km/h (2 Bft) W-SW 247 0 min 0,000 mm 2,5 UV-I 324 W/m 14,2 C 16,5 C 14,5 km/h (3 Bft) 100,00 %
21.08.2016 12:56 18,1 C 77 % 1018,8 hPa 0,0 l/m 6,8 km/h (2 Bft) W-SW 254 0 min 0,000 mm 2,5 UV-I 310 W/m 14,0 C 17,9 C 9,7 km/h (2 Bft) 98,00 %
21.08.2016 12:58 18,2 C 78 % 1018,8 hPa 0,0 l/m 6,2 km/h (2 Bft) SW 234 0 min 0,000 mm 2,5 UV-I 309 W/m 14,3 C 18,2 C 11,3 km/h (2 Bft) 100,00 %
21.08.2016 13:00 18,2 C 79 % 1018,8 hPa 0,0 l/m 7,4 km/h (2 Bft) SW 216 0 min 0,178 mm 2,6 UV-I 318 W/m 14,5 C 17,7 C 12,9 km/h (3 Bft) 100,00 %
21.08.2016 13:02 18,2 C 78 % 1018,8 hPa 0,0 l/m 10,3 km/h (2 Bft) W 267 0 min 0,000 mm 2,7 UV-I 337 W/m 14,3 C 16,5 C 17,7 km/h (3 Bft) 98,00 %
21.08.2016 13:04 18,2 C 78 % 1018,8 hPa 0,0 l/m 9,7 km/h (2 Bft) W-SW 237 0 min 0,000 mm 2,8 UV-I 340 W/m 14,3 C 16,8 C 16,1 km/h (3 Bft) 100,00 %
21.08.2016 13:06 18,3 C 78 % 1018,8 hPa 0,0 l/m 10,2 km/h (2 Bft) S-SW 205 0 min 0,000 mm 2,8 UV-I 347 W/m 14,4 C 16,7 C 16,1 km/h (3 Bft) 100,00 %
21.08.2016 13:08 18,3 C 76 % 1018,8 hPa 0,0 l/m 10,2 km/h (2 Bft) SW 223 0 min 0,000 mm 3,0 UV-I 378 W/m 14,0 C 16,7 C 14,5 km/h (3 Bft) 100,00 %
21.08.2016 13:10 18,3 C 77 % 1018,8 hPa 0,0 l/m 10,1 km/h (2 Bft) S-SW 203 0 min 0,000 mm 2,9 UV-I 370 W/m 14,2 C 16,7 C 16,1 km/h (3 Bft) 100,00 %
21.08.2016 13:12 18,3 C 76 % 1018,8 hPa 0,0 l/m 8,3 km/h (2 Bft) W-SW 252 0 min 0,000 mm 2,7 UV-I 333 W/m 14,0 C 17,4 C 12,9 km/h (3 Bft) 100,00 %
21.08.2016 13:14 18,2 C 76 % 1018,8 hPa 0,0 l/m 9,7 km/h (2 Bft) S-SW 209 0 min 0,000 mm 2,6 UV-I 333 W/m 13,9 C 16,8 C 14,5 km/h (3 Bft) 100,00 %
21.08.2016 13:16 18,2 C 77 % 1018,7 hPa 0,0 l/m 4,7 km/h (1 Bft) SW 222 0 min 0,000 mm 2,7 UV-I 348 W/m 14,1 C 18,2 C 8,0 km/h (2 Bft) 97,87 %
21.08.2016 13:18 18,3 C 78 % 1018,8 hPa 0,0 l/m 8,0 km/h (2 Bft) W-SW 248 0 min 0,000 mm 2,7 UV-I 354 W/m 14,4 C 17,6 C 11,3 km/h (2 Bft) 97,56 %
21.08.2016 13:20 18,3 C 78 % 1018,7 hPa 0,0 l/m 8,3 km/h (2 Bft) W-SW 247 0 min 0,000 mm 2,8 UV-I 391 W/m 14,4 C 17,4 C 14,5 km/h (3 Bft) 96,23 %
21.08.2016 13:22 18,4 C 77 % 1018,8 hPa 0,0 l/m 9,2 km/h (2 Bft) SW 227 0 min 0,000 mm 3,0 UV-I 417 W/m 14,3 C 17,2 C 14,5 km/h (3 Bft) 97,56 %
21.08.2016 13:24 18,5 C 76 % 1018,8 hPa 0,0 l/m 11,4 km/h (2 Bft) W-SW 257 0 min 0,000 mm 3,0 UV-I 398 W/m 14,2 C 16,5 C 16,1 km/h (3 Bft) 94,34 %
21.08.2016 13:26 18,6 C 75 % 1018,7 hPa 0,0 l/m 8,3 km/h (2 Bft) SW 230 0 min 0,000 mm 3,2 UV-I 434 W/m 14,1 C 17,8 C 14,5 km/h (3 Bft) 97,37 %
21.08.2016 13:28 18,6 C 76 % 1018,8 hPa 0,0 l/m 9,8 km/h (2 Bft) W 268 2 min 0,000 mm 3,5 UV-I 478 W/m 14,3 C 17,2 C 17,7 km/h (3 Bft) 97,87 %
21.08.2016 13:30 18,7 C 75 % 1018,8 hPa 0,0 l/m 12,2 km/h (2 Bft) W-SW 254 2 min 0,000 mm 3,4 UV-I 460 W/m 14,2 C 16,5 C 17,7 km/h (3 Bft) 97,56 %
21.08.2016 13:32 18,8 C 74 % 1018,8 hPa 0,0 l/m 8,9 km/h (2 Bft) SW 219 0 min 0,000 mm 3,3 UV-I 421 W/m 14,1 C 17,7 C 12,9 km/h (3 Bft) 98,11 %
21.08.2016 13:34 18,8 C 76 % 1018,7 hPa 0,0 l/m 7,1 km/h (2 Bft) SW 223 2 min 0,000 mm 3,4 UV-I 447 W/m 14,5 C 18,5 C 12,9 km/h (3 Bft) 96,23 %
21.08.2016 13:36 18,9 C 76 % 1018,8 hPa 0,0 l/m 9,4 km/h (2 Bft) S-SW 209 2 min 0,000 mm 3,7 UV-I 488 W/m 14,6 C 17,6 C 16,1 km/h (3 Bft) 94,44 %
21.08.2016 13:38 18,9 C 74 % 1018,7 hPa 0,0 l/m 8,3 km/h (2 Bft) W-SW 245 2 min 0,000 mm 3,9 UV-I 524 W/m 14,2 C 18,1 C 12,9 km/h (3 Bft) 98,08 %
21.08.2016 13:40 18,9 C 75 % 1018,8 hPa 0,0 l/m 8,5 km/h (2 Bft) W 268 2 min 0,000 mm 3,7 UV-I 499 W/m 14,4 C 18,0 C 12,9 km/h (3 Bft) 95,83 %
21.08.2016 13:42 18,9 C 74 % 1018,7 hPa 0,0 l/m 6,8 km/h (2 Bft) SW 229 2 min 0,000 mm 3,4 UV-I 448 W/m 14,2 C 18,7 C 12,9 km/h (3 Bft) 95,74 %
21.08.2016 13:44 19,0 C 74 % 1018,7 hPa 0,0 l/m 6,0 km/h (2 Bft) W-SW 257 2 min 0,000 mm 3,4 UV-I 463 W/m 14,3 C 19,0 C 12,9 km/h (3 Bft) 100,00 %
21.08.2016 13:46 19,1 C 74 % 1018,7 hPa 0,0 l/m 10,4 km/h (2 Bft) W 262 2 min 0,000 mm 3,4 UV-I 462 W/m 14,4 C 17,5 C 16,1 km/h (3 Bft) 95,59 %
21.08.2016 13:48 19,1 C 74 % 1018,7 hPa 0,0 l/m 12,3 km/h (3 Bft) W-SW 256 2 min 0,000 mm 3,4 UV-I 465 W/m 14,4 C 16,9 C 19,3 km/h (3 Bft) 97,56 %
21.08.2016 13:50 19,1 C 74 % 1018,7 hPa 0,0 l/m 12,0 km/h (2 Bft) SW 232 2 min 0,000 mm 3,3 UV-I 452 W/m 14,4 C 17,0 C 17,7 km/h (3 Bft) 98,11 %
21.08.2016 13:52 19,1 C 73 % 1018,7 hPa 0,0 l/m 10,1 km/h (2 Bft) SW 236 0 min 0,000 mm 3,0 UV-I 397 W/m 14,1 C 17,6 C 16,1 km/h (3 Bft) 100,00 %
21.08.2016 13:54 18,9 C 75 % 1018,7 hPa 0,0 l/m 4,3 km/h (1 Bft) W 259 0 min 0,000 mm 2,8 UV-I 366 W/m 14,4 C 18,9 C 9,7 km/h (2 Bft) 95,74 %
21.08.2016 13:56 18,9 C 74 % 1018,6 hPa 0,0 l/m 9,2 km/h (2 Bft) W-SW 243 0 min 0,000 mm 2,7 UV-I 361 W/m 14,2 C 17,7 C 12,9 km/h (3 Bft) 100,00 %
21.08.2016 13:58 19,0 C 74 % 1018,6 hPa 0,0 l/m 8,2 km/h (2 Bft) W-SW 253 0 min 0,000 mm 2,6 UV-I 351 W/m 14,3 C 18,2 C 12,9 km/h (3 Bft) 100,00 %
21.08.2016 14:00 19,0 C 74 % 1018,6 hPa 0,0 l/m 5,1 km/h (1 Bft) W 276 0 min 0,000 mm 2,6 UV-I 344 W/m 14,3 C 19,0 C 12,9 km/h (3 Bft) 98,00 %
21.08.2016 14:02 19,0 C 73 % 1018,6 hPa 0,0 l/m 9,7 km/h (2 Bft) SW 234 0 min 0,254 mm 2,6 UV-I 344 W/m 14,0 C 17,6 C 14,5 km/h (3 Bft) 97,56 %
21.08.2016 14:04 18,9 C 74 % 1018,6 hPa 0,0 l/m 6,2 km/h (2 Bft) S-SW 201 0 min 0,000 mm 2,6 UV-I 355 W/m 14,2 C 18,9 C 14,5 km/h (3 Bft) 95,12 %
21.08.2016 14:06 19,0 C 75 % 1018,6 hPa 0,0 l/m 6,5 km/h (2 Bft) SW 232 0 min 0,000 mm 2,6 UV-I 346 W/m 14,5 C 19,0 C 11,3 km/h (2 Bft) 98,21 %
21.08.2016 14:08 19,0 C 75 % 1018,6 hPa 0,0 l/m 3,8 km/h (1 Bft) SW 229 0 min 0,000 mm 2,4 UV-I 306 W/m 14,5 C 19,0 C 8,0 km/h (2 Bft) 100,00 %
21.08.2016 14:10 19,1 C 71 % 1018,6 hPa 0,0 l/m 5,8 km/h (2 Bft) W 259 0 min 0,000 mm 2,2 UV-I 278 W/m 13,7 C 19,1 C 11,3 km/h (2 Bft) 100,00 %
21.08.2016 14:12 19,1 C 71 % 1018,6 hPa 0,0 l/m 8,9 km/h (2 Bft) NW 310 0 min 0,000 mm 2,3 UV-I 293 W/m 13,7 C 18,0 C 14,5 km/h (3 Bft) 100,00 %
21.08.2016 14:14 19,0 C 72 % 1018,7 hPa 0,0 l/m 7,4 km/h (2 Bft) W-SW 247 0 min 0,000 mm 2,4 UV-I 314 W/m 13,8 C 18,6 C 20,9 km/h (4 Bft) 100,00 %
21.08.2016 14:16 19,0 C 70 % 1018,6 hPa 0,0 l/m 12,8 km/h (3 Bft) SW 226 0 min 0,000 mm 2,4 UV-I 320 W/m 13,4 C 16,6 C 19,3 km/h (3 Bft) 100,00 %
21.08.2016 14:18 19,1 C 73 % 1018,6 hPa 0,0 l/m 10,2 km/h (2 Bft) SW 223 0 min 0,000 mm 2,4 UV-I 324 W/m 14,1 C 17,6 C 16,1 km/h (3 Bft) 100,00 %
21.08.2016 14:20 19,2 C 71 % 1018,6 hPa 0,0 l/m 8,7 km/h (2 Bft) W-SW 252 0 min 0,000 mm 2,4 UV-I 334 W/m 13,8 C 18,2 C 14,5 km/h (3 Bft) 100,00 %
21.08.2016 14:22 19,2 C 71 % 1018,6 hPa 0,0 l/m 6,6 km/h (2 Bft) W-SW 254 0 min 0,000 mm 2,5 UV-I 341 W/m 13,8 C 19,1 C 12,9 km/h (3 Bft) 100,00 %
21.08.2016 14:24 19,2 C 74 % 1018,6 hPa 0,0 l/m 3,0 km/h (1 Bft) W 270 0 min 0,000 mm 2,4 UV-I 321 W/m 14,4 C 19,2 C 4,8 km/h (1 Bft) 100,00 %
21.08.2016 14:26 19,3 C 71 % 1018,6 hPa 0,0 l/m 6,7 km/h (2 Bft) W 268 0 min 0,000 mm 2,2 UV-I 299 W/m 13,9 C 19,2 C 14,5 km/h (3 Bft) 100,00 %
21.08.2016 14:28 19,1 C 70 % 1018,6 hPa 0,0 l/m 8,4 km/h (2 Bft) W 274 0 min 0,000 mm 2,2 UV-I 294 W/m 13,5 C 18,2 C 12,9 km/h (3 Bft) 100,00 %
21.08.2016 14:30 19,1 C 71 % 1018,7 hPa 0,0 l/m 7,5 km/h (2 Bft) W-SW 250 0 min 0,000 mm 2,2 UV-I 294 W/m 13,7 C 18,6 C 14,5 km/h (3 Bft) 100,00 %
21.08.2016 14:32 19,1 C 73 % 1018,7 hPa 0,0 l/m 5,6 km/h (1 Bft) W 269 0 min 0,000 mm 2,1 UV-I 271 W/m 14,1 C 19,1 C 9,7 km/h (2 Bft) 100,00 %
21.08.2016 14:34 19,1 C 75 % 1018,7 hPa 0,0 l/m 4,6 km/h (1 Bft) W-SW 248 0 min 0,000 mm 1,8 UV-I 244 W/m 14,6 C 19,1 C 8,0 km/h (2 Bft) 100,00 %
21.08.2016 14:36 19,1 C 73 % 1018,7 hPa 0,0 l/m 8,0 km/h (2 Bft) SW 225 0 min 0,000 mm 1,7 UV-I 228 W/m 14,1 C 18,4 C 12,9 km/h (3 Bft) 100,00 %
21.08.2016 14:38 19,1 C 70 % 1018,7 hPa 0,0 l/m 9,4 km/h (2 Bft) SW 236 0 min 0,000 mm 1,7 UV-I 228 W/m 13,5 C 17,9 C 17,7 km/h (3 Bft) 100,00 %
21.08.2016 14:40 19,0 C 71 % 1018,7 hPa 0,0 l/m 5,8 km/h (2 Bft) W-SW 239 0 min 0,000 mm 1,7 UV-I 229 W/m 13,6 C 19,0 C 12,9 km/h (3 Bft) 97,87 %
21.08.2016 14:42 19,0 C 72 % 1018,7 hPa 0,0 l/m 8,9 km/h (2 Bft) S-SW 196 0 min 0,000 mm 1,7 UV-I 228 W/m 13,8 C 17,9 C 19,3 km/h (3 Bft) 100,00 %
21.08.2016 14:44 18,9 C 70 % 1018,7 hPa 0,0 l/m 10,6 km/h (2 Bft) SW 229 0 min 0,000 mm 1,6 UV-I 223 W/m 13,3 C 17,2 C 14,5 km/h (3 Bft) 100,00 %
21.08.2016 14:46 18,9 C 72 % 1018,8 hPa 0,0 l/m 9,7 km/h (2 Bft) W-SW 243 0 min 0,000 mm 1,6 UV-I 216 W/m 13,7 C 17,5 C 16,1 km/h (3 Bft) 100,00 %
21.08.2016 14:48 18,9 C 71 % 1018,8 hPa 0,0 l/m 7,9 km/h (2 Bft) W 277 0 min 0,000 mm 1,6 UV-I 214 W/m 13,5 C 18,2 C 14,5 km/h (3 Bft) 100,00 %
21.08.2016 14:50 18,8 C 72 % 1018,8 hPa 0,0 l/m 8,6 km/h (2 Bft) W 278 0 min 0,000 mm 1,6 UV-I 218 W/m 13,6 C 17,8 C 16,1 km/h (3 Bft) 100,00 %
21.08.2016 14:52 18,8 C 72 % 1018,8 hPa 0,0 l/m 12,4 km/h (3 Bft) W-SW 251 0 min 0,000 mm 1,7 UV-I 230 W/m 13,6 C 16,5 C 22,5 km/h (4 Bft) 100,00 %
21.08.2016 14:54 18,8 C 70 % 1018,8 hPa 0,0 l/m 14,3 km/h (3 Bft) W 273 0 min 0,000 mm 1,8 UV-I 242 W/m 13,2 C 16,0 C 29,0 km/h (5 Bft) 100,00 %
21.08.2016 14:56 18,7 C 71 % 1018,8 hPa 0,0 l/m 12,3 km/h (3 Bft) W 263 0 min 0,000 mm 1,8 UV-I 246 W/m 13,3 C 16,4 C 20,9 km/h (4 Bft) 100,00 %
21.08.2016 14:58 18,6 C 72 % 1018,8 hPa 0,0 l/m 10,5 km/h (2 Bft) W-SW 258 0 min 0,000 mm 1,8 UV-I 247 W/m 13,4 C 16,9 C 17,7 km/h (3 Bft) 98,00 %
21.08.2016 15:00 18,5 C 71 % 1018,8 hPa 0,0 l/m 10,3 km/h (2 Bft) W-SW 248 0 min 0,000 mm 1,8 UV-I 242 W/m 13,1 C 16,9 C 16,1 km/h (3 Bft) 100,00 %
21.08.2016 15:02 18,5 C 74 % 1018,8 hPa 0,0 l/m 9,9 km/h (2 Bft) SW 228 0 min 0,178 mm 1,7 UV-I 240 W/m 13,8 C 17,0 C 16,1 km/h (3 Bft) 100,00 %
21.08.2016 15:04 18,4 C 73 % 1018,8 hPa 0,0 l/m 10,9 km/h (2 Bft) W-SW 248 0 min 0,000 mm 1,7 UV-I 229 W/m 13,5 C 16,6 C 17,7 km/h (3 Bft) 100,00 %
21.08.2016 15:06 18,4 C 74 % 1018,8 hPa 0,0 l/m 7,7 km/h (2 Bft) SW 232 0 min 0,000 mm 1,5 UV-I 218 W/m 13,7 C 17,8 C 16,1 km/h (3 Bft) 100,00 %
21.08.2016 15:08 18,4 C 74 % 1018,8 hPa 0,0 l/m 10,1 km/h (2 Bft) W-SW 237 0 min 0,000 mm 1,5 UV-I 216 W/m 13,7 C 16,8 C 16,1 km/h (3 Bft) 100,00 %
21.08.2016 15:10 18,3 C 73 % 1018,8 hPa 0,0 l/m 9,3 km/h (2 Bft) W-SW 244 0 min 0,000 mm 1,5 UV-I 210 W/m 13,4 C 17,0 C 17,7 km/h (3 Bft) 97,50 %
21.08.2016 15:12 18,3 C 74 % 1018,8 hPa 0,0 l/m 7,8 km/h (2 Bft) W-SW 250 0 min 0,000 mm 1,5 UV-I 211 W/m 13,6 C 17,7 C 12,9 km/h (3 Bft) 98,21 %
21.08.2016 15:14 18,3 C 74 % 1018,7 hPa 0,0 l/m 6,4 km/h (2 Bft) W-SW 237 0 min 0,000 mm 1,5 UV-I 225 W/m 13,6 C 18,3 C 12,9 km/h (3 Bft) 97,14 %
21.08.2016 15:16 18,3 C 75 % 1018,8 hPa 0,0 l/m 5,7 km/h (1 Bft) W-SW 252 0 min 0,000 mm 1,5 UV-I 220 W/m 13,8 C 18,3 C 9,7 km/h (2 Bft) 98,31 %
21.08.2016 15:18 18,3 C 75 % 1018,7 hPa 0,0 l/m 5,6 km/h (1 Bft) W-NW 284 0 min 0,000 mm 1,4 UV-I 204 W/m 13,8 C 18,3 C 8,0 km/h (2 Bft) 97,37 %
21.08.2016 15:20 18,3 C 76 % 1018,7 hPa 0,0 l/m 8,6 km/h (2 Bft) W 268 0 min 0,000 mm 1,3 UV-I 193 W/m 14,0 C 17,3 C 14,5 km/h (3 Bft) 96,00 %
21.08.2016 15:22 18,2 C 76 % 1018,8 hPa 0,0 l/m 7,1 km/h (2 Bft) W-SW 256 0 min 0,000 mm 1,4 UV-I 192 W/m 13,9 C 17,9 C 12,9 km/h (3 Bft) 93,62 %
21.08.2016 15:24 18,2 C 75 % 1018,8 hPa 0,0 l/m 6,7 km/h (2 Bft) W-SW 250 0 min 0,000 mm 1,4 UV-I 204 W/m 13,7 C 18,1 C 12,9 km/h (3 Bft) 97,87 %
21.08.2016 15:26 18,2 C 75 % 1018,7 hPa 0,0 l/m 7,4 km/h (2 Bft) W-SW 248 0 min 0,000 mm 1,4 UV-I 206 W/m 13,7 C 17,7 C 12,9 km/h (3 Bft) 97,87 %
21.08.2016 15:28 18,2 C 76 % 1018,6 hPa 0,0 l/m 8,2 km/h (2 Bft) W 268 0 min 0,000 mm 1,4 UV-I 201 W/m 13,9 C 17,4 C 12,9 km/h (3 Bft) 97,50 %
21.08.2016 15:30 18,2 C 77 % 1018,7 hPa 0,0 l/m 6,4 km/h (2 Bft) SW 227 0 min 0,000 mm 1,4 UV-I 205 W/m 14,1 C 18,2 C 9,7 km/h (2 Bft) 98,11 %
21.08.2016 15:32 18,2 C 76 % 1018,7 hPa 0,0 l/m 6,4 km/h (2 Bft) SW 221 0 min 0,000 mm 1,5 UV-I 235 W/m 13,9 C 18,2 C 11,3 km/h (2 Bft) 97,56 %
21.08.2016 15:34 18,3 C 76 % 1018,6 hPa 0,0 l/m 5,3 km/h (1 Bft) SW 234 0 min 0,000 mm 1,7 UV-I 263 W/m 14,0 C 18,3 C 11,3 km/h (2 Bft) 98,11 %
21.08.2016 15:36 18,4 C 77 % 1018,6 hPa 0,0 l/m 4,8 km/h (1 Bft) SW 223 0 min 0,000 mm 1,7 UV-I 266 W/m 14,3 C 18,4 C 8,0 km/h (2 Bft) 98,00 %
21.08.2016 15:38 18,4 C 76 % 1018,7 hPa 0,0 l/m 9,0 km/h (2 Bft) W-SW 258 0 min 0,000 mm 1,7 UV-I 259 W/m 14,1 C 17,3 C 14,5 km/h (3 Bft) 97,44 %
21.08.2016 15:40 18,4 C 76 % 1018,7 hPa 0,0 l/m 8,6 km/h (2 Bft) SW 215 0 min 0,000 mm 1,6 UV-I 250 W/m 14,1 C 17,4 C 14,5 km/h (3 Bft) 97,87 %
21.08.2016 15:42 18,5 C 75 % 1018,7 hPa 0,0 l/m 10,4 km/h (2 Bft) W 260 0 min 0,000 mm 1,6 UV-I 245 W/m 14,0 C 16,8 C 17,7 km/h (3 Bft) 96,43 %
21.08.2016 15:44 18,5 C 75 % 1018,7 hPa 0,0 l/m 11,6 km/h (2 Bft) W-SW 244 0 min 0,000 mm 1,5 UV-I 238 W/m 14,0 C 16,4 C 17,7 km/h (3 Bft) 97,37 %
21.08.2016 15:46 18,6 C 75 % 1018,7 hPa 0,0 l/m 8,6 km/h (2 Bft) W 267 0 min 0,000 mm 1,5 UV-I 237 W/m 14,1 C 17,6 C 16,1 km/h (3 Bft) 100,00 %
21.08.2016 15:48 18,6 C 75 % 1018,7 hPa 0,0 l/m 10,4 km/h (2 Bft) W 263 0 min 0,000 mm 1,5 UV-I 221 W/m 14,1 C 17,0 C 16,1 km/h (3 Bft) 97,87 %
21.08.2016 15:50 18,6 C 76 % 1018,7 hPa 0,0 l/m 9,7 km/h (2 Bft) W-SW 249 0 min 0,000 mm 1,2 UV-I 180 W/m 14,3 C 17,2 C 16,1 km/h (3 Bft) 95,74 %
21.08.2016 15:52 18,6 C 76 % 1018,7 hPa 0,0 l/m 7,3 km/h (2 Bft) W-SW 254 0 min 0,000 mm 1,0 UV-I 143 W/m 14,3 C 18,2 C 12,9 km/h (3 Bft) 100,00 %
21.08.2016 15:54 18,5 C 77 % 1018,8 hPa 0,0 l/m 9,3 km/h (2 Bft) W-SW 248 0 min 0,000 mm 0,8 UV-I 119 W/m 14,4 C 17,2 C 14,5 km/h (3 Bft) 100,00 %
21.08.2016 15:56 18,4 C 77 % 1018,9 hPa 0,0 l/m 8,9 km/h (2 Bft) W-SW 241 0 min 0,000 mm 0,7 UV-I 114 W/m 14,3 C 17,3 C 16,1 km/h (3 Bft) 100,00 %
21.08.2016 15:58 18,3 C 77 % 1018,8 hPa 0,0 l/m 8,6 km/h (2 Bft) W-SW 255 0 min 0,000 mm 0,7 UV-I 122 W/m 14,2 C 17,3 C 14,5 km/h (3 Bft) 100,00 %
21.08.2016 16:00 18,3 C 77 % 1018,8 hPa 0,0 l/m 7,5 km/h (2 Bft) W-SW 250 0 min 0,152 mm 0,8 UV-I 144 W/m 14,2 C 17,8 C 12,9 km/h (3 Bft) 98,00 %
21.08.2016 16:02 18,3 C 77 % 1018,8 hPa 0,0 l/m 8,1 km/h (2 Bft) SW 216 0 min 0,000 mm 1,0 UV-I 172 W/m 14,2 C 17,5 C 12,9 km/h (3 Bft) 96,00 %
21.08.2016 16:04 18,3 C 76 % 1018,9 hPa 0,0 l/m 11,2 km/h (2 Bft) W 269 0 min 0,000 mm 1,0 UV-I 177 W/m 14,0 C 16,3 C 17,7 km/h (3 Bft) 100,00 %
21.08.2016 16:06 18,3 C 75 % 1019,0 hPa 0,0 l/m 9,4 km/h (2 Bft) W-SW 257 0 min 0,000 mm 1,0 UV-I 160 W/m 13,8 C 17,0 C 17,7 km/h (3 Bft) 100,00 %
21.08.2016 16:08 18,3 C 77 % 1019,0 hPa 0,0 l/m 6,6 km/h (2 Bft) W-SW 255 0 min 0,000 mm 0,9 UV-I 140 W/m 14,2 C 18,2 C 9,7 km/h (2 Bft) 97,37 %
21.08.2016 16:10 18,3 C 77 % 1018,9 hPa 0,0 l/m 8,3 km/h (2 Bft) W-SW 238 0 min 0,000 mm 0,8 UV-I 124 W/m 14,2 C 17,4 C 12,9 km/h (3 Bft) 100,00 %
21.08.2016 16:12 18,3 C 76 % 1018,9 hPa 0,0 l/m 8,6 km/h (2 Bft) SW 223 0 min 0,000 mm 0,7 UV-I 111 W/m 14,0 C 17,3 C 16,1 km/h (3 Bft) 100,00 %
21.08.2016 16:14 18,3 C 76 % 1019,0 hPa 0,0 l/m 8,2 km/h (2 Bft) W-SW 245 0 min 0,000 mm 0,6 UV-I 107 W/m 14,0 C 17,5 C 16,1 km/h (3 Bft) 100,00 %
21.08.2016 16:16 18,2 C 76 % 1019,0 hPa 0,0 l/m 10,4 km/h (2 Bft) W-NW 295 0 min 0,000 mm 0,6 UV-I 114 W/m 13,9 C 16,5 C 16,1 km/h (3 Bft) 100,00 %
21.08.2016 16:18 18,2 C 76 % 1019,0 hPa 0,0 l/m 8,2 km/h (2 Bft) W 272 0 min 0,000 mm 0,6 UV-I 121 W/m 13,9 C 17,4 C 14,5 km/h (3 Bft) 100,00 %
21.08.2016 16:20 18,2 C 78 % 1019,0 hPa 0,0 l/m 9,8 km/h (2 Bft) W-SW 254 0 min 0,000 mm 0,6 UV-I 127 W/m 14,3 C 16,7 C 17,7 km/h (3 Bft) 100,00 %
21.08.2016 16:22 18,2 C 76 % 1019,0 hPa 0,0 l/m 10,0 km/h (2 Bft) W-SW 247 0 min 0,000 mm 0,7 UV-I 132 W/m 13,9 C 16,7 C 14,5 km/h (3 Bft) 100,00 %
21.08.2016 16:24 18,2 C 76 % 1018,9 hPa 0,0 l/m 7,0 km/h (2 Bft) W-NW 284 0 min 0,000 mm 0,7 UV-I 138 W/m 13,9 C 17,9 C 12,9 km/h (3 Bft) 98,53 %
21.08.2016 16:26 18,2 C 77 % 1018,9 hPa 0,0 l/m 8,5 km/h (2 Bft) W 276 0 min 0,000 mm 0,7 UV-I 148 W/m 14,1 C 17,2 C 16,1 km/h (3 Bft) 97,67 %
21.08.2016 16:28 18,2 C 77 % 1019,0 hPa 0,0 l/m 8,0 km/h (2 Bft) W-SW 253 0 min 0,000 mm 0,8 UV-I 160 W/m 14,1 C 17,5 C 14,5 km/h (3 Bft) 100,00 %
21.08.2016 16:30 18,2 C 76 % 1019,0 hPa 0,0 l/m 11,0 km/h (2 Bft) W-SW 250 0 min 0,000 mm 0,9 UV-I 178 W/m 13,9 C 16,3 C 14,5 km/h (3 Bft) 100,00 %
21.08.2016 16:32 18,2 C 76 % 1019,0 hPa 0,0 l/m 9,7 km/h (2 Bft) W-SW 249 0 min 0,000 mm 0,9 UV-I 188 W/m 13,9 C 16,8 C 14,5 km/h (3 Bft) 100,00 %
21.08.2016 16:34 18,3 C 77 % 1019,0 hPa 0,0 l/m 10,5 km/h (2 Bft) SW 232 0 min 0,000 mm 0,9 UV-I 178 W/m 14,2 C 16,6 C 14,5 km/h (3 Bft) 94,74 %
21.08.2016 16:36 18,3 C 74 % 1019,1 hPa 0,0 l/m 13,4 km/h (3 Bft) S-SW 203 0 min 0,000 mm 0,9 UV-I 166 W/m 13,6 C 15,6 C 22,5 km/h (4 Bft) 100,00 %
21.08.2016 16:38 18,3 C 74 % 1019,1 hPa 0,0 l/m 10,3 km/h (2 Bft) SW 232 0 min 0,000 mm 0,9 UV-I 168 W/m 13,6 C 16,7 C 14,5 km/h (3 Bft) 100,00 %
21.08.2016 16:40 18,3 C 74 % 1019,1 hPa 0,0 l/m 12,9 km/h (3 Bft) W-SW 245 0 min 0,000 mm 0,9 UV-I 176 W/m 13,6 C 15,8 C 20,9 km/h (4 Bft) 100,00 %
21.08.2016 16:42 18,3 C 76 % 1019,1 hPa 0,0 l/m 8,0 km/h (2 Bft) S-SW 213 0 min 0,000 mm 0,9 UV-I 178 W/m 14,0 C 17,6 C 14,5 km/h (3 Bft) 100,00 %
21.08.2016 16:44 18,3 C 77 % 1019,1 hPa 0,0 l/m 8,9 km/h (2 Bft) W-SW 242 0 min 0,000 mm 0,9 UV-I 175 W/m 14,2 C 17,2 C 17,7 km/h (3 Bft) 98,11 %
21.08.2016 16:46 18,3 C 75 % 1019,1 hPa 0,0 l/m 10,4 km/h (2 Bft) W-SW 243 0 min 0,000 mm 0,8 UV-I 169 W/m 13,8 C 16,6 C 17,7 km/h (3 Bft) 100,00 %
21.08.2016 16:48 18,3 C 77 % 1019,1 hPa 0,0 l/m 10,8 km/h (2 Bft) W-SW 253 0 min 0,000 mm 0,8 UV-I 165 W/m 14,2 C 16,5 C 17,7 km/h (3 Bft) 100,00 %
21.08.2016 16:50 18,3 C 76 % 1019,1 hPa 0,0 l/m 10,9 km/h (2 Bft) W-SW 248 0 min 0,000 mm 0,8 UV-I 167 W/m 14,0 C 16,4 C 17,7 km/h (3 Bft) 97,44 %
21.08.2016 16:52 18,3 C 76 % 1019,1 hPa 0,0 l/m 11,5 km/h (2 Bft) W-SW 253 0 min 0,000 mm 0,8 UV-I 172 W/m 14,0 C 16,2 C 19,3 km/h (3 Bft) 100,00 %
21.08.2016 16:54 18,3 C 76 % 1019,1 hPa 0,0 l/m 9,5 km/h (2 Bft) W 268 0 min 0,000 mm 0,8 UV-I 178 W/m 14,0 C 17,0 C 14,5 km/h (3 Bft) 100,00 %
21.08.2016 16:56 18,3 C 75 % 1019,0 hPa 0,0 l/m 8,3 km/h (2 Bft) W-SW 254 0 min 0,000 mm 0,9 UV-I 206 W/m 13,8 C 17,4 C 16,1 km/h (3 Bft) 100,00 %
21.08.2016 16:58 18,4 C 76 % 1019,0 hPa 0,0 l/m 9,5 km/h (2 Bft) SW 235 0 min 0,000 mm 1,0 UV-I 228 W/m 14,1 C 17,1 C 16,1 km/h (3 Bft) 100,00 %
21.08.2016 17:00 18,4 C 76 % 1018,9 hPa 0,0 l/m 6,2 km/h (2 Bft) W-SW 252 0 min 0,000 mm 1,0 UV-I 234 W/m 14,1 C 18,4 C 9,7 km/h (2 Bft) 100,00 %
21.08.2016 17:02 18,5 C 77 % 1019,0 hPa 0,0 l/m 6,0 km/h (2 Bft) SW 229 0 min 0,127 mm 1,1 UV-I 249 W/m 14,4 C 18,5 C 11,3 km/h (2 Bft) 98,11 %
21.08.2016 17:04 18,6 C 76 % 1019,0 hPa 0,0 l/m 6,0 km/h (2 Bft) S-SW 194 0 min 0,000 mm 1,1 UV-I 253 W/m 14,3 C 18,6 C 11,3 km/h (2 Bft) 97,87 %
21.08.2016 17:06 18,7 C 77 % 1018,9 hPa 0,0 l/m 6,8 km/h (2 Bft) SW 236 0 min 0,000 mm 1,0 UV-I 244 W/m 14,6 C 18,5 C 11,3 km/h (2 Bft) 100,00 %
21.08.2016 17:08 18,7 C 76 % 1018,9 hPa 0,0 l/m 7,6 km/h (2 Bft) S-SW 212 0 min 0,000 mm 1,0 UV-I 224 W/m 14,4 C 18,2 C 14,5 km/h (3 Bft) 100,00 %
21.08.2016 17:10 18,8 C 76 % 1018,9 hPa 0,0 l/m 8,2 km/h (2 Bft) W 269 0 min 0,000 mm 0,9 UV-I 214 W/m 14,5 C 18,0 C 12,9 km/h (3 Bft) 97,56 %
21.08.2016 17:12 18,7 C 75 % 1018,9 hPa 0,0 l/m 9,5 km/h (2 Bft) W-SW 255 0 min 0,000 mm 0,9 UV-I 212 W/m 14,2 C 17,4 C 16,1 km/h (3 Bft) 98,11 %
21.08.2016 17:14 18,7 C 76 % 1018,9 hPa 0,0 l/m 8,4 km/h (2 Bft) S 189 0 min 0,000 mm 0,9 UV-I 208 W/m 14,4 C 17,8 C 17,7 km/h (3 Bft) 98,11 %
21.08.2016 17:16 18,7 C 75 % 1018,9 hPa 0,0 l/m 8,1 km/h (2 Bft) W-SW 240 0 min 0,000 mm 0,9 UV-I 213 W/m 14,2 C 17,9 C 14,5 km/h (3 Bft) 97,56 %
21.08.2016 17:18 18,7 C 76 % 1019,0 hPa 0,0 l/m 10,5 km/h (2 Bft) W-SW 240 0 min 0,000 mm 0,9 UV-I 228 W/m 14,4 C 17,0 C 19,3 km/h (3 Bft) 96,00 %
21.08.2016 17:20 18,7 C 77 % 1018,9 hPa 0,0 l/m 7,0 km/h (2 Bft) W-SW 248 2 min 0,000 mm 0,9 UV-I 247 W/m 14,6 C 18,4 C 12,9 km/h (3 Bft) 97,37 %
21.08.2016 17:22 18,7 C 75 % 1019,0 hPa 0,0 l/m 12,8 km/h (3 Bft) SW 233 2 min 0,000 mm 0,9 UV-I 260 W/m 14,2 C 16,3 C 19,3 km/h (3 Bft) 96,43 %
21.08.2016 17:24 18,8 C 76 % 1019,0 hPa 0,0 l/m 6,7 km/h (2 Bft) SW 219 2 min 0,000 mm 0,9 UV-I 256 W/m 14,5 C 18,7 C 11,3 km/h (2 Bft) 100,00 %
21.08.2016 17:26 18,8 C 76 % 1019,0 hPa 0,0 l/m 10,5 km/h (2 Bft) W-SW 257 2 min 0,000 mm 0,9 UV-I 241 W/m 14,5 C 17,1 C 16,1 km/h (3 Bft) 97,14 %
21.08.2016 17:28 18,8 C 75 % 1019,0 hPa 0,0 l/m 14,2 km/h (3 Bft) W-SW 242 0 min 0,000 mm 0,9 UV-I 218 W/m 14,3 C 16,0 C 20,9 km/h (4 Bft) 95,45 %
21.08.2016 17:30 18,7 C 72 % 1019,0 hPa 0,0 l/m 14,5 km/h (3 Bft) W-SW 237 0 min 0,000 mm 0,8 UV-I 201 W/m 13,5 C 15,8 C 24,1 km/h (4 Bft) 97,56 %
21.08.2016 17:32 18,6 C 72 % 1019,0 hPa 0,0 l/m 12,7 km/h (3 Bft) W-SW 238 0 min 0,000 mm 0,7 UV-I 187 W/m 13,4 C 16,2 C 22,5 km/h (4 Bft) 95,83 %
21.08.2016 17:34 18,6 C 72 % 1019,1 hPa 0,0 l/m 15,6 km/h (3 Bft) W 262 0 min 0,000 mm 0,7 UV-I 173 W/m 13,4 C 15,4 C 19,3 km/h (3 Bft) 96,15 %
21.08.2016 17:36 18,4 C 73 % 1019,1 hPa 0,0 l/m 15,6 km/h (3 Bft) W 261 0 min 0,000 mm 0,6 UV-I 154 W/m 13,5 C 15,2 C 24,1 km/h (4 Bft) 95,24 %
21.08.2016 17:38 18,4 C 73 % 1019,1 hPa 0,0 l/m 12,1 km/h (2 Bft) W-SW 244 0 min 0,000 mm 0,5 UV-I 144 W/m 13,5 C 16,2 C 20,9 km/h (4 Bft) 98,11 %
21.08.2016 17:40 18,3 C 74 % 1019,1 hPa 0,0 l/m 11,6 km/h (2 Bft) SW 224 0 min 0,000 mm 0,5 UV-I 141 W/m 13,6 C 16,2 C 16,1 km/h (3 Bft) 95,74 %
21.08.2016 17:42 18,3 C 74 % 1019,0 hPa 0,0 l/m 12,1 km/h (2 Bft) SW 230 0 min 0,000 mm 0,5 UV-I 132 W/m 13,6 C 16,0 C 19,3 km/h (3 Bft) 100,00 %
21.08.2016 17:44 18,2 C 74 % 1019,1 hPa 0,0 l/m 11,2 km/h (2 Bft) W 267 0 min 0,000 mm 0,5 UV-I 134 W/m 13,5 C 16,2 C 20,9 km/h (4 Bft) 98,21 %
21.08.2016 17:46 18,1 C 75 % 1019,1 hPa 0,0 l/m 13,6 km/h (3 Bft) W-SW 238 0 min 0,000 mm 0,5 UV-I 153 W/m 13,6 C 15,3 C 20,9 km/h (4 Bft) 97,37 %
21.08.2016 17:48 18,1 C 76 % 1019,1 hPa 0,0 l/m 10,2 km/h (2 Bft) W-SW 250 0 min 0,000 mm 0,5 UV-I 160 W/m 13,8 C 16,5 C 14,5 km/h (3 Bft) 100,00 %
21.08.2016 17:50 18,1 C 75 % 1019,1 hPa 0,0 l/m 12,7 km/h (3 Bft) W 265 0 min 0,000 mm 0,5 UV-I 163 W/m 13,6 C 15,6 C 19,3 km/h (3 Bft) 100,00 %
21.08.2016 17:52 18,1 C 76 % 1019,1 hPa 0,0 l/m 11,2 km/h (2 Bft) W-NW 294 0 min 0,000 mm 0,5 UV-I 177 W/m 13,8 C 16,1 C 17,7 km/h (3 Bft) 100,00 %
21.08.2016 17:54 18,1 C 76 % 1019,1 hPa 0,0 l/m 11,7 km/h (2 Bft) SW 223 0 min 0,000 mm 0,5 UV-I 183 W/m 13,8 C 15,9 C 17,7 km/h (3 Bft) 100,00 %
21.08.2016 17:56 18,1 C 76 % 1019,1 hPa 0,0 l/m 10,4 km/h (2 Bft) SW 224 0 min 0,000 mm 0,5 UV-I 190 W/m 13,8 C 16,4 C 16,1 km/h (3 Bft) 95,12 %
21.08.2016 17:58 18,2 C 76 % 1019,1 hPa 0,0 l/m 14,4 km/h (3 Bft) W 273 2 min 0,000 mm 0,6 UV-I 205 W/m 13,9 C 15,2 C 20,9 km/h (4 Bft) 100,00 %
21.08.2016 18:00 18,2 C 76 % 1019,1 hPa 0,0 l/m 14,8 km/h (3 Bft) W-SW 249 2 min 0,000 mm 0,5 UV-I 187 W/m 13,9 C 15,1 C 24,1 km/h (4 Bft) 97,37 %
21.08.2016 18:02 18,2 C 76 % 1019,1 hPa 0,0 l/m 10,4 km/h (2 Bft) W-SW 257 0 min 0,153 mm 0,5 UV-I 160 W/m 13,9 C 16,5 C 19,3 km/h (3 Bft) 100,00 %
21.08.2016 18:04 18,2 C 76 % 1019,1 hPa 0,0 l/m 13,6 km/h (3 Bft) W-SW 253 0 min 0,000 mm 0,1 UV-I 134 W/m 13,9 C 15,5 C 19,3 km/h (3 Bft) 100,00 %
21.08.2016 18:06 18,1 C 76 % 1019,2 hPa 0,0 l/m 13,1 km/h (3 Bft) W-SW 243 0 min 0,000 mm 0,0 UV-I 120 W/m 13,8 C 15,5 C 19,3 km/h (3 Bft) 100,00 %
21.08.2016 18:08 18,1 C 76 % 1019,2 hPa 0,0 l/m 12,6 km/h (3 Bft) W 266 0 min 0,000 mm 0,0 UV-I 107 W/m 13,8 C 15,6 C 16,1 km/h (3 Bft) 100,00 %
21.08.2016 18:10 18,1 C 77 % 1019,2 hPa 0,0 l/m 13,3 km/h (3 Bft) SW 227 0 min 0,000 mm 0,0 UV-I 96 W/m 14,0 C 15,4 C 22,5 km/h (4 Bft) 100,00 %
21.08.2016 18:12 18,1 C 77 % 1019,2 hPa 0,0 l/m 10,9 km/h (2 Bft) SW 216 0 min 0,000 mm 0,0 UV-I 97 W/m 14,0 C 16,2 C 17,7 km/h (3 Bft) 100,00 %
21.08.2016 18:14 18,0 C 77 % 1019,3 hPa 0,0 l/m 13,7 km/h (3 Bft) W-SW 242 0 min 0,000 mm 0,0 UV-I 109 W/m 13,9 C 15,2 C 20,9 km/h (4 Bft) 97,73 %
21.08.2016 18:16 17,9 C 77 % 1019,2 hPa 0,0 l/m 9,7 km/h (2 Bft) SW 225 0 min 0,000 mm 0,0 UV-I 123 W/m 13,8 C 16,4 C 14,5 km/h (3 Bft) 100,00 %
21.08.2016 18:18 17,9 C 78 % 1019,2 hPa 0,0 l/m 8,6 km/h (2 Bft) SW 215 0 min 0,000 mm 0,0 UV-I 120 W/m 14,0 C 16,9 C 12,9 km/h (3 Bft) 97,87 %
21.08.2016 18:20 17,9 C 78 % 1019,2 hPa 0,0 l/m 10,7 km/h (2 Bft) W-SW 239 0 min 0,000 mm 0,0 UV-I 104 W/m 14,0 C 16,1 C 14,5 km/h (3 Bft) 100,00 %
21.08.2016 18:22 17,9 C 78 % 1019,2 hPa 0,0 l/m 7,4 km/h (2 Bft) SW 229 0 min 0,000 mm 0,0 UV-I 85 W/m 14,0 C 17,4 C 9,7 km/h (2 Bft) 100,00 %
21.08.2016 18:24 17,9 C 79 % 1019,2 hPa 0,0 l/m 7,8 km/h (2 Bft) SW 236 0 min 0,000 mm 0,0 UV-I 74 W/m 14,2 C 17,2 C 12,9 km/h (3 Bft) 98,11 %
21.08.2016 18:26 17,9 C 79 % 1019,2 hPa 0,0 l/m 9,5 km/h (2 Bft) S-SW 211 0 min 0,000 mm 0,0 UV-I 66 W/m 14,2 C 16,5 C 16,1 km/h (3 Bft) 100,00 %
21.08.2016 18:28 17,9 C 79 % 1019,2 hPa 0,0 l/m 11,4 km/h (2 Bft) W-SW 251 0 min 0,000 mm 0,0 UV-I 64 W/m 14,2 C 15,8 C 17,7 km/h (3 Bft) 100,00 %
21.08.2016 18:30 17,8 C 78 % 1019,2 hPa 0,0 l/m 9,5 km/h (2 Bft) SW 232 0 min 0,000 mm 0,0 UV-I 76 W/m 13,9 C 16,4 C 16,1 km/h (3 Bft) 97,37 %
21.08.2016 18:32 17,8 C 78 % 1019,2 hPa 0,0 l/m 7,8 km/h (2 Bft) S-SW 210 0 min 0,000 mm 0,0 UV-I 98 W/m 13,9 C 17,1 C 12,9 km/h (3 Bft) 100,00 %
21.08.2016 18:34 17,8 C 79 % 1019,3 hPa 0,0 l/m 8,7 km/h (2 Bft) SW 233 0 min 0,000 mm 0,0 UV-I 114 W/m 14,1 C 16,7 C 14,5 km/h (3 Bft) 100,00 %
21.08.2016 18:36 17,9 C 79 % 1019,3 hPa 0,0 l/m 7,7 km/h (2 Bft) SW 221 0 min 0,000 mm 0,0 UV-I 114 W/m 14,2 C 17,3 C 12,9 km/h (3 Bft) 100,00 %
21.08.2016 18:38 17,9 C 79 % 1019,3 hPa 0,0 l/m 9,3 km/h (2 Bft) W-SW 252 0 min 0,000 mm 0,0 UV-I 106 W/m 14,2 C 16,6 C 12,9 km/h (3 Bft) 100,00 %
21.08.2016 18:40 17,9 C 79 % 1019,3 hPa 0,0 l/m 8,3 km/h (2 Bft) W-SW 248 0 min 0,000 mm 0,0 UV-I 94 W/m 14,2 C 17,0 C 14,5 km/h (3 Bft) 100,00 %
21.08.2016 18:42 17,9 C 79 % 1019,3 hPa 0,0 l/m 9,4 km/h (2 Bft) SW 223 0 min 0,000 mm 0,0 UV-I 84 W/m 14,2 C 16,6 C 12,9 km/h (3 Bft) 100,00 %
21.08.2016 18:44 17,9 C 79 % 1019,3 hPa 0,0 l/m 10,6 km/h (2 Bft) W-SW 247 0 min 0,000 mm 0,0 UV-I 72 W/m 14,2 C 16,1 C 14,5 km/h (3 Bft) 100,00 %
21.08.2016 18:46 17,9 C 79 % 1019,4 hPa 0,0 l/m 7,3 km/h (2 Bft) SW 220 0 min 0,000 mm 0,0 UV-I 67 W/m 14,2 C 17,5 C 14,5 km/h (3 Bft) 98,11 %
21.08.2016 18:48 17,8 C 80 % 1019,5 hPa 0,0 l/m 9,9 km/h (2 Bft) W-SW 241 0 min 0,000 mm 0,0 UV-I 63 W/m 14,3 C 16,2 C 12,9 km/h (3 Bft) 100,00 %
21.08.2016 18:50 17,8 C 79 % 1019,5 hPa 0,0 l/m 10,4 km/h (2 Bft) SW 235 0 min 0,000 mm 0,0 UV-I 68 W/m 14,1 C 16,1 C 16,1 km/h (3 Bft) 100,00 %
21.08.2016 18:52 17,8 C 79 % 1019,5 hPa 0,0 l/m 9,1 km/h (2 Bft) W-SW 252 0 min 0,000 mm 0,0 UV-I 77 W/m 14,1 C 16,6 C 14,5 km/h (3 Bft) 97,87 %
21.08.2016 18:54 17,8 C 80 % 1019,5 hPa 0,0 l/m 6,9 km/h (2 Bft) W-SW 256 0 min 0,000 mm 0,0 UV-I 83 W/m 14,3 C 17,6 C 11,3 km/h (2 Bft) 100,00 %
21.08.2016 18:56 17,8 C 80 % 1019,5 hPa 0,0 l/m 7,4 km/h (2 Bft) W-SW 257 0 min 0,000 mm 0,0 UV-I 87 W/m 14,3 C 17,3 C 12,9 km/h (3 Bft) 100,00 %
21.08.2016 18:58 17,8 C 80 % 1019,5 hPa 0,0 l/m 10,1 km/h (2 Bft) W-SW 240 0 min 0,000 mm 0,0 UV-I 91 W/m 14,3 C 16,2 C 14,5 km/h (3 Bft) 98,18 %
21.08.2016 19:00 17,8 C 80 % 1019,5 hPa 0,0 l/m 6,1 km/h (2 Bft) W-SW 246 0 min 0,000 mm 0,0 UV-I 93 W/m 14,3 C 17,8 C 9,7 km/h (2 Bft) 98,00 %
21.08.2016 19:02 17,8 C 80 % 1019,5 hPa 0,0 l/m 6,6 km/h (2 Bft) W 259 2 min 0,076 mm 0,0 UV-I 91 W/m 14,3 C 17,7 C 12,9 km/h (3 Bft) 98,00 %
21.08.2016 19:04 17,8 C 80 % 1019,6 hPa 0,0 l/m 4,9 km/h (1 Bft) W 261 2 min 0,000 mm 0,0 UV-I 88 W/m 14,3 C 17,8 C 6,4 km/h (2 Bft) 100,00 %
21.08.2016 19:06 17,8 C 80 % 1019,7 hPa 0,0 l/m 7,2 km/h (2 Bft) W 264 0 min 0,000 mm 0,0 UV-I 76 W/m 14,3 C 17,4 C 12,9 km/h (3 Bft) 100,00 %
21.08.2016 19:08 17,8 C 80 % 1019,7 hPa 0,0 l/m 7,0 km/h (2 Bft) W-SW 248 0 min 0,000 mm 0,0 UV-I 59 W/m 14,3 C 17,5 C 12,9 km/h (3 Bft) 94,34 %
21.08.2016 19:10 17,8 C 81 % 1019,6 hPa 0,0 l/m 10,0 km/h (2 Bft) W-SW 250 0 min 0,000 mm 0,0 UV-I 48 W/m 14,5 C 16,2 C 16,1 km/h (3 Bft) 97,56 %
21.08.2016 19:12 17,7 C 80 % 1019,7 hPa 0,0 l/m 8,5 km/h (2 Bft) W 275 0 min 0,000 mm 0,0 UV-I 40 W/m 14,2 C 16,7 C 12,9 km/h (3 Bft) 97,73 %
21.08.2016 19:14 17,7 C 81 % 1019,7 hPa 0,0 l/m 7,5 km/h (2 Bft) W-SW 251 0 min 0,000 mm 0,0 UV-I 35 W/m 14,4 C 17,2 C 11,3 km/h (2 Bft) 98,00 %
21.08.2016 19:16 17,7 C 80 % 1019,7 hPa 0,0 l/m 8,1 km/h (2 Bft) W-SW 241 0 min 0,000 mm 0,0 UV-I 33 W/m 14,2 C 16,9 C 14,5 km/h (3 Bft) 97,87 %
21.08.2016 19:18 17,7 C 80 % 1019,6 hPa 0,0 l/m 5,8 km/h (2 Bft) W 277 0 min 0,000 mm 0,0 UV-I 31 W/m 14,2 C 17,7 C 8,0 km/h (2 Bft) 95,74 %
21.08.2016 19:20 17,7 C 80 % 1019,6 hPa 0,0 l/m 9,9 km/h (2 Bft) W-SW 253 0 min 0,000 mm 0,0 UV-I 27 W/m 14,2 C 16,1 C 14,5 km/h (3 Bft) 98,11 %
21.08.2016 19:22 17,6 C 80 % 1019,6 hPa 0,0 l/m 9,4 km/h (2 Bft) W 265 0 min 0,000 mm 0,0 UV-I 25 W/m 14,1 C 16,2 C 14,5 km/h (3 Bft) 96,00 %
21.08.2016 19:24 17,6 C 80 % 1019,6 hPa 0,0 l/m 5,7 km/h (1 Bft) W-SW 255 0 min 0,000 mm 0,0 UV-I 25 W/m 14,1 C 17,6 C 9,7 km/h (2 Bft) 100,00 %
21.08.2016 19:26 17,6 C 80 % 1019,6 hPa 0,0 l/m 7,3 km/h (2 Bft) SW 236 0 min 0,000 mm 0,0 UV-I 23 W/m 14,1 C 17,2 C 11,3 km/h (2 Bft) 96,00 %
21.08.2016 19:28 17,6 C 80 % 1019,6 hPa 0,0 l/m 8,7 km/h (2 Bft) W-SW 240 0 min 0,000 mm 0,0 UV-I 22 W/m 14,1 C 16,5 C 14,5 km/h (3 Bft) 94,87 %
21.08.2016 19:30 17,5 C 81 % 1019,6 hPa 0,0 l/m 7,5 km/h (2 Bft) SW 223 0 min 0,000 mm 0,0 UV-I 19 W/m 14,2 C 17,0 C 9,7 km/h (2 Bft) 96,00 %
21.08.2016 19:32 17,5 C 81 % 1019,7 hPa 0,0 l/m 6,6 km/h (2 Bft) W-SW 242 0 min 0,000 mm 0,0 UV-I 18 W/m 14,2 C 17,4 C 14,5 km/h (3 Bft) 97,87 %
21.08.2016 19:34 17,4 C 81 % 1019,7 hPa 0,0 l/m 7,6 km/h (2 Bft) SW 219 0 min 0,000 mm 0,0 UV-I 15 W/m 14,1 C 16,8 C 12,9 km/h (3 Bft) 98,00 %
21.08.2016 19:36 17,4 C 82 % 1019,8 hPa 0,0 l/m 8,8 km/h (2 Bft) W 259 0 min 0,000 mm 0,0 UV-I 12 W/m 14,3 C 16,3 C 16,1 km/h (3 Bft) 98,08 %
21.08.2016 19:38 17,4 C 81 % 1019,8 hPa 0,0 l/m 8,4 km/h (2 Bft) S-SW 206 0 min 0,000 mm 0,0 UV-I 12 W/m 14,1 C 16,4 C 12,9 km/h (3 Bft) 97,44 %
21.08.2016 19:40 17,4 C 81 % 1019,8 hPa 0,0 l/m 9,5 km/h (2 Bft) W-SW 255 0 min 0,000 mm 0,0 UV-I 10 W/m 14,1 C 16,0 C 19,3 km/h (3 Bft) 96,23 %
21.08.2016 19:42 17,4 C 80 % 1019,8 hPa 0,0 l/m 11,6 km/h (2 Bft) W-SW 257 0 min 0,000 mm 0,0 UV-I 7 W/m 13,9 C 15,2 C 17,7 km/h (3 Bft) 100,00 %
21.08.2016 19:44 17,4 C 79 % 1019,8 hPa 0,0 l/m 11,3 km/h (2 Bft) W-SW 248 0 min 0,000 mm 0,0 UV-I 7 W/m 13,7 C 15,3 C 17,7 km/h (3 Bft) 98,00 %
21.08.2016 19:46 17,3 C 78 % 1019,8 hPa 0,0 l/m 9,8 km/h (2 Bft) W 259 0 min 0,000 mm 0,0 UV-I 6 W/m 13,4 C 15,7 C 19,3 km/h (3 Bft) 100,00 %
21.08.2016 19:48 17,3 C 77 % 1019,8 hPa 0,0 l/m 6,7 km/h (2 Bft) NW 312 0 min 0,000 mm 0,0 UV-I 7 W/m 13,2 C 17,2 C 11,3 km/h (2 Bft) 100,00 %
21.08.2016 19:50 17,3 C 77 % 1019,9 hPa 0,0 l/m 7,9 km/h (2 Bft) W 265 0 min 0,000 mm 0,0 UV-I 7 W/m 13,2 C 16,6 C 11,3 km/h (2 Bft) 100,00 %
21.08.2016 19:52 17,3 C 76 % 1019,9 hPa 0,0 l/m 7,2 km/h (2 Bft) W-SW 246 0 min 0,000 mm 0,0 UV-I 7 W/m 13,0 C 16,9 C 9,7 km/h (2 Bft) 96,23 %
21.08.2016 19:54 17,2 C 74 % 1019,9 hPa 0,0 l/m 8,8 km/h (2 Bft) W-SW 255 0 min 0,000 mm 0,0 UV-I 6 W/m 12,5 C 16,0 C 12,9 km/h (3 Bft) 100,00 %
21.08.2016 19:56 17,2 C 74 % 1019,9 hPa 0,0 l/m 5,1 km/h (1 Bft) W-SW 244 0 min 0,000 mm 0,0 UV-I 5 W/m 12,5 C 17,2 C 11,3 km/h (2 Bft) 100,00 %
21.08.2016 19:58 17,2 C 74 % 1020,0 hPa 0,0 l/m 4,7 km/h (1 Bft) W 274 0 min 0,000 mm 0,0 UV-I 5 W/m 12,5 C 17,2 C 6,4 km/h (2 Bft) 100,00 %
21.08.2016 20:00 17,1 C 74 % 1020,2 hPa 0,0 l/m 4,6 km/h (1 Bft) W 262 0 min 0,051 mm 0,0 UV-I 3 W/m 12,4 C 17,1 C 6,4 km/h (2 Bft) 100,00 %
21.08.2016 20:02 17,1 C 75 % 1020,3 hPa 0,0 l/m 4,5 km/h (1 Bft) W 270 0 min 0,000 mm 0,0 UV-I 0 W/m 12,6 C 17,1 C 9,7 km/h (2 Bft) 100,00 %
21.08.2016 20:04 17,0 C 74 % 1020,3 hPa 0,0 l/m 5,5 km/h (1 Bft) W-SW 251 0 min 0,000 mm 0,0 UV-I 0 W/m 12,3 C 17,0 C 9,7 km/h (2 Bft) 97,14 %
21.08.2016 20:06 16,9 C 74 % 1020,4 hPa 0,0 l/m 4,5 km/h (1 Bft) W-SW 248 0 min 0,000 mm 0,0 UV-I 0 W/m 12,2 C 16,9 C 8,0 km/h (2 Bft) 100,00 %
21.08.2016 20:08 16,9 C 73 % 1020,4 hPa 0,0 l/m 3,6 km/h (1 Bft) W 273 0 min 0,000 mm 0,0 UV-I 0 W/m 12,0 C 16,9 C 8,0 km/h (2 Bft) 100,00 %
21.08.2016 20:10 16,8 C 73 % 1020,5 hPa 0,0 l/m 2,2 km/h (1 Bft) W-SW 250 0 min 0,000 mm 0,0 UV-I 0 W/m 11,9 C 16,8 C 4,8 km/h (1 Bft) 100,00 %
21.08.2016 20:12 16,8 C 74 % 1020,5 hPa 0,0 l/m 3,5 km/h (1 Bft) W-SW 258 0 min 0,000 mm 0,0 UV-I 0 W/m 12,1 C 16,8 C 4,8 km/h (1 Bft) 97,56 %
21.08.2016 20:14 16,7 C 73 % 1020,6 hPa 0,0 l/m 4,2 km/h (1 Bft) W-SW 249 0 min 0,000 mm 0,0 UV-I 0 W/m 11,8 C 16,7 C 6,4 km/h (2 Bft) 100,00 %
21.08.2016 20:16 16,7 C 73 % 1020,6 hPa 0,0 l/m 4,0 km/h (1 Bft) W-SW 252 0 min 0,000 mm 0,0 UV-I 0 W/m 11,8 C 16,7 C 6,4 km/h (2 Bft) 97,87 %
21.08.2016 20:18 16,6 C 73 % 1020,7 hPa 0,0 l/m 5,8 km/h (2 Bft) W-SW 242 0 min 0,000 mm 0,0 UV-I 0 W/m 11,7 C 16,6 C 9,7 km/h (2 Bft) 100,00 %
21.08.2016 20:20 16,6 C 72 % 1020,6 hPa 0,0 l/m 5,6 km/h (1 Bft) W 281 0 min 0,000 mm 0,0 UV-I 0 W/m 11,5 C 16,6 C 12,9 km/h (3 Bft) 100,00 %
21.08.2016 20:22 16,5 C 73 % 1020,8 hPa 0,0 l/m 4,0 km/h (1 Bft) W 276 0 min 0,000 mm 0,0 UV-I 0 W/m 11,6 C 16,5 C 6,4 km/h (2 Bft) 98,11 %
21.08.2016 20:24 16,4 C 73 % 1020,9 hPa 0,0 l/m 4,1 km/h (1 Bft) W 280 0 min 0,000 mm 0,0 UV-I 0 W/m 11,5 C 16,4 C 9,7 km/h (2 Bft) 97,37 %
21.08.2016 20:26 16,4 C 73 % 1020,9 hPa 0,0 l/m 2,2 km/h (1 Bft) W-SW 241 0 min 0,000 mm 0,0 UV-I 0 W/m 11,5 C 16,4 C 4,8 km/h (1 Bft) 98,00 %
21.08.2016 20:28 16,3 C 72 % 1020,9 hPa 0,0 l/m 3,1 km/h (1 Bft) W-NW 300 0 min 0,000 mm 0,0 UV-I 0 W/m 11,2 C 16,3 C 9,7 km/h (2 Bft) 100,00 %
21.08.2016 20:30 16,3 C 72 % 1021,0 hPa 0,0 l/m 4,2 km/h (1 Bft) W 279 0 min 0,000 mm 0,0 UV-I 0 W/m 11,2 C 16,3 C 8,0 km/h (2 Bft) 100,00 %
21.08.2016 20:32 16,3 C 73 % 1021,0 hPa 0,0 l/m 1,4 km/h (1 Bft) W-NW 283 0 min 0,000 mm 0,0 UV-I 0 W/m 11,4 C 16,3 C 6,4 km/h (2 Bft) 100,00 %
21.08.2016 20:34 16,2 C 73 % 1020,9 hPa 0,0 l/m 3,1 km/h (1 Bft) W 268 0 min 0,000 mm 0,0 UV-I 0 W/m 11,4 C 16,2 C 6,4 km/h (2 Bft) 100,00 %
21.08.2016 20:36 16,1 C 73 % 1021,0 hPa 0,0 l/m 1,4 km/h (1 Bft) W 269 0 min 0,000 mm 0,0 UV-I 0 W/m 11,3 C 16,1 C 3,2 km/h (1 Bft) 100,00 %
21.08.2016 20:38 16,1 C 73 % 1021,0 hPa 0,0 l/m 2,5 km/h (1 Bft) NW 304 0 min 0,000 mm 0,0 UV-I 0 W/m 11,3 C 16,1 C 4,8 km/h (1 Bft) 98,00 %
21.08.2016 20:40 16,0 C 74 % 1021,0 hPa 0,0 l/m 1,2 km/h (1 Bft) NW 304 0 min 0,000 mm 0,0 UV-I 0 W/m 11,4 C 16,0 C 3,2 km/h (1 Bft) 100,00 %
21.08.2016 20:42 15,9 C 76 % 1021,1 hPa 0,0 l/m 0,3 km/h (0 Bft) NW 304 0 min 0,000 mm 0,0 UV-I 0 W/m 11,7 C 15,9 C 1,6 km/h (1 Bft) 100,00 %
21.08.2016 20:44 15,8 C 76 % 1021,2 hPa 0,0 l/m 1,1 km/h (1 Bft) W-NW 298 0 min 0,000 mm 0,0 UV-I 0 W/m 11,6 C 15,8 C 3,2 km/h (1 Bft) 100,00 %
21.08.2016 20:46 15,8 C 76 % 1021,2 hPa 0,0 l/m 3,9 km/h (1 Bft) W-SW 248 0 min 0,000 mm 0,0 UV-I 0 W/m 11,6 C 15,8 C 6,4 km/h (2 Bft) 98,00 %
21.08.2016 20:48 15,8 C 76 % 1021,1 hPa 0,0 l/m 4,0 km/h (1 Bft) W 259 0 min 0,000 mm 0,0 UV-I 0 W/m 11,6 C 15,8 C 6,4 km/h (2 Bft) 100,00 %
21.08.2016 20:50 15,7 C 75 % 1021,2 hPa 0,0 l/m 3,4 km/h (1 Bft) W 264 0 min 0,000 mm 0,0 UV-I 0 W/m 11,3 C 15,7 C 6,4 km/h (2 Bft) 97,44 %
21.08.2016 20:52 15,7 C 75 % 1021,1 hPa 0,0 l/m 3,7 km/h (1 Bft) W-SW 244 0 min 0,000 mm 0,0 UV-I 0 W/m 11,3 C 15,7 C 6,4 km/h (2 Bft) 100,00 %
21.08.2016 20:54 15,7 C 75 % 1021,2 hPa 0,0 l/m 3,7 km/h (1 Bft) W-SW 248 0 min 0,000 mm 0,0 UV-I 0 W/m 11,3 C 15,7 C 4,8 km/h (1 Bft) 100,00 %
21.08.2016 20:56 15,7 C 75 % 1021,2 hPa 0,0 l/m 4,2 km/h (1 Bft) W 276 0 min 0,000 mm 0,0 UV-I 0 W/m 11,3 C 15,7 C 6,4 km/h (2 Bft) 100,00 %
21.08.2016 20:58 15,8 C 74 % 1021,2 hPa 0,0 l/m 2,0 km/h (1 Bft) W 276 0 min 0,000 mm 0,0 UV-I 0 W/m 11,2 C 15,8 C 4,8 km/h (1 Bft) 100,00 %
21.08.2016 21:00 15,8 C 75 % 1021,2 hPa 0,0 l/m 3,7 km/h (1 Bft) W-SW 247 0 min 0,025 mm 0,0 UV-I 0 W/m 11,4 C 15,8 C 6,4 km/h (2 Bft) 100,00 %
21.08.2016 21:02 15,8 C 75 % 1021,3 hPa 0,0 l/m 3,3 km/h (1 Bft) W-SW 246 0 min 0,000 mm 0,0 UV-I 0 W/m 11,4 C 15,8 C 4,8 km/h (1 Bft) 98,11 %
21.08.2016 21:04 15,7 C 76 % 1021,3 hPa 0,0 l/m 5,4 km/h (1 Bft) W-SW 238 0 min 0,000 mm 0,0 UV-I 0 W/m 11,5 C 15,7 C 8,0 km/h (2 Bft) 100,00 %
21.08.2016 21:06 15,7 C 76 % 1021,3 hPa 0,0 l/m 6,8 km/h (2 Bft) W-SW 246 0 min 0,000 mm 0,0 UV-I 0 W/m 11,5 C 15,5 C 9,7 km/h (2 Bft) 100,00 %
21.08.2016 21:08 15,7 C 76 % 1021,3 hPa 0,0 l/m 6,5 km/h (2 Bft) W-SW 257 0 min 0,000 mm 0,0 UV-I 0 W/m 11,5 C 15,7 C 9,7 km/h (2 Bft) 97,56 %
21.08.2016 21:10 15,7 C 76 % 1021,3 hPa 0,0 l/m 6,2 km/h (2 Bft) W 264 0 min 0,000 mm 0,0 UV-I 0 W/m 11,5 C 15,7 C 9,7 km/h (2 Bft) 94,64 %
21.08.2016 21:12 15,7 C 76 % 1021,3 hPa 0,0 l/m 6,3 km/h (2 Bft) W-SW 258 0 min 0,000 mm 0,0 UV-I 0 W/m 11,5 C 15,7 C 11,3 km/h (2 Bft) 97,37 %
21.08.2016 21:14 15,7 C 77 % 1021,3 hPa 0,0 l/m 4,6 km/h (1 Bft) W 272 0 min 0,000 mm 0,0 UV-I 0 W/m 11,7 C 15,7 C 6,4 km/h (2 Bft) 98,00 %
21.08.2016 21:16 15,6 C 77 % 1021,4 hPa 0,0 l/m 4,2 km/h (1 Bft) W-SW 256 0 min 0,000 mm 0,0 UV-I 0 W/m 11,6 C 15,6 C 6,4 km/h (2 Bft) 97,87 %
21.08.2016 21:18 15,6 C 77 % 1021,3 hPa 0,0 l/m 2,8 km/h (1 Bft) W 261 0 min 0,000 mm 0,0 UV-I 0 W/m 11,6 C 15,6 C 4,8 km/h (1 Bft) 98,00 %
21.08.2016 21:20 15,6 C 77 % 1021,3 hPa 0,0 l/m 2,1 km/h (1 Bft) W 277 0 min 0,000 mm 0,0 UV-I 0 W/m 11,6 C 15,6 C 6,4 km/h (2 Bft) 97,37 %
21.08.2016 21:22 15,5 C 79 % 1021,3 hPa 0,0 l/m 0,4 km/h (0 Bft) W 277 0 min 0,000 mm 0,0 UV-I 0 W/m 11,9 C 15,5 C 1,6 km/h (1 Bft) 98,11 %
21.08.2016 21:24 15,4 C 81 % 1021,3 hPa 0,0 l/m 0,4 km/h (0 Bft) W 277 0 min 0,000 mm 0,0 UV-I 0 W/m 12,2 C 15,4 C 3,2 km/h (1 Bft) 98,00 %
21.08.2016 21:26 15,3 C 80 % 1021,3 hPa 0,0 l/m 1,6 km/h (1 Bft) W 277 0 min 0,000 mm 0,0 UV-I 0 W/m 11,9 C 15,3 C 3,2 km/h (1 Bft) 94,00 %
21.08.2016 21:28 15,3 C 79 % 1021,3 hPa 0,0 l/m 1,0 km/h (0 Bft) W 277 0 min 0,000 mm 0,0 UV-I 0 W/m 11,7 C 15,3 C 3,2 km/h (1 Bft) 97,22 %
21.08.2016 21:30 15,3 C 78 % 1021,3 hPa 0,0 l/m 2,2 km/h (1 Bft) W 277 0 min 0,000 mm 0,0 UV-I 0 W/m 11,5 C 15,3 C 3,2 km/h (1 Bft) 97,87 %
21.08.2016 21:32 15,3 C 79 % 1021,3 hPa 0,0 l/m 2,6 km/h (1 Bft) W 277 0 min 0,000 mm 0,0 UV-I 0 W/m 11,7 C 15,3 C 3,2 km/h (1 Bft) 98,11 %
21.08.2016 21:34 15,2 C 80 % 1021,4 hPa 0,0 l/m 2,8 km/h (1 Bft) W 277 0 min 0,000 mm 0,0 UV-I 0 W/m 11,8 C 15,2 C 4,8 km/h (1 Bft) 97,56 %
21.08.2016 21:36 15,2 C 79 % 1021,5 hPa 0,0 l/m 2,4 km/h (1 Bft) W 277 0 min 0,000 mm 0,0 UV-I 0 W/m 11,6 C 15,2 C 4,8 km/h (1 Bft) 98,00 %
21.08.2016 21:38 15,2 C 79 % 1021,5 hPa 0,0 l/m 2,1 km/h (1 Bft) W 277 0 min 0,000 mm 0,0 UV-I 0 W/m 11,6 C 15,2 C 3,2 km/h (1 Bft) 98,11 %
21.08.2016 21:40 15,2 C 79 % 1021,4 hPa 0,0 l/m 2,3 km/h (1 Bft) W 277 0 min 0,000 mm 0,0 UV-I 0 W/m 11,6 C 15,2 C 3,2 km/h (1 Bft) 97,56 %
21.08.2016 21:42 15,2 C 79 % 1021,5 hPa 0,0 l/m 1,9 km/h (1 Bft) W 277 0 min 0,000 mm 0,0 UV-I 0 W/m 11,6 C 15,2 C 3,2 km/h (1 Bft) 100,00 %
21.08.2016 21:44 15,2 C 79 % 1021,4 hPa 0,0 l/m 2,6 km/h (1 Bft) W 277 0 min 0,000 mm 0,0 UV-I 0 W/m 11,6 C 15,2 C 3,2 km/h (1 Bft) 100,00 %
21.08.2016 21:46 15,1 C 79 % 1021,5 hPa 0,0 l/m 3,6 km/h (1 Bft) W 269 0 min 0,000 mm 0,0 UV-I 0 W/m 11,5 C 15,1 C 4,8 km/h (1 Bft) 100,00 %
21.08.2016 21:48 15,1 C 79 % 1021,5 hPa 0,0 l/m 3,9 km/h (1 Bft) W-SW 257 0 min 0,000 mm 0,0 UV-I 0 W/m 11,5 C 15,1 C 6,4 km/h (2 Bft) 97,87 %
21.08.2016 21:50 15,1 C 80 % 1021,6 hPa 0,0 l/m 4,3 km/h (1 Bft) W 259 0 min 0,000 mm 0,0 UV-I 0 W/m 11,7 C 15,1 C 6,4 km/h (2 Bft) 100,00 %
21.08.2016 21:52 15,1 C 80 % 1021,7 hPa 0,0 l/m 4,6 km/h (1 Bft) W 259 0 min 0,000 mm 0,0 UV-I 0 W/m 11,7 C 15,1 C 6,4 km/h (2 Bft) 100,00 %
21.08.2016 21:54 15,1 C 80 % 1021,7 hPa 0,0 l/m 4,3 km/h (1 Bft) W-SW 257 0 min 0,000 mm 0,0 UV-I 0 W/m 11,7 C 15,1 C 6,4 km/h (2 Bft) 100,00 %
21.08.2016 21:56 15,1 C 80 % 1021,7 hPa 0,0 l/m 4,8 km/h (1 Bft) W-SW 254 0 min 0,000 mm 0,0 UV-I 0 W/m 11,7 C 15,1 C 8,0 km/h (2 Bft) 97,87 %
21.08.2016 21:58 15,1 C 80 % 1021,7 hPa 0,0 l/m 4,0 km/h (1 Bft) W-SW 253 0 min 0,000 mm 0,0 UV-I 0 W/m 11,7 C 15,1 C 6,4 km/h (2 Bft) 100,00 %
21.08.2016 22:00 15,1 C 80 % 1021,7 hPa 0,0 l/m 4,4 km/h (1 Bft) W-SW 243 0 min 0,000 mm 0,0 UV-I 0 W/m 11,7 C 15,1 C 8,0 km/h (2 Bft) 100,00 %
21.08.2016 22:02 15,0 C 81 % 1021,7 hPa 0,0 l/m 4,9 km/h (1 Bft) SW 225 0 min 0,026 mm 0,0 UV-I 0 W/m 11,8 C 15,0 C 8,0 km/h (2 Bft) 100,00 %
21.08.2016 22:04 15,0 C 81 % 1021,7 hPa 0,0 l/m 5,6 km/h (1 Bft) SW 224 0 min 0,000 mm 0,0 UV-I 0 W/m 11,8 C 15,0 C 8,0 km/h (2 Bft) 100,00 %
21.08.2016 22:06 14,9 C 81 % 1021,6 hPa 0,0 l/m 4,9 km/h (1 Bft) SW 219 0 min 0,000 mm 0,0 UV-I 0 W/m 11,7 C 14,9 C 6,4 km/h (2 Bft) 100,00 %
21.08.2016 22:08 14,9 C 81 % 1021,6 hPa 0,0 l/m 5,0 km/h (1 Bft) SW 228 0 min 0,000 mm 0,0 UV-I 0 W/m 11,7 C 14,9 C 6,4 km/h (2 Bft) 100,00 %
21.08.2016 22:10 14,9 C 81 % 1021,6 hPa 0,0 l/m 4,4 km/h (1 Bft) SW 229 0 min 0,000 mm 0,0 UV-I 0 W/m 11,7 C 14,9 C 6,4 km/h (2 Bft) 100,00 %
21.08.2016 22:12 14,8 C 81 % 1021,7 hPa 0,0 l/m 5,2 km/h (1 Bft) SW 225 0 min 0,000 mm 0,0 UV-I 0 W/m 11,6 C 14,8 C 8,0 km/h (2 Bft) 100,00 %
21.08.2016 22:14 14,8 C 82 % 1021,6 hPa 0,0 l/m 4,1 km/h (1 Bft) SW 225 0 min 0,000 mm 0,0 UV-I 0 W/m 11,8 C 14,8 C 8,0 km/h (2 Bft) 97,87 %
21.08.2016 22:16 14,8 C 83 % 1021,6 hPa 0,0 l/m 4,9 km/h (1 Bft) SW 223 0 min 0,000 mm 0,0 UV-I 0 W/m 11,9 C 14,8 C 8,0 km/h (2 Bft) 98,00 %
21.08.2016 22:18 14,7 C 84 % 1021,5 hPa 0,0 l/m 4,5 km/h (1 Bft) SW 223 0 min 0,000 mm 0,0 UV-I 0 W/m 12,0 C 14,7 C 6,4 km/h (2 Bft) 100,00 %
21.08.2016 22:20 14,7 C 84 % 1021,5 hPa 0,0 l/m 3,2 km/h (1 Bft) SW 223 0 min 0,000 mm 0,0 UV-I 0 W/m 12,0 C 14,7 C 4,8 km/h (1 Bft) 100,00 %
21.08.2016 22:22 14,6 C 84 % 1021,5 hPa 0,0 l/m 3,2 km/h (1 Bft) SW 223 0 min 0,000 mm 0,0 UV-I 0 W/m 11,9 C 14,6 C 4,8 km/h (1 Bft) 100,00 %
21.08.2016 22:24 14,6 C 83 % 1021,5 hPa 0,0 l/m 2,6 km/h (1 Bft) SW 223 0 min 0,000 mm 0,0 UV-I 0 W/m 11,7 C 14,6 C 4,8 km/h (1 Bft) 100,00 %
21.08.2016 22:26 14,6 C 84 % 1021,5 hPa 0,0 l/m 3,0 km/h (1 Bft) SW 223 0 min 0,000 mm 0,0 UV-I 0 W/m 11,9 C 14,6 C 4,8 km/h (1 Bft) 100,00 %
21.08.2016 22:28 14,6 C 83 % 1021,5 hPa 0,0 l/m 3,4 km/h (1 Bft) SW 223 0 min 0,000 mm 0,0 UV-I 0 W/m 11,7 C 14,6 C 4,8 km/h (1 Bft) 100,00 %
21.08.2016 22:30 14,6 C 83 % 1021,6 hPa 0,0 l/m 3,3 km/h (1 Bft) SW 229 0 min 0,000 mm 0,0 UV-I 0 W/m 11,7 C 14,6 C 4,8 km/h (1 Bft) 100,00 %
21.08.2016 22:32 14,6 C 83 % 1021,6 hPa 0,0 l/m 4,4 km/h (1 Bft) SW 233 0 min 0,000 mm 0,0 UV-I 0 W/m 11,7 C 14,6 C 6,4 km/h (2 Bft) 100,00 %
21.08.2016 22:34 14,6 C 84 % 1021,7 hPa 0,0 l/m 5,0 km/h (1 Bft) S-SW 209 0 min 0,000 mm 0,0 UV-I 0 W/m 11,9 C 14,6 C 8,0 km/h (2 Bft) 98,11 %
21.08.2016 22:36 14,6 C 84 % 1021,7 hPa 0,0 l/m 5,3 km/h (1 Bft) S-SW 212 0 min 0,000 mm 0,0 UV-I 0 W/m 11,9 C 14,6 C 8,0 km/h (2 Bft) 100,00 %
21.08.2016 22:38 14,5 C 84 % 1021,7 hPa 0,0 l/m 3,8 km/h (1 Bft) S-SW 212 0 min 0,000 mm 0,0 UV-I 0 W/m 11,8 C 14,5 C 4,8 km/h (1 Bft) 100,00 %
21.08.2016 22:40 14,5 C 84 % 1021,7 hPa 0,0 l/m 5,2 km/h (1 Bft) S-SW 209 0 min 0,000 mm 0,0 UV-I 0 W/m 11,8 C 14,5 C 8,0 km/h (2 Bft) 97,87 %
21.08.2016 22:42 14,4 C 85 % 1021,8 hPa 0,0 l/m 5,0 km/h (1 Bft) SW 224 0 min 0,000 mm 0,0 UV-I 0 W/m 11,9 C 14,4 C 6,4 km/h (2 Bft) 100,00 %
21.08.2016 22:44 14,4 C 85 % 1021,8 hPa 0,0 l/m 5,3 km/h (1 Bft) S-SW 213 0 min 0,000 mm 0,0 UV-I 0 W/m 11,9 C 14,4 C 8,0 km/h (2 Bft) 100,00 %
21.08.2016 22:46 14,4 C 86 % 1021,7 hPa 0,0 l/m 6,3 km/h (2 Bft) W-SW 237 0 min 0,000 mm 0,0 UV-I 0 W/m 12,1 C 14,4 C 9,7 km/h (2 Bft) 100,00 %
21.08.2016 22:48 14,3 C 87 % 1021,7 hPa 0,0 l/m 8,7 km/h (2 Bft) SW 226 0 min 0,000 mm 0,0 UV-I 0 W/m 12,2 C 13,0 C 11,3 km/h (2 Bft) 100,00 %
21.08.2016 22:50 14,3 C 87 % 1021,8 hPa 0,0 l/m 8,6 km/h (2 Bft) W-SW 242 0 min 0,000 mm 0,0 UV-I 0 W/m 12,2 C 13,0 C 12,9 km/h (3 Bft) 97,62 %
21.08.2016 22:52 14,3 C 87 % 1021,8 hPa 0,0 l/m 8,5 km/h (2 Bft) SW 219 0 min 0,000 mm 0,0 UV-I 0 W/m 12,2 C 13,1 C 11,3 km/h (2 Bft) 100,00 %
21.08.2016 22:54 14,2 C 87 % 1021,8 hPa 0,0 l/m 5,8 km/h (2 Bft) S-SW 207 0 min 0,000 mm 0,0 UV-I 0 W/m 12,1 C 14,2 C 9,7 km/h (2 Bft) 100,00 %
21.08.2016 22:56 14,2 C 87 % 1021,8 hPa 0,0 l/m 5,5 km/h (1 Bft) SW 215 0 min 0,000 mm 0,0 UV-I 0 W/m 12,1 C 14,2 C 8,0 km/h (2 Bft) 100,00 %
21.08.2016 22:58 14,2 C 87 % 1021,8 hPa 0,0 l/m 7,0 km/h (2 Bft) W-SW 244 0 min 0,000 mm 0,0 UV-I 0 W/m 12,1 C 13,8 C 9,7 km/h (2 Bft) 100,00 %
21.08.2016 23:00 14,2 C 87 % 1021,8 hPa 0,0 l/m 5,8 km/h (2 Bft) SW 236 0 min 0,000 mm 0,0 UV-I 0 W/m 12,1 C 14,2 C 8,0 km/h (2 Bft) 100,00 %
21.08.2016 23:02 14,2 C 87 % 1021,9 hPa 0,0 l/m 5,2 km/h (1 Bft) W-SW 246 0 min 0,025 mm 0,0 UV-I 0 W/m 12,1 C 14,2 C 8,0 km/h (2 Bft) 100,00 %
21.08.2016 23:04 14,3 C 87 % 1021,8 hPa 0,0 l/m 6,5 km/h (2 Bft) W-SW 257 0 min 0,000 mm 0,0 UV-I 0 W/m 12,2 C 14,3 C 9,7 km/h (2 Bft) 100,00 %
21.08.2016 23:06 14,3 C 87 % 1021,9 hPa 0,0 l/m 6,4 km/h (2 Bft) W-SW 257 0 min 0,000 mm 0,0 UV-I 0 W/m 12,2 C 14,3 C 9,7 km/h (2 Bft) 97,50 %
21.08.2016 23:08 14,3 C 87 % 1021,9 hPa 0,0 l/m 7,3 km/h (2 Bft) W-SW 256 0 min 0,000 mm 0,0 UV-I 0 W/m 12,2 C 13,8 C 11,3 km/h (2 Bft) 96,00 %
21.08.2016 23:10 14,3 C 87 % 1021,9 hPa 0,0 l/m 7,2 km/h (2 Bft) W-SW 258 0 min 0,000 mm 0,0 UV-I 0 W/m 12,2 C 13,8 C 11,3 km/h (2 Bft) 96,00 %
21.08.2016 23:12 14,4 C 86 % 1021,8 hPa 0,0 l/m 6,9 km/h (2 Bft) W-SW 255 0 min 0,000 mm 0,0 UV-I 0 W/m 12,1 C 14,1 C 11,3 km/h (2 Bft) 95,74 %
21.08.2016 23:14 14,4 C 86 % 1021,8 hPa 0,0 l/m 7,1 km/h (2 Bft) W-SW 246 0 min 0,000 mm 0,0 UV-I 0 W/m 12,1 C 14,0 C 9,7 km/h (2 Bft) 97,87 %
21.08.2016 23:16 14,4 C 86 % 1021,8 hPa 0,0 l/m 5,6 km/h (1 Bft) W-SW 240 0 min 0,000 mm 0,0 UV-I 0 W/m 12,1 C 14,4 C 8,0 km/h (2 Bft) 97,56 %
21.08.2016 23:18 14,4 C 86 % 1021,9 hPa 0,0 l/m 6,7 km/h (2 Bft) W-SW 254 0 min 0,000 mm 0,0 UV-I 0 W/m 12,1 C 14,2 C 11,3 km/h (2 Bft) 97,22 %
21.08.2016 23:20 14,5 C 86 % 1021,9 hPa 0,0 l/m 6,0 km/h (2 Bft) SW 221 0 min 0,000 mm 0,0 UV-I 0 W/m 12,2 C 14,5 C 8,0 km/h (2 Bft) 98,18 %
21.08.2016 23:22 14,5 C 86 % 1022,0 hPa 0,0 l/m 5,9 km/h (2 Bft) W-SW 246 0 min 0,000 mm 0,0 UV-I 0 W/m 12,2 C 14,5 C 8,0 km/h (2 Bft) 98,11 %
21.08.2016 23:24 14,6 C 86 % 1022,1 hPa 0,0 l/m 5,7 km/h (1 Bft) SW 225 0 min 0,000 mm 0,0 UV-I 0 W/m 12,3 C 14,6 C 8,0 km/h (2 Bft) 97,22 %
21.08.2016 23:26 14,6 C 86 % 1022,1 hPa 0,0 l/m 5,7 km/h (1 Bft) SW 234 0 min 0,000 mm 0,0 UV-I 0 W/m 12,3 C 14,6 C 8,0 km/h (2 Bft) 98,15 %
21.08.2016 23:28 14,5 C 86 % 1022,1 hPa 0,0 l/m 6,0 km/h (2 Bft) SW 226 0 min 0,000 mm 0,0 UV-I 0 W/m 12,2 C 14,5 C 8,0 km/h (2 Bft) 95,24 %
21.08.2016 23:30 14,5 C 86 % 1022,1 hPa 0,0 l/m 5,7 km/h (1 Bft) SW 232 0 min 0,000 mm 0,0 UV-I 0 W/m 12,2 C 14,5 C 8,0 km/h (2 Bft) 97,37 %
21.08.2016 23:32 14,4 C 86 % 1022,0 hPa 0,0 l/m 4,8 km/h (1 Bft) SW 223 0 min 0,000 mm 0,0 UV-I 0 W/m 12,1 C 14,4 C 6,4 km/h (2 Bft) 96,92 %
21.08.2016 23:34 14,4 C 87 % 1022,1 hPa 0,0 l/m 5,1 km/h (1 Bft) SW 218 0 min 0,000 mm 0,0 UV-I 0 W/m 12,3 C 14,4 C 6,4 km/h (2 Bft) 96,15 %
21.08.2016 23:36 14,5 C 87 % 1022,0 hPa 0,0 l/m 4,7 km/h (1 Bft) S-SW 205 0 min 0,000 mm 0,0 UV-I 0 W/m 12,4 C 14,5 C 6,4 km/h (2 Bft) 98,39 %
21.08.2016 23:38 14,5 C 87 % 1022,1 hPa 0,0 l/m 3,8 km/h (1 Bft) SW 221 0 min 0,000 mm 0,0 UV-I 0 W/m 12,4 C 14,5 C 6,4 km/h (2 Bft) 98,00 %
21.08.2016 23:40 14,5 C 87 % 1022,1 hPa 0,0 l/m 4,4 km/h (1 Bft) SW 224 0 min 0,000 mm 0,0 UV-I 0 W/m 12,4 C 14,5 C 6,4 km/h (2 Bft) 97,87 %
21.08.2016 23:42 14,4 C 87 % 1022,1 hPa 0,0 l/m 3,9 km/h (1 Bft) SW 214 0 min 0,000 mm 0,0 UV-I 0 W/m 12,3 C 14,4 C 6,4 km/h (2 Bft) 100,00 %
21.08.2016 23:44 14,4 C 87 % 1022,1 hPa 0,0 l/m 3,3 km/h (1 Bft) SW 227 0 min 0,000 mm 0,0 UV-I 0 W/m 12,3 C 14,4 C 8,0 km/h (2 Bft) 98,00 %
21.08.2016 23:46 14,4 C 87 % 1022,1 hPa 0,0 l/m 4,7 km/h (1 Bft) SW 234 0 min 0,000 mm 0,0 UV-I 0 W/m 12,3 C 14,4 C 6,4 km/h (2 Bft) 97,87 %
21.08.2016 23:48 14,4 C 87 % 1022,1 hPa 0,0 l/m 4,0 km/h (1 Bft) W-SW 245 0 min 0,000 mm 0,0 UV-I 0 W/m 12,3 C 14,4 C 6,4 km/h (2 Bft) 97,56 %
21.08.2016 23:50 14,4 C 87 % 1022,0 hPa 0,0 l/m 4,8 km/h (1 Bft) W 261 0 min 0,000 mm 0,0 UV-I 0 W/m 12,3 C 14,4 C 6,4 km/h (2 Bft) 100,00 %
21.08.2016 23:52 14,4 C 88 % 1022,0 hPa 0,0 l/m 6,1 km/h (2 Bft) W-SW 257 0 min 0,000 mm 0,0 UV-I 0 W/m 12,4 C 14,4 C 9,7 km/h (2 Bft) 96,36 %
21.08.2016 23:54 14,4 C 88 % 1021,9 hPa 0,0 l/m 8,6 km/h (2 Bft) SW 236 0 min 0,000 mm 0,0 UV-I 0 W/m 12,4 C 13,1 C 14,5 km/h (3 Bft) 100,00 %
21.08.2016 23:56 14,4 C 88 % 1022,0 hPa 0,0 l/m 7,1 km/h (2 Bft) W-SW 250 0 min 0,000 mm 0,0 UV-I 0 W/m 12,4 C 14,0 C 11,3 km/h (2 Bft) 100,00 %
21.08.2016 23:58 14,5 C 87 % 1022,0 hPa 0,0 l/m 8,0 km/h (2 Bft) W-SW 254 0 min 0,000 mm 0,0 UV-I 0 W/m 12,4 C 13,6 C 14,5 km/h (3 Bft) 100,00 %
_ Min-Zeit 07:38 14:16 00:00 - 20:42 - - - - - - 20:58 07:18 20:42 15:22
Minimum _ 14,0 C 70 % 1013,6 hPa - 0,3 km/h (0 Bft) - - - - - - 11,2 C 7,4 C 1,6 km/h (1 Bft) 93,62 %
_ Max-Zeit 14:26 06:22 23:24 06:14 07:18 - - 10:02 14:02 13:38 13:38 00:38 14:24 07:18 00:04
Maximum _ 19,3 C 97 % 1022,1 hPa 0,6 l/m 32,5 km/h
W-NW (5 Bft)
- - 2 min 0,254 mm 3,9 UV-I 524 W/m 17,4 C 19,2 C 53,1 km/h
W-SW (7 Bft)
100,00 %
Durchschnitt _ 17,0 C 85 % 1017,9 hPa #15,0 l/m 9,0 km/h (2 Bft) W-SW - #1:00 h #1,778 mm 1,6 UV-I 185 W/m 14,4 C 15,7 C 14,5 km/h (3 Bft) 98,74 %